GFSGL_850_temp_000.txt.gz
Temp
17 16 16 16 16 16 15 16 16 16 15 16 15 16 15 15 15 15 16 16 15 15 15 16 16 16 17 16 17 17 17 18 17 17 16 16 16 15 16 16 16 15 15
17 17 16 16 16 16 16 16 15 15 15 15 15 15 15 15 15 15 15 14 14 15 15 15 15 15 16 16 17 17 17 17 17 16 16 16 16 16 16 16 15 15 16
16 17 16 15 15 15 15 15 15 15 15 15 14 14 15 14 14 14 14 14 14 15 15 15 15 15 15 15 15 16 16 16 16 16 16 16 16 16 16 16 16 15 16
17 17 16 16 15 15 15 15 15 15 15 14 14 14 14 14 14 14 14 13 13 14 14 13 14 14 14 14 14 14 15 15 15 15 15 16 15 15 14 15 14 14 14
18 17 16 16 16 15 15 15 15 15 14 14 14 14 14 14 14 14 13 13 13 13 13 13 13 13 13 13 13 14 14 15 15 15 14 14 14 14 13 13 13 13 12
17 18 17 16 16 15 15 15 15 14 14 14 14 13 13 13 13 13 13 12 12 12 12 12 12 13 13 13 13 13 14 14 14 14 14 14 12 13 12 13 13 13 13
17 17 17 16 16 16 15 15 14 14 14 13 13 13 13 13 12 12 12 12 12 12 12 12 12 11 12 12 13 13 12 13 14 15 14 13 12 12 13 13 12 12 12
17 17 17 16 16 16 15 14 14 14 13 14 13 13 13 13 12 12 12 11 10 11 10 11 11 11 11 12 12 12 13 13 13 12 12 13 12 12 12 12 12 11 11
16 16 16 16 15 15 14 14 13 13 13 12 14 13 13 12 12 12 11 11 11 10 11 11 11 11 10 10 11 11 12 12 12 12 12 11 11 11 11 10 10 10 9
15 15 15 15 16 16 15 13 12 12 11 11 13 13 13 12 11 11 11 11 10 10 10 10 10 10 10 10 10 10 10 10 10 10 10 10 9 9 9 9 9 9 7
15 15 15 15 15 15 15 13 13 12 11 11 11 11 11 10 10 9 9 9 9 10 10 9 9 9 9 9 9 9 9 8 8 8 8 7 6 6 5 6 7 7 7
14 14 14 14 13 13 13 12 12 11 10 10 10 9 9 8 8 9 9 8 8 8 8 8 8 8 8 8 8 7 7 6 7 6 6 6 6 6 5 5 5 5 5
12 13 13 12 12 12 12 11 10 9 9 8 7 8 8 8 7 7 7 7 7 7 7 7 7 7 7 6 5 5 5 6 6 6 6 5 5 5 5 4 4 4 4
11 10 10 10 10 10 10 9 8 8 7 7 7 7 7 7 7 6 7 6 6 6 5 5 5 5 4 4 4 4 4 4 4 5 5 4 4 4 4 4 4 4 4
9 9 9 9 9 8 7 7 6 6 6 7 7 7 7 7 7 7 7 6 5 5 4 4 4 4 4 4 4 4 3 3 3 3 3 3 3 3 3 3 3 3 4
9 8 8 7 7 7 7 6 6 6 6 6 6 6 7 7 7 6 5 5 4 4 5 4 4 4 4 4 4 4 3 3 3 3 3 3 3 3 3 3 3 3 3
7 6 6 6 7 6 6 6 6 5 5 5 5 6 6 6 5 5 5 5 5 5 4 4 3 3 3 3 3 3 3 3 3 2 2 2 2 2 2 3 3 3 3
8 8 8 8 7 7 7 7 6 5 5 5 5 5 5 5 4 4 5 5 5 5 5 4 4 3 3 3 3 2 2 2 2 2 2 2 2 2 2 2 2 2 2
9 9 9 9 9 9 9 9 8 7 6 6 5 5 5 5 4 4 5 5 5 5 5 4 3 3 3 2 2 2 1 2 1 1 2 1 1 1 2 2 2 2 2
10 10 10 9 9 10 10 9 9 8 8 7 5 5 5 5 5 5 5 5 5 5 4 4 4 3 2 2 1 1 2 2 2 1 1 1 1 1 1 1 1 2 2
10 9 9 10 10 9 9 9 8 8 8 7 6 6 5 5 6 5 5 4 4 4 3 3 3 3 3 2 1 1 2 2 1 1 0 0 0 0 1 1 1 1 1
11 11 10 10 9 8 8 8 7 7 7 7 6 6 5 6 6 5 4 4 3 3 2 2 2 3 3 2 1 1 1 2 1 -0 -1 -1 -0 0 0 -0 0 1 1
11 11 10 9 9 8 8 7 8 7 7 7 7 6 6 5 5 4 4 3 3 3 2 2 2 2 2 2 1 1 1 1 0 -1 -1 -1 -1 -0 -1 -0 0 1 1
10 11 10 9 8 8 8 8 7 7 7 7 7 6 6 5 5 4 3 3 3 3 2 2 2 2 1 1 1 1 0 0 -0 -1 -1 -1 -2 -1 -1 -1 -0 0 -0
11 11 10 10 9 9 8 8 8 8 7 7 7 6 6 5 4 4 3 3 3 3 3 2 2 1 0 -0 -0 0 -0 -1 -1 -1 -1 -1 -1 -2 -1 -1 -1 -1 -0
10 10 10 10 10 10 9 9 8 8 7 7 7 6 5 5 5 4 3 3 3 3 2 2 1 1 0 0 0 0 -0 -0 -0 -1 -1 -1 -2 -2 -2 -2 -1 -1 -0

GFSGL_850_temp_003.txt.gz
Temp
17 17 16 16 16 16 16 16 16 16 15 15 15 15 15 15 15 15 16 16 16 16 16 14 14 14 14 15 16 16 16 17 16 17 17 16 16 15 16 15 15 15 15
17 17 16 16 16 16 16 16 16 16 15 15 15 15 15 15 15 15 15 15 15 14 14 15 15 15 15 15 15 15 15 16 17 17 16 16 15 15 15 15 15 15 16
17 17 16 16 16 16 16 16 16 15 15 14 15 14 14 15 15 15 15 14 14 14 14 14 15 15 15 15 15 15 16 15 16 16 16 16 15 15 15 16 15 16 16
17 17 16 16 16 16 15 15 15 15 14 14 14 14 14 14 14 14 13 13 13 13 14 14 14 15 15 14 15 15 15 14 14 14 14 14 14 14 14 16 15 15 15
18 18 17 16 16 16 15 15 15 14 14 14 14 14 14 14 13 13 13 13 13 13 13 13 14 13 13 13 14 14 14 13 12 13 14 14 14 13 13 13 13 14 13
18 18 17 17 16 16 15 14 14 14 13 13 14 13 13 13 13 13 13 13 13 12 12 12 12 13 12 13 12 13 12 13 13 13 13 13 13 12 13 12 12 12 12
18 18 18 16 16 16 14 14 14 14 13 13 13 13 13 13 12 12 12 12 12 12 12 12 12 12 12 12 12 12 12 13 14 14 13 12 11 11 11 12 12 12 12
17 17 16 16 15 15 14 14 14 14 14 13 13 13 13 12 12 11 12 12 12 12 12 12 11 11 11 11 11 12 12 12 12 12 11 11 11 11 11 11 12 11 11
17 16 16 16 15 15 14 14 13 14 14 14 13 13 13 12 11 11 12 12 11 11 10 11 10 10 10 11 11 12 12 12 11 11 12 12 11 11 11 11 11 10 10
15 15 16 16 16 15 15 14 14 13 13 13 13 12 11 12 11 11 11 11 11 11 10 10 10 10 10 10 10 10 11 10 10 10 10 10 10 10 10 9 9 8 8
14 15 15 15 15 15 15 13 13 12 12 12 11 11 10 10 10 10 11 11 10 10 10 9 9 9 9 8 8 9 9 9 8 8 8 7 8 8 8 7 7 6 6
14 14 14 14 14 13 13 12 12 11 12 11 10 9 9 9 8 8 8 8 9 9 8 8 8 8 8 8 8 7 7 7 7 7 7 6 6 5 5 5 5 5 5
12 12 13 12 12 11 12 12 11 10 10 9 8 8 8 8 8 8 8 7 7 7 7 7 7 6 6 7 6 6 5 5 5 5 5 4 4 5 5 5 4 4 4
11 10 9 9 10 10 10 9 9 9 8 8 8 8 7 7 7 7 7 6 6 6 6 5 5 5 5 4 4 4 4 4 4 4 4 4 4 4 4 4 4 4 4
10 9 9 8 8 9 8 7 8 7 7 7 7 7 7 7 7 7 6 5 5 5 4 4 4 4 4 4 4 3 3 3 3 3 3 3 4 3 3 3 3 3 3
9 8 8 8 8 7 7 7 6 6 6 7 7 7 7 7 7 6 5 4 4 4 4 4 4 4 4 4 3 3 3 3 3 3 3 3 3 3 3 3 3 3 3
8 8 8 8 8 7 7 7 7 6 6 6 6 6 6 6 5 4 4 4 4 4 4 3 3 3 3 3 3 3 3 2 2 2 2 2 2 2 2 2 2 2 2
8 8 8 8 7 7 7 7 7 6 6 6 5 5 5 4 4 4 4 5 4 4 4 4 3 3 3 2 2 2 2 2 2 2 2 2 2 2 2 2 2 2 2
8 8 8 8 8 8 7 7 7 7 6 5 5 5 5 4 4 4 4 5 4 4 4 3 3 3 3 2 2 1 1 1 1 1 1 1 1 1 1 1 2 2 2
9 9 9 8 8 8 8 8 7 7 6 5 5 5 5 4 4 4 4 4 4 4 3 3 3 2 2 1 1 1 1 2 1 1 1 1 0 1 1 1 1 1 1
9 9 9 9 9 9 9 8 8 7 6 6 5 5 5 5 5 4 4 4 3 3 3 3 2 2 2 1 1 1 1 1 1 1 1 0 -0 0 0 0 1 1 1
10 10 9 9 9 9 8 8 7 7 7 6 6 5 5 5 5 4 4 3 3 2 2 2 2 2 2 1 1 1 1 1 0 0 0 -0 -0 -0 -0 0 0 1 1
10 10 9 9 9 8 8 8 7 7 7 6 6 6 5 5 4 4 3 3 2 2 2 2 2 2 1 1 1 1 1 0 0 -0 -0 -1 -0 -1 -1 -0 -0 0 0
10 10 10 10 9 8 8 7 7 7 7 7 6 6 5 5 4 4 3 3 2 2 2 2 2 1 1 1 0 0 -0 -0 -0 -1 -1 -0 -1 -1 -1 -1 -1 -0 -0
10 10 10 10 9 8 8 8 7 7 7 7 6 6 5 5 4 4 3 3 2 2 2 2 2 1 1 0 0 0 0 -0 -0 -0 -0 -0 -1 -1 -1 -1 -1 -1 -0
10 9 10 9 9 9 9 8 8 7 7 7 6 6 6 5 5 4 3 3 3 2 2 2 1 1 1 0 0 0 0 0 -0 -1 -1 -1 -1 -1 -1 -1 -1 -1 -1

GFSGL_850_temp_006.txt.gz
Temp
17 16 16 16 16 16 16 16 15 15 15 15 15 15 15 15 15 15 15 15 16 15 15 15 15 15 15 14 14 14 14 15 16 17 17 17 16 16 16 15 15 15 15
18 17 16 16 16 16 16 15 15 15 15 15 15 14 15 15 15 15 15 15 15 15 15 15 14 14 13 13 14 14 14 15 14 16 16 16 16 15 15 15 14 15 15
18 17 16 16 16 16 15 15 15 15 14 14 14 15 15 15 15 15 15 15 15 14 14 13 13 13 13 13 14 14 14 14 14 15 15 15 15 14 15 14 15 15 15
18 17 17 16 16 16 15 15 15 15 15 14 14 14 14 14 14 14 14 14 14 13 13 13 13 13 13 13 14 14 13 13 14 14 13 13 14 14 14 13 14 14 14
17 17 17 16 16 15 15 15 14 15 15 15 15 14 14 14 13 13 13 13 13 13 13 13 12 12 12 13 13 13 13 13 13 13 13 13 12 13 13 13 12 13 13
18 18 17 17 16 15 14 14 15 14 14 14 14 14 13 14 13 13 13 13 13 12 12 13 13 13 13 13 13 12 12 12 13 12 12 12 12 12 12 12 12 12 12
17 18 18 17 16 16 15 14 14 14 14 14 14 13 13 13 12 12 12 13 13 12 12 12 12 12 12 12 12 12 12 12 12 12 12 12 12 12 12 12 12 12 11
17 17 16 16 16 16 16 15 14 14 14 14 13 13 13 12 12 12 12 12 11 12 12 12 11 11 11 12 12 12 11 11 12 11 11 11 11 11 11 11 11 11 11
16 16 16 16 16 16 15 15 14 14 14 14 14 13 12 12 11 11 12 12 12 12 12 11 11 10 10 10 10 11 11 11 10 10 10 10 10 11 11 10 11 11 10
15 16 15 15 16 15 15 14 14 13 13 14 13 13 11 11 11 11 11 11 11 10 9 9 9 9 9 9 10 10 10 10 9 9 9 9 9 9 9 9 9 9 9
14 15 15 15 15 15 14 13 13 12 12 12 12 12 11 10 10 10 10 10 9 9 9 8 7 7 8 8 8 9 8 8 8 8 8 8 8 8 8 7 7 7 6
13 13 13 14 14 13 13 12 12 12 11 11 11 10 10 9 9 8 9 9 9 9 8 8 7 7 7 7 7 7 7 7 7 6 6 6 6 6 6 5 5 5 4
12 12 13 13 13 12 12 12 11 11 10 10 9 9 9 8 8 7 8 8 7 7 7 7 6 6 6 6 6 6 6 5 5 5 5 5 4 4 4 4 4 4 4
11 11 11 11 10 10 10 9 9 9 10 9 9 8 8 7 7 7 7 6 6 6 6 5 5 5 5 5 5 4 4 4 4 4 4 4 4 4 3 4 3 3 3
10 10 9 9 9 9 8 8 9 8 7 8 8 8 7 7 7 6 6 6 5 5 5 5 4 4 4 4 3 3 3 3 3 3 3 3 3 3 3 3 3 3 3
9 9 8 8 8 8 8 8 7 7 7 8 7 7 7 7 6 5 5 5 5 4 4 4 4 3 3 3 3 3 3 3 3 3 2 2 2 2 2 2 3 3 2
9 8 8 8 8 8 8 8 8 7 7 7 7 6 6 6 5 5 4 4 4 4 4 3 3 3 3 3 3 3 2 2 2 2 2 2 2 2 2 2 2 2 2
8 8 8 8 8 8 7 7 7 7 7 6 5 5 5 4 4 4 4 4 4 4 4 3 3 3 2 2 2 2 2 1 1 1 1 1 1 1 1 1 1 2 2
8 8 8 8 8 8 8 7 7 7 7 6 5 5 4 4 4 4 4 4 4 4 3 3 3 3 2 2 2 1 1 1 1 1 1 1 1 1 1 1 1 1 1
8 8 8 8 8 7 7 7 6 6 6 6 6 5 4 4 4 4 4 4 4 4 3 3 3 2 2 2 1 1 1 1 1 1 1 1 0 0 0 0 1 1 1
8 9 8 8 8 8 7 7 7 6 6 6 5 5 5 4 4 4 4 4 4 3 3 2 2 2 2 1 1 1 1 1 1 1 1 0 0 -0 -0 0 0 0 1
9 9 9 9 9 9 8 8 7 7 6 6 6 5 5 5 4 4 4 4 3 3 2 2 2 2 1 1 1 1 1 1 0 0 0 -0 -0 -1 -1 -0 -0 0 0
10 9 9 9 9 9 8 7 7 7 6 6 6 5 5 5 4 4 4 3 3 2 2 2 2 2 1 1 1 1 0 0 -0 -0 -1 -1 -1 -1 -1 -1 -0 -0 -0
10 10 10 10 9 9 8 8 7 7 6 6 6 6 5 5 5 4 4 3 3 2 2 2 2 1 1 1 0 -0 -0 -0 -0 -0 -0 -0 -0 -1 -1 -1 -1 -1 -1
10 10 10 10 9 9 9 8 7 7 7 7 6 6 6 5 5 4 4 3 3 2 2 2 2 1 1 1 0 0 0 0 0 0 -0 -0 -1 -1 -1 -1 -1 -1 -1
9 10 10 9 9 9 8 8 7 7 7 7 7 6 6 6 5 5 4 4 3 2 2 2 2 2 1 1 1 0 1 0 0 -0 -0 -0 -1 -1 -1 -1 -1 -1 -1

GFSGL_850_temp_009.txt.gz
Temp
17 16 16 16 16 16 16 16 15 15 15 15 15 15 15 14 14 15 15 15 15 16 16 16 15 15 15 15 15 15 15 15 15 15 16 16 16 16 16 15 15 15 15
17 16 16 16 16 16 16 15 15 15 15 15 15 15 15 15 15 15 15 15 15 15 15 15 15 14 15 15 14 14 14 14 14 14 14 15 15 15 14 14 14 14 14
17 17 16 16 15 15 15 15 15 14 15 15 15 15 15 15 15 15 15 15 15 14 14 14 14 14 14 14 13 13 13 14 14 14 14 14 14 14 14 14 14 14 14
17 17 16 16 15 15 15 15 15 14 14 14 14 14 14 14 14 14 14 14 14 14 14 14 14 14 13 13 13 13 13 13 13 13 13 13 13 13 13 13 13 13 13
17 17 17 17 16 15 15 15 15 14 14 14 14 14 14 14 13 13 13 13 13 13 13 13 13 12 12 12 12 13 13 13 12 12 12 12 12 12 12 12 12 12 12
17 17 18 17 17 16 15 15 14 14 14 14 14 13 13 14 13 13 13 13 13 12 12 12 12 12 12 12 12 12 12 12 12 12 12 12 12 11 11 11 11 12 11
18 17 16 17 17 16 16 15 15 14 14 14 14 13 13 13 13 13 13 13 12 12 12 12 12 12 12 12 12 12 12 12 11 11 11 11 11 11 11 11 11 11 10
18 17 16 16 16 16 15 15 15 15 14 14 13 13 12 12 11 12 12 12 11 12 12 12 11 12 11 12 12 12 12 12 12 11 11 11 11 11 10 10 10 11 10
17 17 16 16 16 16 15 15 15 15 15 14 14 13 12 11 11 11 11 12 11 11 11 11 10 11 10 10 10 11 11 11 10 10 10 9 9 9 9 9 9 9 8
16 16 15 15 16 15 15 14 14 13 14 14 13 12 11 11 10 10 10 11 11 11 10 9 9 9 9 9 10 10 10 10 9 9 9 9 8 8 9 9 9 9 8
14 14 14 15 15 15 15 14 13 13 13 13 13 12 10 10 10 10 11 10 10 10 9 9 8 7 8 8 8 9 9 8 8 8 8 8 8 7 7 7 7 7 7
13 13 14 14 14 14 13 13 12 12 12 12 12 11 10 10 9 9 9 8 8 9 9 8 8 7 7 7 7 7 6 6 6 6 6 6 6 5 5 5 5 5 5
13 12 13 12 12 12 12 12 12 11 11 11 11 9 9 8 8 8 8 7 7 7 7 7 6 6 6 6 6 6 5 5 5 5 5 4 4 4 4 4 4 4 4
12 12 11 11 11 10 9 10 10 10 10 10 9 8 8 7 7 7 7 6 6 6 6 6 5 5 5 5 4 5 4 4 4 4 3 3 3 3 3 3 3 3 3
11 10 10 10 9 10 9 8 9 9 8 8 8 7 7 7 6 6 6 6 6 6 5 5 4 4 4 4 4 3 3 3 3 3 3 3 2 2 2 3 3 3 3
10 9 9 9 9 9 9 9 8 7 6 6 7 6 6 6 5 5 5 5 5 5 5 4 4 3 3 3 3 2 2 2 2 2 2 2 2 2 2 2 2 2 2
9 9 8 8 8 8 8 9 9 7 7 7 7 6 6 6 5 5 5 4 4 4 4 4 3 3 3 2 2 2 2 2 2 2 2 1 1 1 1 1 2 2 1
9 9 9 8 8 8 8 8 8 7 7 7 6 6 5 5 4 4 4 4 4 4 3 3 3 2 2 2 2 1 1 1 1 1 1 1 1 0 1 1 1 1 1
8 8 8 8 8 8 8 7 7 7 7 6 6 5 4 4 4 4 4 4 4 4 3 3 3 2 2 2 2 1 1 1 1 1 1 1 1 -0 0 0 1 1 1
8 8 8 8 8 7 7 7 7 7 6 6 5 5 4 4 4 4 4 4 4 3 3 3 2 2 2 2 2 1 1 1 1 1 1 0 0 0 -0 0 0 0 1
8 8 8 8 8 7 7 7 7 6 6 5 5 5 4 4 4 4 4 4 3 3 3 3 2 2 2 1 1 1 1 1 1 0 0 -0 -0 -0 -0 -0 -0 0 1
8 8 8 8 8 8 8 8 7 6 6 5 5 5 5 5 5 5 4 4 3 3 3 2 2 2 2 1 1 1 0 0 0 0 -0 -1 -1 -1 -1 -1 -0 -0 0
9 9 9 9 9 8 8 8 7 7 6 6 6 6 5 5 5 5 4 4 3 3 2 2 2 2 1 1 1 1 0 0 -0 -0 -1 -1 -0 -1 -1 -1 -1 -1 -0
9 9 9 9 9 9 8 8 8 7 7 6 6 6 6 6 5 5 5 4 3 3 2 2 2 1 1 1 1 1 1 0 -0 -0 -0 -0 -0 -1 -1 -1 -1 -1 -1
9 10 10 10 9 9 9 8 8 8 7 7 7 6 6 6 5 5 5 4 4 3 2 2 2 1 1 1 1 1 1 1 0 0 0 -0 -0 -1 -1 -1 -1 -1 -1
9 9 10 10 10 9 8 8 8 8 7 7 7 7 6 6 6 5 5 4 4 4 3 3 2 2 1 1 1 1 1 1 1 0 0 0 -0 -1 -1 -1 -1 -1 -1

GFSGL_850_temp_012.txt.gz
Temp
17 17 17 16 16 15 15 15 15 15 15 14 15 15 15 15 15 15 15 15 15 15 15 16 16 16 16 15 15 15 15 15 14 14 15 15 15 16 15 15 15 15 15
17 16 16 15 15 15 15 15 15 15 14 14 14 14 15 15 15 15 15 15 15 15 15 16 16 15 15 14 15 15 15 14 13 13 14 14 14 14 14 14 13 14 14
16 16 16 15 15 15 15 15 15 15 15 14 14 14 14 15 14 15 15 15 15 15 15 14 14 14 14 14 14 14 14 13 13 13 13 13 13 13 13 13 13 13 12
16 16 16 16 16 15 15 15 15 15 15 14 14 14 14 14 14 14 14 14 14 14 14 14 14 13 13 13 13 13 13 13 13 13 13 13 12 12 13 13 12 12 12
16 16 16 16 16 16 15 15 15 15 14 14 14 14 13 14 13 13 13 13 13 13 13 13 13 13 13 12 12 12 12 12 13 12 12 12 12 12 12 12 12 12 12
16 16 16 16 16 16 16 15 15 14 14 14 14 13 13 13 12 12 12 13 13 12 12 12 12 12 12 12 12 12 12 12 12 11 11 11 11 11 11 11 11 11 11
17 16 16 16 16 16 16 15 15 14 14 14 14 13 13 13 12 12 12 12 13 12 12 12 12 12 12 11 11 11 12 11 11 11 11 11 11 11 11 11 10 10 10
17 17 16 15 16 16 16 15 15 14 14 13 13 13 13 12 11 12 12 11 12 12 11 12 11 11 11 11 11 11 12 11 10 10 10 10 10 10 10 10 10 10 9
17 17 16 16 16 16 16 15 14 15 14 14 14 12 11 11 10 11 11 11 11 11 11 11 10 10 10 10 10 11 11 11 10 10 10 9 9 10 10 9 9 9 9
17 17 16 15 15 15 15 15 15 14 14 14 14 12 11 10 10 10 10 10 11 11 10 10 9 9 9 9 9 9 9 9 8 8 8 8 8 8 8 8 8 8 8
15 14 14 14 14 14 14 14 13 13 13 13 13 11 10 10 10 10 10 10 10 10 9 9 8 8 8 8 8 8 8 7 7 7 7 7 7 7 7 7 7 7 7
13 13 12 13 13 14 13 13 12 12 12 12 12 11 10 10 10 9 9 9 8 8 8 8 8 7 7 7 7 7 7 6 6 6 6 6 6 6 6 5 5 5 5
12 12 12 12 13 12 12 12 12 11 11 11 10 10 9 9 9 8 7 7 7 8 7 7 6 7 7 7 6 6 5 5 5 5 5 4 4 4 4 4 4 4 4
11 12 12 12 12 11 10 10 9 9 10 10 10 9 9 8 7 7 6 6 6 7 6 6 6 6 6 5 5 5 5 5 4 4 3 3 3 3 3 3 3 3 3
11 11 11 10 10 10 9 9 9 9 8 8 9 8 8 8 6 6 6 6 6 6 5 5 5 5 4 4 4 4 4 3 3 3 3 3 3 3 3 2 2 2 3
11 11 10 9 9 9 9 9 9 8 8 7 7 8 7 6 6 5 5 5 5 5 5 4 4 4 3 3 3 3 3 2 2 2 2 2 2 2 2 2 2 2 2
10 9 9 9 9 9 8 8 8 7 6 6 7 6 5 5 5 5 5 5 4 4 4 4 3 3 2 2 2 2 2 2 2 1 1 1 1 1 1 1 1 1 1
9 9 9 9 8 8 8 8 7 7 7 7 6 5 5 4 4 4 4 4 4 4 4 4 3 3 3 2 2 1 1 1 1 1 1 1 1 0 0 1 1 1 1
9 9 8 8 8 8 7 7 7 7 7 6 6 5 4 4 4 4 4 4 4 4 3 3 3 3 2 2 2 1 1 1 1 1 1 0 0 0 0 0 0 0 1
8 8 8 8 8 7 7 7 7 6 6 5 5 4 4 4 4 4 4 4 4 3 3 3 3 2 2 2 2 1 1 1 1 1 0 0 -0 -0 -0 -0 -0 0 0
8 8 8 8 8 7 7 7 6 6 5 5 5 4 4 4 4 4 4 4 3 3 3 2 2 2 2 2 1 1 1 1 1 0 0 -0 -0 -0 -0 -1 -0 0 0
9 8 8 8 8 8 8 7 6 6 6 5 5 5 5 5 5 5 4 4 3 3 3 3 2 2 2 1 1 1 0 0 0 -0 -0 -0 -1 -0 -1 -1 -1 -0 -0
9 9 9 9 8 8 8 8 7 7 6 6 6 5 5 5 5 5 5 4 4 3 3 3 2 2 2 1 1 1 0 0 -0 -0 -0 -0 -0 -0 -0 -1 -1 -1 -1
9 9 9 9 9 9 9 8 8 8 7 7 6 6 6 6 6 5 5 4 4 3 3 3 2 2 2 1 1 1 1 1 1 1 0 0 0 0 -0 -1 -1 -1 -1
9 9 9 9 10 10 9 9 8 8 8 7 7 7 7 6 6 6 5 5 4 4 3 3 2 2 2 1 1 1 1 1 1 1 1 1 0 0 -0 -1 -1 -1 -1
9 9 9 9 9 10 9 8 8 8 8 8 8 7 7 7 6 6 6 5 5 4 4 3 3 2 2 1 1 1 1 1 1 1 1 1 0 0 -0 -1 -1 -1 -1

GFSGL_850_temp_015.txt.gz
Temp
17 17 16 16 15 16 16 16 16 15 15 15 15 15 15 15 15 15 14 15 15 15 15 15 15 15 16 16 15 15 15 16 16 15 15 15 15 15 15 15 14 14 14
17 16 16 16 15 15 15 16 15 15 15 15 15 15 15 14 15 14 14 14 15 15 15 15 15 15 15 15 15 14 14 15 14 14 14 13 13 14 13 14 13 13 13
17 17 17 17 16 16 15 15 15 15 15 15 15 15 15 15 15 15 14 14 14 15 15 14 14 14 14 14 14 14 14 14 13 13 13 13 13 13 13 12 12 12 13
17 17 17 16 15 15 15 15 15 15 15 15 14 14 14 14 13 13 13 14 14 14 14 13 13 13 13 13 13 13 13 13 13 13 13 12 12 12 12 12 12 12 12
17 17 17 16 15 15 15 15 15 15 14 14 14 14 14 14 12 13 13 13 13 13 13 13 13 13 13 13 12 12 12 12 12 12 12 12 12 11 12 12 12 11 11
17 17 16 16 16 15 15 15 14 15 15 14 14 13 13 13 13 12 13 13 13 12 12 12 12 12 12 12 12 12 12 12 12 11 11 11 11 11 11 11 11 11 10
16 16 16 16 16 15 15 15 14 14 14 14 14 13 13 13 12 12 12 12 12 12 12 12 12 12 12 12 12 12 12 11 11 11 11 11 11 11 11 11 10 10 10
16 16 16 16 15 15 15 14 14 14 14 14 14 14 13 12 11 11 11 11 12 11 12 11 11 11 11 11 11 11 11 10 10 10 10 10 10 10 10 10 10 9 9
16 16 15 15 14 15 15 14 14 14 14 13 13 12 11 11 11 11 11 11 11 11 11 11 11 10 10 10 10 11 10 10 9 9 9 9 9 9 9 9 9 7 7
16 16 15 14 14 14 14 14 14 13 13 13 13 11 10 10 10 10 10 11 11 11 10 10 9 10 9 9 9 9 9 8 8 8 8 8 8 8 8 8 8 8 7
15 15 13 13 14 14 14 14 13 13 13 13 13 10 10 10 10 10 10 10 10 10 10 9 9 9 9 9 9 8 8 8 7 7 7 6 7 7 7 7 7 7 6
14 13 12 13 13 14 13 13 13 12 12 12 12 11 10 10 10 9 9 9 9 9 9 8 8 8 8 8 8 7 7 6 5 5 5 5 4 5 5 5 5 5 5
12 12 12 12 12 13 12 12 12 12 11 10 11 10 10 10 9 9 8 8 8 8 8 7 7 7 7 7 7 6 6 5 5 5 4 4 5 5 4 4 4 4 4
11 11 11 11 11 11 10 10 10 10 10 10 9 9 9 9 8 7 7 7 6 7 6 6 5 6 6 6 5 5 5 4 4 4 3 3 3 3 3 3 3 3 4
10 10 10 10 10 10 9 9 9 9 9 9 8 8 8 7 7 6 6 6 6 6 6 5 4 4 4 4 4 4 3 3 3 3 3 3 3 3 3 3 3 3 3
10 9 9 9 9 9 9 9 9 8 9 8 7 7 7 6 6 6 6 5 5 5 4 4 3 3 3 3 3 3 2 2 2 2 2 2 2 2 2 2 2 3 3
9 9 8 8 8 8 8 7 8 7 6 7 6 6 5 5 5 5 5 5 5 4 4 4 3 3 3 3 2 2 2 2 2 2 2 2 2 2 2 2 2 2 2
9 9 9 9 8 8 8 8 7 6 6 6 5 5 5 5 5 5 5 5 4 4 3 3 3 3 3 2 2 2 2 1 1 1 1 1 1 1 2 2 2 2 2
9 8 8 8 8 8 7 7 7 6 5 5 5 4 4 4 4 4 4 4 4 4 3 3 3 3 2 2 2 2 1 1 1 1 1 1 1 1 1 1 1 1 1
8 8 8 8 8 7 7 7 6 6 6 5 4 4 4 4 4 4 4 4 4 3 3 3 3 3 2 2 1 1 1 1 1 1 1 0 0 0 1 1 1 1 1
9 8 8 8 8 7 7 7 6 6 6 5 4 5 4 4 4 4 4 4 3 3 3 3 2 2 2 2 1 1 1 1 1 1 1 0 0 0 0 0 1 1 1
9 9 8 8 8 8 8 7 7 6 6 6 5 5 5 5 4 4 4 4 3 3 3 3 2 2 2 2 1 1 2 1 1 0 0 0 -0 -0 -0 0 0 1 1
9 9 9 9 9 9 8 8 8 8 7 6 6 5 6 5 5 5 4 4 4 4 3 3 2 2 2 1 1 1 1 1 1 0 0 -0 -0 -0 -0 0 0 1 1
9 9 9 9 9 9 9 9 8 8 8 7 7 7 6 6 5 5 5 5 5 4 3 3 3 2 2 2 1 1 1 1 1 -0 0 -0 -0 0 -0 -0 0 0 0
9 9 9 8 9 9 9 9 9 8 8 8 8 7 7 7 6 6 6 5 5 5 4 4 3 2 2 2 1 1 1 1 1 1 1 0 0 0 -0 -0 -0 -0 -0
9 9 9 8 8 9 9 9 9 8 8 7 7 7 7 7 7 7 6 6 6 5 5 4 4 3 3 2 2 1 1 1 1 1 1 1 0 -0 -1 -1 -1 -0 -0

GFSGL_850_temp_021.txt.gz
Temp
18 17 16 17 17 16 16 15 15 15 15 15 15 16 15 15 16 16 16 15 16 15 16 15 15 16 16 16 15 16 16 16 16 15 15 15 15 15 14 14 14 14 14
18 17 17 17 17 16 15 15 15 15 14 14 15 15 14 15 15 16 15 15 15 15 15 15 15 15 15 16 16 16 15 15 15 15 15 14 14 13 13 13 13 13 13
18 18 17 18 17 15 15 15 15 14 14 15 14 14 14 14 14 15 15 15 15 15 14 14 15 14 15 15 15 15 15 15 14 14 14 13 13 13 13 12 12 12 12
19 19 18 18 17 16 15 14 14 14 14 14 14 14 14 14 13 14 14 14 15 15 14 14 14 14 14 14 14 14 14 14 13 14 13 13 13 12 12 12 12 12 11
19 19 18 18 17 16 15 15 14 14 14 15 14 14 13 12 14 13 14 14 14 14 13 13 13 13 13 13 13 13 13 13 12 12 12 12 12 11 11 11 11 11 11
19 19 19 18 17 16 15 16 15 15 15 15 15 14 13 14 14 13 13 13 14 14 14 13 13 13 13 12 12 12 12 12 12 12 11 11 11 11 11 11 11 10 10
18 18 18 17 17 16 15 15 14 16 16 15 15 14 14 14 14 13 13 12 12 12 12 12 11 12 12 12 12 13 12 11 11 12 11 11 11 11 10 10 10 10 10
16 16 17 17 17 16 15 15 16 15 15 15 15 13 14 14 13 13 12 11 11 11 11 10 11 11 11 10 12 12 12 12 12 11 11 11 11 10 10 10 9 9 9
16 14 15 16 16 16 15 15 14 15 14 14 12 12 12 13 12 12 11 11 10 10 11 10 10 11 11 10 10 11 11 11 11 11 11 10 10 10 9 9 9 10 9
14 16 18 17 16 15 15 14 14 14 14 13 12 11 13 13 12 12 11 11 10 9 10 11 11 11 10 10 9 9 9 8 8 8 9 9 9 9 9 9 10 11 10
17 17 16 16 15 14 14 14 13 13 13 12 13 12 12 12 12 11 11 11 10 11 9 11 11 11 10 10 9 9 8 9 9 9 9 9 9 8 7 7 8 8 9
16 16 16 15 13 13 13 13 13 12 12 12 11 10 12 11 11 11 10 10 10 10 9 10 9 10 10 9 9 9 9 9 10 10 10 9 9 8 6 6 8 8 8
15 15 14 13 12 13 12 12 12 11 12 12 11 10 10 10 10 10 10 9 9 8 8 9 9 9 9 9 9 9 8 9 9 10 9 8 7 7 7 7 6 6 6
13 13 12 12 11 12 11 11 11 11 10 10 10 10 10 10 9 9 8 8 8 8 8 8 9 8 7 8 7 8 8 8 9 9 8 8 8 7 7 7 7 8 8
11 11 12 11 11 11 10 10 10 9 9 9 9 9 9 9 9 9 8 8 8 8 8 8 8 8 8 8 8 8 8 7 8 7 7 8 7 7 7 7 7 7 8
9 10 11 10 9 9 9 9 9 9 9 8 8 8 8 8 8 7 7 7 7 7 7 8 9 9 9 9 8 8 7 7 7 7 7 7 7 7 7 7 7 7 7
10 10 10 8 8 8 9 8 8 8 8 7 8 8 8 7 7 7 7 7 7 7 7 9 9 8 8 8 8 8 8 6 6 6 6 6 6 6 6 7 7 7 7
9 10 11 11 11 11 11 10 10 9 7 6 7 7 6 6 6 6 7 7 6 7 8 9 8 8 7 7 7 7 6 5 6 5 5 5 6 6 6 6 6 6 7
11 11 11 11 11 11 11 11 11 10 10 8 5 6 6 6 6 6 7 7 8 9 9 8 7 7 6 6 6 5 5 5 5 5 5 5 5 6 6 6 6 5 5
10 10 11 11 11 11 11 11 10 10 9 9 9 9 6 6 5 6 6 7 8 8 9 8 8 6 6 5 5 5 4 4 4 4 5 5 5 5 6 6 6 6 6
11 10 11 12 12 12 11 11 11 11 10 10 9 9 8 7 9 9 9 8 8 8 8 8 7 7 6 5 4 5 5 5 5 5 5 5 5 5 5 5 5 6 6
11 11 12 12 11 11 11 11 11 11 11 10 10 9 8 7 8 9 9 9 8 8 7 7 6 7 7 6 6 5 5 5 5 5 5 5 5 5 5 5 5 6 6
12 12 12 12 11 11 11 12 12 12 11 11 11 10 9 8 8 9 9 9 8 8 7 6 6 6 6 6 6 5 5 5 6 6 5 5 5 5 5 5 5 5 6
12 12 12 12 11 12 12 12 12 11 11 11 11 11 11 10 10 9 9 8 8 8 7 6 6 6 6 6 6 5 5 5 5 5 4 4 4 5 4 4 5 5 6
11 11 11 11 10 11 10 11 10 11 11 11 10 10 10 10 9 9 9 9 8 8 7 7 6 6 6 5 5 5 5 5 4 4 4 3 4 4 4 4 5 5 5
11 10 11 11 10 10 10 10 10 10 10 10 11 10 10 9 9 9 9 8 8 7 7 7 7 6 6 6 6 5 5 4 4 4 3 3 3 3 4 4 4 4 5

GFSGL_850_temp_024.txt.gz
Temp
18 17 17 17 17 16 16 16 15 15 14 15 15 15 14 15 16 16 15 15 16 16 15 15 15 16 16 16 17 17 16 16 16 16 15 15 15 15 15 15 14 13 13
18 17 17 17 17 16 16 15 15 14 15 14 14 14 14 14 15 15 15 14 14 14 14 14 14 15 15 15 16 16 16 16 15 16 14 14 14 14 13 14 13 13 13
18 17 17 17 17 16 15 15 14 15 14 14 14 14 14 14 14 13 15 15 15 14 14 14 14 15 15 15 14 15 15 15 15 15 14 13 13 13 12 12 13 13 12
19 18 18 18 18 16 15 15 15 14 14 14 14 13 13 14 14 13 14 14 14 14 14 14 14 14 14 14 14 14 15 15 14 14 13 13 12 12 11 12 12 11 11
19 19 19 18 18 17 15 15 15 15 15 15 13 13 13 14 13 14 13 13 14 14 14 13 13 13 13 13 13 13 13 13 12 13 13 12 12 12 12 11 11 11 10
19 19 18 18 17 17 16 15 14 16 16 14 14 15 15 14 14 13 13 13 12 12 12 12 12 12 12 12 12 12 12 12 12 12 12 11 11 11 11 10 10 10 10
18 19 18 17 17 17 16 15 15 16 14 15 14 15 15 15 14 14 12 12 11 11 11 11 10 11 10 12 13 13 13 12 11 11 11 11 11 11 10 10 10 10 10
18 18 17 16 16 16 16 15 15 15 15 15 15 15 14 14 13 13 11 11 11 11 11 11 12 11 12 12 12 12 12 12 12 12 11 11 11 10 10 10 10 10 10
17 16 18 18 17 16 16 15 15 15 14 13 13 13 14 13 13 12 12 11 10 11 11 12 12 11 10 10 11 12 11 11 10 10 10 10 10 9 9 10 9 9 9
16 17 17 17 16 15 15 15 15 14 14 12 12 13 14 13 13 12 11 11 11 11 11 11 11 11 10 9 9 9 9 8 10 10 10 10 9 9 9 9 10 9 10
17 17 16 16 14 14 14 14 13 13 12 12 12 12 12 12 12 12 11 11 11 10 10 11 10 10 10 10 10 9 10 10 10 10 10 9 9 8 9 9 9 10 9
16 16 15 15 14 14 13 13 13 12 12 12 11 13 12 11 12 11 11 11 11 10 11 10 10 10 10 10 10 9 9 10 10 10 10 9 9 8 8 8 8 9 8
15 15 14 14 13 12 12 12 12 12 12 11 11 11 11 11 11 10 11 10 10 10 10 10 10 10 10 9 9 9 9 9 10 10 9 8 8 8 7 7 7 7 7
14 13 13 13 12 12 12 12 11 11 11 10 10 10 10 10 10 10 10 9 9 9 9 9 9 9 9 8 8 8 8 9 9 9 8 8 8 7 7 7 7 8 6
13 13 13 12 11 12 12 11 11 10 10 10 10 9 9 9 9 9 9 9 8 8 9 9 9 9 9 9 8 8 8 8 8 8 8 8 8 7 7 7 7 7 8
11 11 11 11 11 11 10 10 10 9 9 9 9 8 9 9 9 8 8 8 8 8 9 9 9 9 9 9 9 8 8 7 7 7 7 7 7 7 7 7 7 7 7
11 11 10 10 10 11 10 10 10 9 8 8 8 8 8 8 8 8 8 8 8 8 9 9 9 9 8 8 8 8 8 7 7 6 6 6 6 6 6 7 7 7 7
10 11 12 12 12 11 11 11 10 9 8 9 8 8 7 7 7 7 7 8 8 8 9 9 9 8 8 7 7 7 7 6 6 6 6 6 6 6 6 6 6 7 7
12 12 12 12 12 12 12 12 12 11 9 9 8 8 8 7 7 7 7 7 8 9 9 9 8 8 7 7 6 6 6 6 6 5 5 5 5 6 6 6 6 6 6
12 11 11 12 12 12 12 12 11 10 10 10 9 8 8 8 8 8 8 8 8 9 9 9 8 8 7 6 6 5 5 5 5 5 5 5 5 5 5 6 6 6 6
11 12 12 13 13 12 12 12 11 11 11 11 10 10 9 8 8 9 9 9 9 9 9 8 8 8 7 6 6 6 5 5 5 5 5 5 6 5 5 5 5 6 6
12 12 13 13 12 12 12 12 12 12 12 11 11 10 10 10 9 9 10 9 9 9 8 8 7 7 7 7 7 6 5 5 5 5 6 5 5 5 5 5 5 5 6
13 13 13 12 12 12 12 12 12 12 12 12 12 11 11 10 9 9 9 9 9 9 8 8 7 7 6 6 6 6 6 5 5 5 5 5 5 5 5 5 5 5 5
13 13 12 12 12 12 12 12 12 11 12 11 11 11 10 10 10 10 10 10 9 8 8 8 7 7 6 6 6 6 6 5 5 5 5 5 5 5 5 5 5 5 5
12 11 11 11 11 11 11 11 11 11 11 11 11 10 10 10 9 9 10 9 8 8 8 8 7 7 7 6 6 6 6 6 5 5 5 5 4 4 4 4 4 4 5
11 10 11 11 11 10 10 10 10 10 10 10 10 10 10 10 10 10 9 9 8 8 7 7 6 6 5 5 6 5 6 5 5 5 5 4 4 4 3 3 4 4 4

GFSGL_850_temp_027.txt.gz
Temp
18 18 17 17 16 16 16 16 14 14 14 15 14 14 15 16 16 16 16 15 15 15 15 15 15 15 16 16 15 16 16 16 16 14 15 14 14 14 13 14 14 13 13
18 18 17 17 17 17 16 15 14 14 13 13 14 14 14 15 16 16 16 15 15 15 14 14 14 14 15 15 16 16 16 16 16 15 14 13 13 13 13 13 13 13 13
18 18 17 17 17 17 16 16 14 14 14 13 14 14 14 14 15 16 15 15 15 15 15 15 15 15 15 14 14 14 15 15 15 15 14 13 13 12 12 12 12 12 12
18 18 18 18 18 17 17 16 14 14 14 14 14 15 15 15 15 15 15 15 15 14 14 14 14 14 15 14 14 14 14 14 14 14 13 12 12 11 11 11 11 11 11
19 19 18 18 18 18 18 17 16 16 15 14 15 15 15 15 14 14 14 14 14 14 13 13 14 13 13 13 13 13 13 13 13 13 12 12 11 11 11 11 11 10 10
19 19 18 18 17 17 17 15 16 16 13 14 15 15 15 15 13 13 13 13 12 13 12 13 13 13 13 13 13 13 13 13 12 12 11 11 11 11 10 10 10 10 10
19 18 18 17 16 16 16 15 15 16 14 14 15 15 15 14 14 13 12 12 11 10 11 11 12 13 13 13 13 12 12 12 12 11 11 11 10 10 10 9 9 9 10
19 19 18 18 17 15 15 15 15 15 15 15 15 14 14 14 13 12 12 12 12 11 11 11 11 12 12 12 12 12 12 12 12 11 11 11 10 9 9 9 9 9 10
19 19 18 18 17 16 15 15 15 15 14 12 12 13 13 13 12 11 12 12 12 12 12 12 11 11 11 10 11 11 11 11 10 10 10 10 9 9 9 9 9 9 8
18 18 18 18 17 15 15 15 15 14 13 12 12 13 13 12 12 11 11 11 11 11 11 11 11 11 10 10 10 10 10 10 9 9 9 9 9 9 9 9 9 10 8
17 17 17 17 17 14 14 14 14 13 13 12 12 12 12 12 12 11 11 11 11 12 11 11 11 11 10 10 9 9 10 9 9 9 8 8 8 9 9 9 9 9 9
17 16 16 16 14 13 13 14 13 13 13 12 12 11 11 11 11 11 11 11 10 10 11 11 11 11 10 10 9 9 9 9 10 9 9 9 8 8 8 7 7 8 8
16 15 15 14 13 12 12 12 13 12 12 12 11 11 11 11 11 11 10 10 10 10 10 10 10 10 10 10 9 9 9 9 9 9 9 8 8 7 7 7 7 7 7
15 14 14 13 12 12 12 12 11 11 11 11 11 10 10 10 10 10 10 9 10 9 9 9 9 9 9 9 8 8 9 8 8 8 8 8 8 7 7 7 7 7 7
14 13 13 12 12 12 12 11 11 11 11 10 10 10 10 9 9 9 9 9 9 9 9 9 9 9 9 8 8 8 8 8 8 7 7 7 7 7 7 7 7 7 7
13 12 12 11 11 11 11 11 10 10 10 9 9 9 9 9 9 9 9 9 8 9 9 9 9 9 9 8 8 8 8 8 7 7 7 7 7 7 7 6 7 7 7
12 12 11 11 11 11 11 11 11 10 9 9 9 8 8 8 8 8 8 8 8 9 9 9 9 8 8 8 8 8 7 7 7 6 6 6 6 6 6 6 6 6 7
11 11 11 11 11 12 11 11 10 10 10 9 9 9 9 8 8 8 8 9 9 9 9 8 8 8 8 8 7 7 7 6 6 6 6 6 5 5 6 6 6 6 6
12 12 12 12 12 12 11 10 10 10 10 10 9 9 9 9 8 8 8 8 8 8 9 9 8 8 8 8 7 7 6 6 6 5 5 5 5 5 5 6 6 6 6
12 12 12 12 12 12 12 11 11 11 10 10 10 10 10 9 9 9 9 9 9 9 9 9 8 8 7 7 7 7 6 6 5 5 5 5 5 5 5 5 5 5 6
12 12 12 12 12 12 12 12 11 11 11 11 11 11 10 10 10 8 9 9 9 9 9 9 8 8 7 7 7 6 6 6 5 5 5 5 5 5 5 5 5 5 5
12 13 12 12 12 12 12 12 12 12 12 11 11 11 11 10 10 10 9 9 9 9 9 9 8 8 7 7 6 6 6 6 5 5 5 5 5 5 5 5 5 5 5
13 12 12 12 12 12 12 12 11 12 12 11 11 11 11 10 10 10 10 10 9 9 9 9 8 8 8 7 7 6 6 6 6 5 5 5 5 5 5 5 5 5 5
12 13 12 12 12 12 11 11 11 11 11 11 11 10 10 10 9 9 9 9 9 9 8 8 8 7 7 6 6 6 6 6 6 5 5 5 5 5 5 5 4 4 5
11 11 11 11 11 11 11 11 10 10 10 10 10 10 10 10 9 9 9 9 8 8 7 8 7 6 6 6 6 6 5 5 5 5 5 5 5 5 5 4 4 4 4
11 11 11 11 11 10 10 10 10 10 10 10 9 9 9 9 9 8 8 8 8 7 7 6 6 6 6 6 6 5 5 4 5 4 5 4 4 5 4 4 4 4 4

GFSGL_850_temp_030.txt.gz
Temp
17 18 17 17 17 16 16 16 16 16 15 14 13 14 15 16 16 15 15 15 15 15 15 15 15 15 16 16 15 16 16 16 16 14 14 14 14 13 14 13 13 13 13
17 17 17 17 17 17 17 17 16 16 15 13 14 15 15 15 15 16 16 15 15 15 14 14 14 14 15 15 16 16 16 16 16 16 14 13 13 13 12 12 12 12 12
17 17 17 17 17 17 17 18 17 16 15 15 15 15 15 16 15 15 15 15 15 15 14 14 15 15 15 15 15 15 15 15 15 15 14 13 12 12 12 12 12 12 12
17 18 17 18 18 17 17 17 17 17 16 15 15 15 15 16 15 15 15 15 15 15 14 14 14 14 14 14 14 15 15 15 14 14 13 12 12 11 11 11 11 11 11
18 18 18 18 17 15 16 16 16 17 16 15 15 15 15 15 15 15 15 15 14 14 14 14 14 13 13 13 13 13 13 14 14 13 12 12 11 11 11 11 11 10 10
18 18 18 18 17 16 15 15 16 16 16 15 15 15 15 15 15 15 15 15 14 13 13 13 13 13 13 13 13 12 12 12 12 11 11 11 11 11 11 10 10 10 10
19 18 18 17 17 15 15 16 16 16 16 15 15 14 14 15 15 14 13 13 13 13 13 12 13 13 12 12 12 12 12 12 11 10 10 11 11 10 10 9 9 9 9
19 19 18 17 16 15 15 15 15 15 15 15 14 14 14 14 13 13 12 12 12 12 12 12 12 12 12 12 12 12 12 11 11 10 10 10 9 9 10 9 9 9 9
20 19 19 18 16 16 15 15 15 14 14 15 14 13 13 13 12 12 12 12 12 11 11 12 12 12 12 11 11 11 11 10 10 10 9 9 9 9 9 9 8 8 8
20 19 18 18 17 15 15 15 15 14 14 13 13 13 12 12 12 11 11 12 12 11 11 11 11 11 11 10 10 10 10 10 9 9 9 9 9 9 9 8 8 9 8
18 18 18 18 17 14 14 14 14 14 13 12 12 12 12 12 11 11 11 11 11 11 11 11 11 10 10 10 9 9 9 9 9 8 8 8 8 8 8 8 8 8 8
16 17 17 17 16 13 13 14 13 13 13 12 12 11 11 11 11 11 11 10 10 10 10 10 10 10 9 9 9 9 9 9 9 9 9 8 8 8 7 7 7 7 7
17 16 16 15 13 13 13 13 13 13 12 12 12 11 11 10 10 10 10 10 10 10 10 10 10 10 9 9 9 9 9 9 9 9 8 8 7 7 7 7 7 7 6
16 15 15 14 12 12 12 12 12 12 12 11 11 11 10 10 10 9 9 9 9 9 9 9 9 9 9 9 8 8 8 8 8 8 8 7 7 7 7 7 7 7 7
14 14 13 13 12 11 11 11 11 11 11 11 10 10 10 9 9 9 9 9 9 9 9 9 9 8 8 8 8 8 8 8 7 7 7 7 7 7 7 6 6 6 7
13 12 12 12 12 11 11 11 10 10 10 10 9 9 10 9 9 9 9 9 9 9 9 9 9 9 8 8 8 8 7 7 7 7 7 7 7 6 6 6 6 6 6
12 12 12 12 12 12 11 11 11 10 10 9 9 9 9 9 8 8 8 9 8 8 8 8 9 8 8 8 8 7 7 7 7 6 6 6 6 6 6 6 6 6 6
11 11 11 11 11 11 11 11 10 10 10 10 10 10 9 8 8 8 8 9 8 8 8 8 8 8 8 8 7 7 6 6 6 6 6 6 5 5 5 6 6 6 6
11 11 11 11 11 11 11 11 10 10 10 10 10 10 10 9 9 9 9 9 8 8 9 9 8 8 8 7 7 7 6 6 6 5 5 5 5 5 5 5 5 5 6
12 12 12 12 11 11 11 11 11 11 11 11 11 10 10 10 9 9 9 9 9 9 8 8 8 8 8 7 7 6 6 6 6 5 5 5 5 5 5 5 5 5 5
12 12 12 11 12 12 12 11 11 11 11 11 11 10 10 10 10 9 9 9 9 8 8 8 8 8 8 7 7 7 6 6 6 5 5 5 5 5 5 5 5 5 5
12 12 12 12 12 12 12 11 11 11 11 11 11 11 10 10 10 10 9 9 9 9 9 8 8 8 8 7 7 7 6 6 6 6 5 5 5 5 5 5 5 5 5
12 12 12 12 12 12 12 12 11 11 11 11 11 11 10 10 10 9 9 9 9 9 9 8 8 8 7 7 6 6 6 6 6 5 5 5 5 5 5 5 5 5 5
12 12 12 12 12 11 11 11 11 11 11 11 11 10 10 9 9 9 9 9 9 9 8 8 8 7 7 7 6 6 6 6 6 6 5 5 5 5 5 5 5 4 4
12 12 12 12 12 11 11 11 10 10 10 10 10 9 9 9 9 9 9 8 8 8 8 8 7 7 6 6 6 6 5 5 5 5 5 5 5 5 4 4 4 4 4
11 11 11 11 11 11 10 10 9 9 9 9 9 8 8 8 8 8 8 8 7 7 7 6 6 6 6 5 5 5 5 5 5 5 4 4 4 4 3 3 3 4 3

GFSGL_850_temp_033.txt.gz
Temp
17 17 17 17 16 17 17 16 16 16 16 15 15 15 16 16 15 16 16 15 15 15 15 15 15 15 15 15 15 16 16 15 15 15 14 13 13 13 13 14 14 13 13
17 17 16 16 17 17 17 17 16 16 16 16 16 16 15 15 15 15 15 15 15 15 15 14 14 14 14 15 15 15 15 15 15 15 14 13 13 13 13 13 12 12 12
17 17 17 17 17 17 17 17 17 16 16 16 15 16 16 15 15 15 15 15 15 14 14 14 15 14 14 14 14 15 15 15 15 15 14 13 13 12 12 12 11 11 11
18 17 17 17 17 16 17 17 16 16 16 16 15 15 15 15 15 15 15 14 14 14 14 14 14 14 14 14 14 14 14 14 14 14 13 13 12 12 11 11 11 11 11
19 18 18 17 17 15 17 16 16 16 16 16 15 15 15 15 15 14 14 14 13 13 13 13 14 13 13 13 13 13 13 13 13 12 12 12 12 11 11 11 11 11 10
18 18 18 17 17 16 16 16 16 16 16 16 16 15 15 14 14 14 13 13 13 13 13 13 13 13 13 13 13 13 13 12 12 11 11 11 11 11 11 10 10 10 10
18 18 18 17 18 18 16 16 16 16 16 16 16 15 14 14 14 13 13 13 12 12 12 12 13 13 13 13 13 13 13 12 12 11 10 11 10 10 10 10 9 9 9
18 18 18 18 18 18 18 15 15 15 15 16 15 15 14 14 13 12 12 12 12 12 12 12 11 12 12 11 12 12 12 12 11 11 10 10 9 9 9 9 9 9 9
19 19 18 18 18 18 16 15 15 14 15 14 14 14 14 13 13 12 12 12 12 12 12 11 11 11 11 10 10 11 11 11 10 10 10 9 9 9 9 9 8 8 8
19 18 19 19 18 17 16 15 14 14 14 14 13 13 13 12 12 12 11 11 11 11 11 11 11 10 10 10 10 9 10 10 10 9 9 9 9 9 9 8 8 8 8
18 17 17 17 17 16 14 15 14 14 13 13 12 12 12 12 12 11 11 11 11 10 11 11 11 10 10 9 9 9 9 9 9 9 9 8 8 8 8 8 8 8 8
17 16 16 17 15 14 14 14 14 13 13 13 12 12 12 11 11 11 11 10 10 10 10 11 10 10 9 9 9 8 9 9 9 9 8 8 8 7 7 7 7 7 7
15 15 15 15 13 13 13 13 13 13 13 12 12 11 11 11 11 10 10 10 10 9 9 9 9 9 9 8 8 8 8 9 9 8 8 8 7 7 7 7 7 6 6
13 14 14 14 12 12 12 12 13 13 12 12 11 11 11 10 10 10 10 9 9 9 9 9 9 9 9 8 8 8 8 8 8 8 7 7 7 7 7 6 6 6 6
14 13 14 13 11 11 11 12 12 12 12 11 11 11 10 10 9 9 9 9 9 8 8 9 8 9 9 8 8 8 7 7 7 7 7 7 7 7 6 6 6 6 6
13 13 13 12 12 11 11 11 11 11 11 10 10 9 9 9 9 9 9 8 8 8 8 9 9 9 8 8 8 7 7 7 7 7 6 6 6 6 6 6 6 6 6
12 12 12 12 11 11 11 10 10 10 10 9 9 9 9 9 8 8 8 8 8 8 8 9 9 8 8 8 7 7 6 6 6 6 6 6 5 5 5 5 5 6 6
11 11 11 11 11 11 11 11 11 11 11 11 10 10 9 8 8 8 8 8 8 8 8 8 8 8 8 7 7 7 6 6 6 6 5 5 5 5 5 5 5 5 6
11 11 11 11 11 11 10 10 10 11 10 10 11 10 10 10 9 9 8 8 8 8 9 8 8 8 8 7 7 6 6 6 6 5 5 5 5 5 5 5 5 5 5
11 11 11 11 11 11 11 11 11 11 11 10 10 10 10 10 9 9 9 9 8 8 9 8 8 8 8 7 7 7 6 6 6 5 5 5 5 5 5 5 5 5 5
11 11 11 11 11 11 11 11 11 11 11 11 10 10 10 10 9 9 9 9 9 9 9 8 8 8 8 7 7 7 7 6 6 6 5 5 5 5 5 5 5 5 5
12 12 12 12 12 12 11 11 11 11 11 11 11 10 10 10 9 9 9 9 9 9 9 8 8 8 8 7 7 7 7 6 6 6 6 5 5 5 5 5 5 5 5
12 11 12 12 12 11 11 11 11 11 11 11 11 11 10 10 9 9 9 9 9 9 9 9 8 8 8 7 7 7 6 6 6 6 6 5 5 5 5 5 5 5 4
12 12 12 12 11 11 11 11 11 11 11 11 11 11 10 10 9 9 9 9 9 9 9 9 8 8 7 7 7 6 6 6 6 5 5 5 5 5 4 4 4 5 4
12 12 12 12 11 11 11 11 11 11 10 10 10 10 10 9 9 9 9 9 9 8 8 8 7 7 7 6 6 6 6 5 5 5 5 4 4 4 4 4 4 4 3
12 12 12 11 11 11 10 11 10 10 10 9 9 9 9 9 8 8 8 8 7 7 7 7 6 6 6 5 5 4 4 4 4 4 3 3 3 3 3 3 3 3 3

GFSGL_850_temp_036.txt.gz
Temp
17 17 17 17 17 16 16 15 16 15 15 15 15 15 15 15 15 15 15 15 15 14 14 14 14 15 15 15 15 15 15 15 15 15 14 14 13 13 13 14 14 14 12
19 18 17 18 18 17 16 16 16 15 15 15 15 15 15 15 15 15 15 15 15 15 14 14 14 14 14 14 15 15 15 15 14 15 14 14 13 13 13 13 13 13 12
18 18 18 18 17 17 16 16 16 16 15 15 15 15 15 15 15 15 15 15 15 14 14 14 14 14 14 14 14 14 15 15 14 14 13 13 13 13 12 12 12 11 11
18 18 17 17 17 16 16 16 16 16 16 16 16 15 15 15 15 15 15 14 14 14 14 14 14 14 14 14 14 14 14 14 14 14 13 13 12 12 11 11 11 11 11
18 18 18 17 17 17 16 15 15 16 16 16 15 15 15 14 14 14 14 14 13 13 13 13 13 13 13 13 13 14 14 13 12 13 12 12 12 11 11 11 10 10 10
18 18 18 18 19 18 17 15 15 15 15 16 15 15 14 14 14 13 13 13 13 13 13 13 13 13 13 13 13 13 13 13 11 11 12 11 11 11 10 10 10 9 9
18 18 18 17 17 18 17 16 15 16 15 16 15 14 14 14 14 13 13 12 13 13 13 13 13 13 13 13 13 13 13 12 12 10 10 11 11 10 10 10 9 9 9
19 18 18 17 18 18 17 16 15 15 15 14 14 14 14 13 13 13 12 12 12 12 12 12 12 12 12 12 11 12 12 11 11 11 10 9 9 10 10 9 9 9 9
19 19 18 17 18 18 18 16 15 15 14 14 14 14 13 13 12 12 12 12 12 12 11 11 11 11 11 10 10 11 11 11 10 10 10 9 10 10 9 8 8 8 8
18 18 18 18 18 18 16 15 15 14 13 14 13 13 13 13 12 12 11 11 11 11 11 11 10 10 10 10 10 10 9 10 9 9 9 9 9 9 9 8 8 8 8
17 17 17 17 17 17 15 15 15 14 13 13 12 12 12 12 12 12 11 10 10 10 10 10 10 10 10 10 9 9 9 9 9 9 9 8 8 8 8 7 8 8 8
17 17 17 16 16 16 15 14 14 13 13 13 12 12 12 11 11 11 11 10 10 10 10 10 10 10 10 9 9 9 9 9 9 9 8 8 8 7 7 7 7 7 7
15 16 15 16 16 14 14 14 14 13 13 12 12 12 11 11 11 11 11 10 10 10 10 10 9 9 9 9 9 9 9 8 8 8 8 8 7 7 7 7 6 6 6
14 14 15 15 13 12 12 13 13 12 12 12 12 11 11 11 10 10 10 9 9 9 9 9 9 9 9 9 8 8 8 8 7 7 7 7 7 7 7 6 6 6 6
13 13 13 13 12 12 12 12 12 12 11 12 11 11 10 10 10 10 9 9 9 9 9 9 9 9 8 8 8 8 7 7 7 7 7 6 6 6 6 6 6 6 6
13 13 11 11 11 11 11 11 11 11 11 11 10 10 9 9 9 9 9 9 9 8 9 9 9 8 8 8 8 7 7 7 6 6 6 6 6 5 5 5 5 5 6
12 12 11 10 10 11 11 10 11 10 9 10 9 8 8 9 8 8 8 8 8 8 8 9 8 8 8 7 7 7 6 6 6 6 6 5 5 5 5 5 5 5 5
11 11 11 11 11 11 11 11 11 10 10 10 9 9 9 8 8 8 8 8 8 8 8 8 8 8 8 7 7 7 6 6 6 6 5 5 5 5 5 5 5 5 5
11 11 11 11 11 11 11 11 11 11 11 11 10 10 10 9 9 8 8 8 8 8 8 8 8 8 8 7 7 7 6 6 6 5 5 5 5 5 5 5 5 5 5
11 11 11 11 11 11 11 11 11 11 11 10 10 10 10 10 9 9 8 8 8 8 8 8 8 8 8 7 7 7 6 6 6 6 5 5 5 5 5 5 5 5 5
11 11 11 11 11 11 11 11 11 11 11 10 10 10 10 9 9 9 9 8 8 8 8 8 8 8 8 7 7 7 7 6 6 6 6 6 5 5 5 5 5 5 5
10 11 11 11 11 11 11 11 11 11 11 11 10 10 10 10 9 9 9 9 9 9 9 9 8 8 8 8 8 7 7 7 6 6 6 6 5 5 5 5 5 5 5
11 11 12 12 11 11 11 11 11 11 11 11 11 11 10 10 10 9 9 9 9 9 9 9 9 9 8 8 8 7 7 6 6 6 6 5 5 5 5 5 4 4 4
11 12 12 12 12 11 12 12 11 11 11 11 11 11 11 10 10 9 9 9 9 9 9 8 8 8 8 7 7 6 6 6 5 5 5 4 4 4 4 4 4 4 4
11 11 11 12 12 11 11 11 11 11 11 10 10 10 10 10 9 9 9 9 8 8 8 8 7 7 7 6 6 5 5 4 4 4 4 4 3 3 3 3 3 3 3
11 11 12 12 12 11 11 11 11 10 10 10 10 9 9 9 8 9 9 8 8 7 7 6 6 6 5 5 4 4 3 3 3 3 3 3 2 2 2 2 2 2 1

GFSGL_850_temp_042.txt.gz
Temp
17 16 18 16 15 14 14 14 17 17 17 17 16 16 16 16 15 14 14 15 15 15 15 15 15 15 15 15 16 15 15 15 15 14 14 13 13 13 13 13 13 12 12
17 16 17 17 15 14 14 17 17 17 16 16 16 16 16 16 14 13 13 14 16 15 15 15 14 14 14 15 15 15 15 15 15 14 13 13 13 13 12 12 12 12 12
18 16 16 15 15 14 16 17 17 17 16 15 16 16 16 16 16 15 13 14 14 15 15 15 15 15 15 15 15 15 14 14 14 14 13 13 12 12 12 12 12 11 11
16 16 16 16 15 15 14 14 14 15 16 16 15 15 15 15 15 14 15 15 14 14 14 14 14 15 14 13 14 13 13 13 13 13 13 12 12 12 11 11 11 11 10
17 17 16 16 16 15 14 14 13 14 16 16 15 14 13 13 13 14 14 13 13 13 12 14 14 14 14 14 12 13 13 12 13 13 12 12 11 11 11 10 10 10 10
17 16 16 16 16 15 15 16 13 15 16 15 15 14 13 14 15 14 13 14 14 14 14 13 13 13 13 14 14 13 13 12 12 11 11 11 10 10 11 9 10 10 10
17 17 16 16 16 16 15 16 14 13 15 15 14 12 13 15 15 14 14 13 13 13 13 12 11 12 11 11 12 13 12 12 12 11 11 11 10 10 10 9 9 9 9
16 17 16 16 16 16 15 16 14 14 15 15 15 13 14 14 14 14 13 13 13 13 13 13 12 12 13 11 11 12 12 12 11 10 11 10 10 9 9 9 10 9 9
16 16 17 17 17 17 17 15 14 14 14 14 14 13 13 13 13 13 13 12 13 12 12 12 12 12 12 12 11 11 11 11 11 11 10 10 10 10 10 10 11 11 10
16 18 18 18 17 17 17 15 14 14 13 13 14 13 13 13 12 12 12 11 12 12 12 12 12 11 11 11 10 9 9 9 9 8 9 9 9 9 9 9 9 10 11
18 18 18 17 17 17 16 15 14 14 13 13 13 13 13 12 12 12 11 11 11 11 10 10 11 11 11 11 11 9 10 9 9 9 9 10 9 9 9 7 8 8 9
18 18 17 17 17 17 16 15 15 14 13 13 13 12 12 12 12 11 11 11 11 11 11 10 10 10 10 10 10 10 10 9 10 10 10 10 10 9 9 7 7 7 7
16 15 16 17 17 16 15 15 14 13 13 13 12 12 12 12 12 12 11 11 10 10 10 10 10 10 9 9 9 9 9 10 10 10 10 9 9 8 7 8 8 7 8
14 14 15 15 15 14 14 13 13 13 13 12 12 12 12 12 12 11 11 11 10 10 9 9 9 9 9 9 8 9 9 9 9 9 9 9 9 8 8 8 8 8 8
13 14 14 13 12 12 13 13 13 13 12 12 12 12 11 10 11 11 10 10 9 9 9 9 9 9 10 10 9 9 9 9 9 8 8 8 8 8 8 8 8 8 8
12 11 11 11 12 12 13 13 12 12 12 12 12 11 11 11 11 10 10 10 10 9 9 10 10 10 10 10 10 9 9 8 8 8 8 8 8 8 7 8 8 8 8
11 12 11 10 11 11 12 12 12 12 11 11 11 10 10 10 9 9 9 9 9 9 10 10 10 10 10 10 10 9 9 8 7 8 8 8 8 8 8 8 8 8 8
12 12 10 10 10 11 11 11 11 11 10 11 10 10 9 9 8 9 9 9 9 9 10 11 10 10 10 9 9 9 9 8 8 8 8 8 8 7 8 8 8 8 8
11 11 10 10 10 10 10 11 11 11 11 9 9 9 9 9 9 9 8 9 10 10 10 10 10 10 9 9 9 8 8 8 8 8 8 8 8 8 8 8 8 7 7
10 10 10 11 10 11 11 12 12 11 11 10 10 9 10 9 8 8 8 9 10 11 10 10 10 9 9 9 8 8 8 8 8 8 8 8 8 8 8 8 8 8 8
11 9 10 11 12 12 12 12 12 12 12 11 11 10 10 10 10 10 10 9 10 10 10 10 10 10 9 9 8 8 9 9 9 8 8 8 7 7 7 7 8 8 8
11 11 11 12 12 12 11 12 12 12 12 12 11 11 11 10 11 11 10 10 10 10 10 9 10 10 10 9 8 8 8 8 8 7 6 6 6 6 6 6 6 7 7
11 11 11 11 11 11 11 12 12 12 12 12 12 11 11 10 11 11 11 10 10 9 8 9 8 8 8 9 9 8 7 6 6 6 5 5 5 5 6 5 6 6 6
10 11 10 11 11 12 12 12 12 12 12 12 12 12 11 10 10 10 10 9 10 9 9 8 8 7 8 8 8 8 8 7 6 5 5 4 4 4 4 4 4 5 4
10 10 11 12 12 11 11 11 12 12 12 11 11 11 11 10 10 10 9 10 9 9 9 8 8 8 8 7 7 7 6 6 5 5 4 3 2 3 2 3 3 3 3
10 10 10 10 11 11 11 11 12 11 12 11 10 11 10 10 10 10 10 9 8 6 7 7 7 7 7 6 6 6 5 5 5 4 4 2 1 2 2 1 2 2 2

GFSGL_850_temp_045.txt.gz
Temp
18 17 17 17 16 15 15 15 15 14 15 15 15 14 14 15 16 14 14 15 15 15 15 15 15 15 16 16 16 16 16 16 16 14 14 13 13 13 13 13 13 13 12
17 17 17 17 16 16 15 15 14 14 14 14 14 14 14 14 14 14 14 14 14 14 15 14 14 14 14 14 15 15 16 15 15 15 13 13 13 12 12 12 12 12 12
18 17 18 17 16 16 15 15 14 14 14 14 14 14 14 14 14 13 14 13 14 14 14 14 15 14 14 14 14 14 14 14 14 14 13 12 12 12 12 12 12 11 11
18 19 18 17 16 16 15 15 14 15 14 14 14 14 14 14 13 13 13 13 13 13 15 15 15 15 13 13 13 14 13 14 14 13 13 12 12 11 11 11 11 11 11
18 18 18 16 16 16 15 15 15 15 14 14 14 14 14 14 14 13 13 13 12 12 13 14 15 14 14 14 13 13 13 13 13 13 12 12 11 11 11 11 11 10 10
18 18 17 16 16 16 15 15 15 14 14 14 14 14 14 14 15 15 13 12 12 12 12 12 13 14 14 14 14 13 13 13 12 11 11 11 11 10 11 10 10 10 10
18 18 17 16 16 16 15 15 15 15 14 14 14 14 13 15 15 14 14 12 12 12 12 12 12 11 12 12 12 13 13 12 11 11 11 11 11 10 10 10 10 10 10
18 18 17 16 17 16 16 15 14 14 14 15 13 13 12 14 14 14 13 12 11 11 11 11 13 13 12 11 12 12 12 12 11 11 11 11 11 11 10 10 11 11 10
17 17 17 17 16 17 16 16 15 15 14 15 13 13 12 14 14 14 13 12 11 11 11 12 12 12 12 12 11 11 11 11 11 11 11 11 11 11 11 11 11 12 13
18 17 17 17 17 17 17 16 15 15 14 14 13 13 12 14 13 13 13 13 11 11 11 12 12 12 12 12 10 10 10 10 10 9 10 10 9 10 10 10 10 11 12
17 16 16 17 17 17 17 16 15 15 14 13 12 13 13 12 13 13 13 13 12 11 11 11 12 12 12 11 12 11 10 10 10 10 11 11 11 11 10 8 9 9 10
17 17 16 16 15 15 15 16 15 14 14 13 13 13 12 13 13 13 12 12 12 11 11 11 11 11 11 11 11 11 11 10 11 11 12 11 11 11 10 8 8 8 8
16 16 16 16 16 15 15 14 15 14 13 13 12 12 11 12 13 12 12 12 11 10 11 11 11 11 11 10 10 10 10 11 12 12 11 11 10 9 9 9 9 9 9
14 14 14 14 13 14 13 14 14 13 13 12 12 13 12 11 11 12 12 11 10 10 10 10 10 10 10 10 10 10 10 10 10 10 10 10 10 10 10 9 9 9 10
14 14 13 13 13 13 12 12 13 13 13 12 12 12 12 11 11 10 10 9 10 9 10 10 10 9 10 11 11 10 10 10 10 10 10 10 10 10 10 9 9 9 10
13 13 13 12 13 12 12 13 13 13 12 12 12 12 11 11 12 11 11 11 10 10 10 10 10 12 12 12 11 11 10 10 10 10 10 9 9 9 9 9 9 9 9
13 12 12 11 11 11 12 13 13 12 12 12 12 11 11 11 11 11 11 10 10 10 10 12 12 12 12 11 11 11 11 9 9 9 9 9 9 9 9 9 9 9 9
12 11 11 11 11 11 11 12 12 12 12 12 11 11 11 11 10 9 9 10 9 10 10 12 12 12 11 11 11 11 10 10 10 9 9 9 9 9 9 9 10 9 9
11 11 10 11 11 11 11 11 12 11 11 10 9 10 10 9 9 9 9 9 10 11 11 13 12 11 11 11 10 10 9 10 9 9 9 9 9 9 9 10 10 9 9
11 11 11 11 11 11 11 11 13 13 13 12 10 9 10 9 9 9 9 10 11 12 12 12 12 11 11 10 10 10 9 9 9 9 10 10 9 9 9 9 9 9 9
11 11 11 12 13 13 14 14 15 14 14 13 12 11 10 10 10 10 10 10 12 12 12 12 12 11 10 10 10 10 10 10 10 10 10 9 9 8 8 8 8 8 9
11 11 12 12 14 14 14 14 14 14 14 14 13 11 11 11 13 12 12 12 12 12 12 11 11 12 11 11 10 10 10 10 10 10 9 8 8 8 8 8 8 8 8
11 11 12 12 14 14 14 14 14 14 14 14 13 11 11 11 13 13 13 12 12 12 11 10 10 11 11 10 9 9 9 9 9 7 7 7 7 7 7 7 7 7 7
11 11 11 12 12 13 13 13 14 14 14 14 14 13 12 12 12 13 13 12 11 11 10 9 9 9 9 8 8 7 7 9 8 6 6 6 5 6 6 6 6 6 6
11 11 11 11 11 12 11 12 14 13 13 12 12 12 13 12 12 12 12 11 10 9 9 10 8 8 8 7 7 7 8 7 7 7 6 5 4 4 4 4 4 5 5
11 11 10 11 11 11 12 12 11 11 10 11 12 12 12 12 11 11 11 11 10 10 9 8 7 6 6 7 6 8 7 6 6 6 5 5 3 4 4 4 3 3 4

GFSGL_850_temp_048.txt.gz
Temp
18 18 17 17 16 17 16 16 16 15 15 15 15 15 15 15 15 15 15 15 15 14 14 15 15 15 16 16 16 16 16 16 15 13 13 13 13 13 13 13 13 13 12
17 17 17 17 16 16 16 17 15 15 15 14 15 15 15 14 15 14 14 15 15 14 14 14 14 15 16 15 16 16 16 16 16 15 13 13 13 13 12 12 12 12 12
18 18 17 17 16 16 16 16 15 15 15 14 14 14 14 14 14 14 14 14 15 14 15 14 14 13 14 14 14 14 15 15 15 15 13 12 12 12 12 12 12 12 12
18 18 17 17 17 16 16 15 15 15 15 14 14 14 14 14 13 13 14 13 14 15 15 15 14 14 14 14 14 14 13 14 14 15 13 12 12 12 12 12 12 11 11
18 19 18 17 17 16 16 16 15 15 15 14 14 14 14 14 15 13 13 13 13 14 14 15 15 14 14 14 14 14 14 14 13 13 12 12 12 11 11 11 11 11 11
18 19 18 17 17 17 17 16 15 15 15 14 14 14 14 15 15 14 13 13 13 13 13 13 13 14 14 14 13 13 12 13 13 12 12 12 12 11 11 10 10 11 11
18 18 18 18 17 17 16 15 15 15 15 14 14 14 15 15 15 14 13 13 13 12 12 13 12 12 13 14 14 14 13 12 12 12 11 11 11 11 11 10 11 10 10
18 18 18 18 17 17 17 15 15 15 15 15 14 14 15 15 15 14 13 12 13 12 13 13 13 13 13 13 13 13 13 12 12 11 11 11 11 11 11 11 11 11 11
17 17 17 16 17 17 17 16 16 15 15 15 14 14 14 15 14 14 13 12 12 12 12 13 13 13 12 11 12 12 12 11 11 11 11 11 11 11 11 11 10 11 11
16 16 17 16 16 16 16 17 16 15 15 14 14 13 13 15 14 14 13 12 12 12 12 13 12 12 12 11 10 10 10 10 10 11 11 11 10 10 10 11 11 11 11
16 17 17 16 15 16 15 15 16 15 15 14 14 13 13 14 14 13 13 12 12 12 11 12 12 12 12 12 12 11 10 11 11 11 11 11 11 10 10 10 10 10 10
17 17 16 16 15 16 16 15 15 15 15 14 13 13 12 14 14 13 13 13 12 12 12 12 12 12 12 12 12 12 11 11 11 11 12 11 11 10 10 9 9 9 9
17 16 16 16 16 17 16 16 16 15 15 14 13 13 12 12 14 13 13 12 12 12 11 12 12 12 11 11 11 11 11 11 11 12 12 11 10 10 10 9 9 9 9
16 16 17 16 16 16 15 15 15 14 14 14 13 13 12 12 12 13 12 12 12 12 12 11 11 11 11 11 10 10 10 11 11 11 11 10 10 10 10 9 9 9 10
14 15 15 15 15 14 14 14 14 13 13 13 13 13 12 12 12 13 12 12 12 11 11 11 10 11 11 11 11 11 10 10 10 10 10 10 10 10 10 9 9 9 9
13 13 13 13 13 13 13 13 12 13 13 13 12 12 12 12 12 12 12 11 11 11 10 10 11 11 11 11 11 11 11 10 10 10 10 9 9 10 9 9 9 9 9
13 12 12 12 12 12 11 12 12 12 12 12 12 12 12 12 12 11 11 11 11 11 10 11 12 12 12 12 12 12 11 10 10 9 10 9 9 9 9 10 10 10 9
12 11 11 12 11 11 11 12 12 12 12 12 12 12 12 11 11 11 11 11 11 11 11 11 11 12 12 12 11 11 11 10 10 9 9 9 9 9 9 10 10 10 10
12 11 11 11 11 11 11 11 11 11 12 12 11 11 11 11 11 11 10 10 10 10 11 12 12 12 12 11 11 11 10 10 10 10 9 9 9 9 9 10 10 9 9
12 12 12 12 11 11 11 11 12 12 12 12 12 12 11 10 10 10 10 9 10 10 12 12 12 12 11 11 11 10 10 10 10 10 10 10 10 9 9 9 9 8 9
12 12 12 12 12 12 12 12 12 12 12 11 11 11 12 11 10 10 10 10 10 12 12 13 13 12 11 11 10 10 10 10 10 10 10 10 9 9 9 8 8 8 8
12 12 12 12 12 12 13 14 14 14 14 13 13 13 12 12 10 11 11 11 11 12 13 13 12 12 12 11 11 10 10 10 10 10 10 9 9 9 8 8 8 8 8
13 12 12 12 12 13 14 15 15 15 15 15 14 13 13 12 12 12 12 12 12 12 12 12 12 12 11 11 11 10 10 10 10 9 9 9 9 7 7 7 7 7 7
13 12 12 12 12 13 13 14 14 14 14 14 14 13 13 13 13 13 13 13 13 12 12 11 11 11 11 10 10 9 9 9 9 9 9 8 8 7 6 6 6 6 6
13 12 12 12 12 12 12 12 12 12 12 12 12 12 12 11 10 10 12 13 12 12 11 11 10 10 10 10 9 9 8 9 8 8 7 7 6 6 5 5 5 5 5
13 12 12 11 11 11 11 11 12 11 11 10 11 12 11 10 9 9 10 11 11 11 11 10 10 9 8 8 7 8 8 7 7 7 6 6 6 5 4 4 4 4 4

GFSGL_850_temp_051.txt.gz
Temp
17 17 17 17 17 16 16 16 16 15 14 15 15 15 15 15 15 15 15 15 14 14 14 15 15 15 16 16 16 15 15 15 15 13 13 13 13 13 13 13 13 13 13
17 18 18 17 17 16 16 17 16 16 15 15 15 15 15 15 14 15 15 15 14 16 14 14 15 15 15 15 16 16 15 15 15 14 13 13 13 12 12 13 12 12 12
18 18 17 17 17 16 16 17 16 16 15 15 15 15 14 14 14 14 15 15 15 15 15 15 15 14 14 15 15 15 15 15 15 15 13 13 12 12 12 12 12 12 12
18 18 17 17 17 17 16 17 17 16 15 15 15 14 14 15 14 14 14 14 15 15 15 15 14 14 15 15 15 14 14 14 13 14 13 12 12 12 12 12 12 11 12
18 17 18 18 17 17 17 16 16 16 15 15 15 14 15 15 15 14 14 14 14 14 14 15 15 15 15 14 14 14 14 14 14 14 13 12 12 12 12 12 11 11 11
18 18 17 17 17 17 16 16 16 16 15 15 14 15 15 15 14 14 14 14 14 13 13 14 14 14 14 15 14 14 13 13 13 13 12 12 12 12 12 11 11 11 11
19 18 18 18 17 17 16 15 15 16 15 14 15 15 15 15 14 14 14 14 14 13 13 14 14 14 14 13 14 13 13 13 12 12 12 12 11 11 11 11 11 11 11
18 18 17 17 16 16 15 16 15 15 15 15 15 15 15 15 14 14 13 13 14 13 13 13 14 13 14 13 13 13 13 12 11 11 11 11 11 11 10 11 10 10 10
18 18 17 17 16 15 15 15 15 16 15 15 15 15 14 15 15 14 13 12 13 13 13 13 13 13 13 12 12 12 12 12 12 12 11 11 11 11 11 10 10 10 10
18 17 17 17 16 15 14 13 14 15 16 15 15 14 14 14 14 14 13 12 13 13 13 13 12 12 12 12 11 11 11 11 11 11 11 10 10 10 10 11 10 11 10
17 16 16 16 17 16 16 15 14 14 14 14 13 14 13 13 14 13 13 12 13 12 13 12 12 12 12 11 11 11 11 11 11 11 11 10 9 9 10 10 10 10 10
17 16 17 17 16 15 15 15 15 15 14 14 13 13 13 13 13 13 13 12 12 12 13 12 12 12 12 12 12 12 11 11 11 10 11 10 10 10 10 10 9 9 9
17 16 16 16 16 15 14 15 15 15 14 14 14 14 14 13 13 13 13 12 12 12 12 12 12 12 12 12 12 11 11 11 11 11 11 11 10 10 10 9 9 9 9
15 15 15 15 15 15 14 14 14 14 14 15 14 14 13 13 12 13 13 13 12 12 11 11 11 11 11 11 11 11 11 11 11 11 10 10 10 10 10 9 9 9 9
14 14 14 13 14 13 13 13 13 13 13 13 14 14 13 12 14 13 13 13 12 12 11 11 11 11 11 11 11 10 10 10 10 10 10 10 10 10 10 9 9 9 9
13 13 12 12 12 12 12 13 13 12 12 13 13 13 13 12 12 13 13 12 12 11 11 11 11 11 11 11 11 10 10 10 10 10 10 10 9 9 9 9 9 9 9
15 12 12 12 12 11 11 12 12 12 12 13 13 12 12 12 12 12 12 12 12 12 11 11 11 12 11 11 11 10 10 11 10 10 9 9 9 9 9 9 9 9 9
14 14 14 12 12 12 11 11 11 11 12 12 12 12 12 12 12 11 11 11 11 11 11 11 12 11 11 11 11 11 11 10 10 10 9 9 9 9 9 9 9 9 9
14 13 13 12 12 12 12 11 11 12 12 12 12 12 12 11 11 11 11 11 11 11 11 11 12 12 11 11 12 11 11 10 10 10 9 9 9 9 9 9 9 9 9
14 14 13 13 12 13 12 12 12 12 12 12 12 12 11 11 11 11 11 10 10 10 10 11 12 11 11 12 12 11 11 10 10 10 10 10 9 9 9 9 9 9 9
14 13 13 12 13 13 12 12 12 12 12 12 12 12 12 12 11 10 10 10 10 10 11 11 11 11 11 12 11 11 11 11 10 10 10 10 9 9 9 9 9 8 8
14 13 13 12 12 13 12 12 12 13 13 12 12 11 11 12 12 11 11 11 11 11 12 12 12 12 12 12 12 11 11 10 10 10 10 9 9 9 9 9 9 8 8
14 14 13 13 13 13 12 12 13 13 14 14 14 13 13 12 13 12 12 12 12 12 12 12 12 12 12 12 11 11 11 10 10 10 10 10 10 9 9 9 8 7 7
13 14 14 13 13 13 12 12 13 13 14 14 13 14 14 14 13 12 11 11 11 12 11 12 11 12 12 11 11 11 10 10 10 10 10 10 9 9 8 8 7 6 6
13 13 13 13 12 12 12 12 12 12 13 13 13 12 11 11 11 10 11 12 11 11 12 12 12 11 11 11 10 10 10 10 10 9 9 8 8 8 7 6 6 5 5
12 12 12 12 11 12 12 12 12 11 12 12 12 11 11 11 11 11 11 10 10 9 9 10 10 10 9 9 9 9 8 8 8 8 8 7 7 7 6 6 5 4 4

GFSGL_850_temp_054.txt.gz
Temp
18 18 18 17 17 17 16 16 16 15 15 15 15 15 15 15 15 16 16 17 16 16 16 16 16 16 16 16 16 15 15 15 15 13 13 12 13 13 13 13 13 12 12
18 18 17 17 18 16 16 16 16 16 15 14 14 15 15 15 15 16 17 16 16 16 16 15 16 16 16 16 16 16 15 15 15 14 12 12 13 13 12 12 12 12 12
18 18 18 17 17 17 16 16 15 15 15 15 15 15 15 15 16 16 16 16 16 16 15 15 15 15 15 15 15 15 15 15 15 15 13 12 12 12 12 12 11 11 11
18 18 18 17 16 17 16 16 16 15 15 15 15 15 14 14 14 15 15 16 16 15 15 15 14 15 15 15 15 15 15 15 14 14 13 12 12 12 12 11 11 11 11
18 17 17 17 17 17 16 16 15 15 15 15 15 15 14 14 14 14 14 15 15 15 15 15 15 15 15 15 15 15 14 14 14 14 12 12 12 12 12 11 11 11 11
18 18 17 17 17 17 17 16 16 16 15 14 15 15 15 15 14 14 14 14 15 14 15 15 15 14 14 14 15 14 14 14 14 13 12 12 12 11 11 11 11 11 11
18 18 17 16 17 17 16 17 16 17 15 15 15 14 14 14 14 14 14 14 14 14 14 14 14 15 15 15 14 14 14 13 12 12 12 12 12 11 11 11 11 11 10
18 18 18 17 16 16 16 15 15 15 16 16 15 14 14 15 14 14 14 13 13 13 13 14 14 14 14 14 14 13 13 12 12 12 11 11 11 11 11 10 10 10 10
18 18 18 17 17 16 16 14 15 14 14 15 15 14 14 14 14 13 13 13 13 13 13 13 13 13 13 13 13 13 12 12 12 12 11 11 11 11 11 10 10 10 10
18 18 18 17 17 17 15 15 15 15 13 13 14 14 14 14 14 13 13 13 13 13 13 13 13 13 12 12 12 12 12 11 11 11 11 10 10 10 10 11 10 10 11
18 18 17 16 16 17 16 16 14 14 13 13 14 14 14 13 13 13 13 13 13 13 13 13 13 12 12 12 11 11 11 11 10 10 10 10 10 10 10 10 10 10 10
17 17 16 16 16 16 16 16 15 14 14 14 14 14 14 13 13 13 13 13 13 13 13 12 12 12 12 12 11 11 11 11 11 10 10 10 9 10 9 9 9 9 9
16 16 16 15 16 16 15 15 15 15 14 14 15 14 13 13 13 13 13 13 13 13 12 12 11 11 11 11 11 11 10 10 11 11 11 10 10 10 9 9 9 9 9
15 15 15 15 15 15 14 14 14 14 14 14 14 13 14 13 13 13 13 13 12 12 12 12 11 11 11 11 11 11 10 10 11 11 10 10 10 10 9 9 9 9 9
14 14 13 13 13 14 14 13 13 13 13 14 14 14 14 13 13 13 13 13 13 12 12 11 11 11 11 11 11 10 10 11 10 10 10 10 10 10 9 9 9 9 9
15 15 14 13 12 11 12 12 12 13 13 13 13 13 13 13 13 12 12 12 12 12 11 11 11 11 11 11 11 11 10 10 10 10 10 10 10 9 9 9 9 9 9
14 14 13 13 11 11 11 11 11 12 11 12 12 13 12 13 12 12 12 12 12 12 12 12 11 11 11 11 11 10 11 10 10 10 10 9 9 9 9 9 9 9 9
15 14 14 13 12 12 11 11 11 11 11 12 12 12 12 12 12 12 12 11 11 11 12 12 12 11 11 11 11 10 10 10 10 10 10 9 9 9 9 9 9 9 9
15 15 14 14 13 12 12 12 11 11 12 12 12 12 12 12 12 12 11 11 11 12 12 12 12 11 11 11 11 11 11 11 10 10 10 10 9 9 9 9 9 9 9
15 15 14 14 13 13 12 12 12 12 12 12 11 12 11 11 11 12 11 11 11 11 10 11 11 11 11 11 11 11 11 11 10 10 10 10 9 9 9 9 9 9 9
14 14 14 14 14 13 12 12 12 12 12 12 12 12 12 12 11 11 11 10 10 10 10 10 10 10 10 11 11 11 11 11 11 10 10 10 10 9 9 9 9 9 9
13 13 13 13 13 13 13 12 12 12 12 13 13 13 12 12 12 13 12 10 10 10 10 10 10 10 11 11 11 11 11 11 11 10 10 10 10 10 9 9 9 9 9
13 13 13 13 13 13 13 12 12 12 12 13 14 14 13 13 13 12 12 11 11 10 11 11 11 11 11 11 11 11 12 11 11 11 10 10 10 10 9 9 9 8 8
12 13 13 13 13 12 12 12 12 12 12 13 13 14 14 13 13 12 11 10 11 11 11 11 11 11 12 12 12 11 11 11 11 10 10 10 10 9 8 8 7 8 8
11 11 12 13 12 12 12 12 11 11 11 12 12 13 13 13 13 11 11 10 11 11 11 11 10 11 11 10 11 11 11 10 10 10 9 9 8 7 7 8 8 7 7
10 11 11 11 12 12 12 11 12 11 10 11 11 11 11 12 11 11 11 10 11 10 11 11 10 9 9 9 10 9 9 7 7 7 7 8 8 8 7 7 7 6 6

GFSGL_850_temp_057.txt.gz
Temp
19 18 18 18 17 17 16 16 16 16 15 15 15 15 15 15 16 16 16 15 15 15 15 16 16 16 16 15 15 15 15 15 15 13 13 13 13 13 13 13 13 12 12
18 18 17 18 17 16 16 16 16 15 15 15 14 15 15 16 16 16 15 15 15 14 15 16 16 16 16 15 15 15 14 15 15 14 13 13 13 13 13 12 12 12 12
18 18 17 18 18 17 16 16 15 15 15 14 15 15 15 15 15 16 16 15 15 15 15 15 15 15 15 15 15 15 14 14 14 15 14 13 12 12 12 12 12 11 12
18 17 17 17 17 17 16 16 16 15 15 14 15 15 14 15 15 15 16 16 15 15 15 15 15 15 15 15 15 14 15 14 14 14 13 12 12 12 12 11 11 11 11
18 18 18 17 17 17 16 16 16 15 15 15 15 15 14 15 14 15 15 16 15 15 15 15 15 15 15 15 15 15 15 14 14 14 12 12 12 12 12 11 11 11 11
18 18 18 17 16 16 16 16 16 15 14 15 14 14 15 15 14 14 14 14 15 15 15 15 15 15 15 15 15 14 13 14 14 13 12 12 12 12 11 11 11 11 10
18 18 17 17 17 17 17 17 15 15 15 14 14 14 14 14 14 14 14 14 14 14 14 14 14 14 14 14 14 14 14 13 12 12 12 12 12 11 11 11 10 10 10
17 17 17 16 17 17 16 16 15 14 14 14 14 14 14 14 14 14 14 13 13 13 13 13 13 14 14 14 14 14 13 13 12 12 11 11 11 11 11 10 10 10 10
17 17 17 17 17 17 17 16 15 14 14 14 13 14 14 14 14 14 13 13 13 13 13 13 13 13 13 13 13 13 13 12 12 12 11 11 11 11 10 10 10 10 10
18 18 17 17 17 17 16 15 14 13 13 13 13 13 13 13 14 14 13 13 13 13 13 13 13 12 13 13 12 13 13 12 12 12 11 11 11 10 10 10 10 10 10
18 18 17 17 16 16 16 15 15 13 13 13 13 13 13 13 13 14 13 13 13 13 13 13 13 12 12 12 12 12 11 11 11 11 10 10 10 10 10 10 10 10 10
18 17 17 17 16 16 16 15 15 15 13 13 14 14 13 13 13 12 13 13 13 12 13 12 12 12 12 12 12 11 11 10 10 10 10 10 10 10 10 9 9 9 9
16 15 16 16 16 15 15 15 15 15 15 13 13 14 13 13 13 12 12 13 12 12 12 12 12 12 12 12 11 11 11 10 10 10 10 10 10 10 9 9 9 9 9
14 14 14 14 15 14 13 14 14 14 14 14 13 14 14 14 13 13 13 12 12 12 12 11 11 11 11 11 11 11 11 11 11 11 11 11 10 10 9 9 9 9 9
14 15 14 13 13 13 13 13 13 13 13 13 13 13 13 14 14 14 13 13 13 13 12 11 11 11 11 11 11 11 10 10 10 11 11 10 10 10 9 9 9 9 9
15 15 15 15 13 12 12 11 12 12 12 13 13 13 13 13 13 13 13 12 12 11 11 11 11 11 11 11 11 11 10 10 10 10 10 10 10 10 9 9 9 9 9
15 15 14 14 14 13 13 11 11 10 11 11 12 12 12 13 13 13 13 12 11 11 11 12 12 11 11 11 11 10 10 10 10 10 10 10 9 9 9 9 9 9 9
15 15 15 14 14 13 12 12 11 11 11 11 11 11 12 12 12 12 12 12 11 11 12 12 12 12 12 11 10 10 10 10 10 10 10 10 9 9 9 9 9 9 9
15 15 14 14 13 13 12 12 12 12 12 12 12 12 12 12 12 12 12 12 12 12 12 12 12 11 11 11 10 10 11 10 10 10 10 10 9 9 9 9 9 9 9
14 14 14 14 13 13 12 12 12 12 12 12 12 12 12 12 13 12 12 11 11 11 11 10 11 10 11 10 11 11 10 10 10 11 10 10 10 9 9 9 9 9 9
14 14 14 13 13 13 13 12 12 12 12 12 12 12 12 12 12 12 12 12 11 11 11 11 10 10 10 9 10 10 10 11 11 11 11 10 10 9 9 9 9 9 9
13 13 13 13 13 13 13 12 12 12 12 12 12 13 13 13 13 12 12 13 12 11 10 10 10 9 9 10 10 10 11 11 11 11 11 10 10 10 9 9 9 9 9
12 12 12 13 13 13 13 12 12 12 12 12 12 13 13 14 14 13 13 12 12 12 11 10 10 10 9 9 9 10 11 11 11 10 11 10 10 9 9 9 9 9 9
11 11 11 12 12 13 13 13 12 12 12 11 11 12 12 13 13 13 13 12 12 12 12 11 11 12 10 10 10 11 11 11 9 9 9 8 9 9 9 9 9 9 9
10 10 11 11 11 12 13 12 12 12 11 11 11 11 11 12 12 12 11 12 11 11 11 11 11 11 11 11 11 10 11 11 10 9 9 9 8 8 9 9 9 8 7
8 9 9 10 10 11 12 12 11 10 10 10 10 10 10 10 10 11 10 9 9 9 9 9 10 10 11 10 10 9 9 10 10 9 8 7 7 7 7 7 7 6 6

GFSGL_850_temp_060.txt.gz
Temp
18 18 17 17 17 17 18 17 17 16 16 15 15 14 14 15 15 15 15 15 15 15 15 15 16 16 15 15 15 15 15 14 15 13 13 13 12 13 13 13 13 12 12
18 18 17 17 17 17 17 17 16 16 15 14 14 14 14 15 15 15 14 14 14 15 15 15 15 15 15 15 15 15 14 14 14 14 13 13 12 12 12 12 12 12 12
18 17 17 17 17 17 16 16 16 16 15 15 14 14 14 14 15 15 15 15 15 15 14 15 15 15 15 15 15 15 14 14 14 14 13 13 12 12 12 12 12 11 12
18 17 17 17 17 17 17 16 16 15 15 15 14 14 14 14 15 15 15 16 15 15 14 14 15 15 14 15 15 14 14 14 14 14 13 13 12 12 12 12 12 11 11
18 17 17 17 16 16 16 16 16 15 16 15 15 14 14 14 14 14 15 16 16 15 15 14 15 15 15 15 14 14 14 14 14 14 13 13 12 12 12 11 11 11 11
18 18 17 17 16 16 16 16 16 15 15 15 15 14 14 14 14 14 14 14 14 15 15 15 15 15 15 15 15 14 14 14 14 14 13 12 12 12 12 11 11 11 10
18 18 17 17 17 17 17 16 16 16 15 15 14 14 14 14 14 13 13 13 14 14 14 14 14 15 15 15 15 14 14 13 12 12 12 12 12 12 12 11 11 11 10
18 17 17 17 17 17 17 17 16 15 15 15 14 14 14 14 13 13 13 13 13 13 14 14 14 14 14 14 14 14 14 14 13 12 12 11 11 11 11 11 10 10 10
18 18 17 17 17 17 16 16 16 14 14 14 13 13 13 13 13 13 13 13 13 13 13 13 14 14 13 13 13 14 13 13 12 12 12 11 11 11 11 10 10 10 10
18 17 17 17 17 17 17 17 16 15 13 13 13 13 13 13 13 13 13 13 13 13 13 13 13 13 13 13 13 12 13 13 12 12 11 11 11 11 10 10 10 10 10
17 17 17 17 17 17 17 16 16 16 13 13 12 13 13 13 12 12 13 13 13 13 13 13 13 13 12 12 12 12 12 12 12 11 11 11 11 10 10 10 10 10 9
17 18 17 17 17 17 16 16 15 15 16 13 13 12 13 13 13 13 12 12 12 12 13 13 12 12 12 12 11 11 11 11 11 11 11 10 10 10 10 10 10 10 9
17 17 16 16 17 17 16 15 14 14 14 14 13 13 13 13 14 13 12 12 12 12 12 12 12 12 12 12 11 11 10 11 10 10 10 10 10 10 10 10 9 9 9
15 15 16 16 15 14 14 13 13 13 13 13 13 14 14 14 13 13 13 13 12 12 12 12 11 11 11 11 11 11 11 11 10 10 10 10 10 10 10 10 9 9 9
14 15 16 15 13 13 12 12 13 13 12 12 13 13 13 13 14 13 13 13 13 13 12 11 11 11 11 11 11 11 11 11 11 11 11 10 10 10 10 10 9 9 9
16 16 15 15 14 13 12 12 12 12 12 12 12 12 12 12 13 13 13 13 13 12 12 11 11 11 11 11 11 11 11 11 11 11 11 11 11 10 10 9 9 9 9
15 15 15 14 14 13 13 13 13 12 11 11 11 11 11 12 12 12 12 12 13 12 12 12 11 11 11 11 11 11 11 11 11 10 10 10 10 10 10 9 9 9 9
15 14 14 14 14 13 13 12 12 12 12 11 11 11 11 11 12 11 12 12 12 12 12 12 11 11 12 11 11 11 10 10 10 10 10 10 10 10 9 9 9 9 9
14 14 13 13 13 13 13 13 13 12 12 12 12 12 11 11 12 12 12 12 12 12 12 12 12 11 11 11 9 10 10 10 10 10 10 10 10 10 9 9 9 9 9
14 14 14 13 13 13 13 13 13 12 12 12 12 12 12 12 12 12 12 12 12 11 11 11 11 11 11 10 10 9 9 9 10 10 10 10 10 10 10 9 9 9 9
13 13 13 13 14 13 13 13 13 12 12 12 12 12 12 12 13 13 13 12 12 12 12 11 11 10 10 10 10 9 9 9 9 10 10 10 10 9 10 10 9 9 9
11 12 12 12 13 13 13 13 13 12 12 12 12 12 12 13 13 13 13 13 12 12 12 11 11 11 10 9 9 9 9 9 9 10 10 10 10 10 10 10 9 9 9
12 11 11 11 11 12 12 13 13 12 12 12 12 11 11 12 12 13 13 13 12 12 11 11 11 11 10 10 10 9 9 9 9 9 10 9 10 10 10 10 9 8 8
11 11 11 10 11 11 11 12 12 12 11 11 11 11 11 11 11 12 12 12 12 11 11 11 11 10 11 10 10 10 9 9 8 8 8 9 9 9 9 9 8 8 8
8 9 9 10 10 10 10 11 11 11 11 10 10 10 10 10 10 10 10 10 10 10 10 9 9 10 10 10 10 10 9 9 9 9 8 8 7 8 8 7 7 7 7
7 8 8 9 9 10 10 10 10 9 9 9 9 8 9 8 8 8 7 7 8 8 7 7 8 8 7 7 7 8 9 8 8 8 8 8 7 6 7 7 7 6 6

GFSGL_850_temp_063.txt.gz
Temp
19 18 18 18 17 17 17 17 16 16 16 15 15 15 15 15 15 15 15 15 15 15 15 15 15 15 15 15 15 15 15 14 15 13 13 13 13 13 13 13 13 12 12
18 18 18 17 17 17 17 16 16 16 16 15 15 15 15 15 15 15 14 15 15 16 15 15 15 15 16 15 15 15 15 14 14 14 13 13 12 12 13 13 12 12 12
18 18 18 17 17 17 17 17 16 16 16 16 15 15 15 15 15 15 15 15 15 15 15 15 15 16 16 16 15 15 15 14 14 14 13 13 13 12 12 12 12 12 12
18 18 17 17 17 17 17 17 17 16 16 16 16 16 15 15 15 15 15 15 14 14 14 15 15 15 15 15 15 15 14 14 14 14 13 13 12 12 12 12 11 11 11
19 18 17 17 17 17 17 16 16 16 15 15 15 15 15 15 15 14 15 15 15 14 14 15 15 15 15 15 14 14 14 14 14 14 13 13 12 12 12 12 11 11 11
19 18 17 17 17 17 16 16 16 16 17 16 16 15 15 14 15 14 14 14 14 14 14 15 15 15 15 15 15 15 14 14 14 14 13 13 12 12 12 11 11 11 9
18 18 17 17 17 17 17 17 16 16 16 15 15 15 14 14 14 14 14 14 14 14 14 14 14 14 15 15 15 15 15 14 13 13 13 13 12 12 12 11 11 11 11
18 18 17 17 17 17 17 16 16 16 15 15 14 14 14 14 13 13 13 13 13 13 13 14 14 14 14 15 15 14 14 14 14 12 12 12 12 12 12 11 11 10 10
18 17 17 17 17 17 16 16 16 16 15 14 14 13 13 13 13 13 13 13 13 13 13 13 14 14 14 14 14 14 14 14 13 13 12 12 11 11 11 10 10 10 10
18 17 17 17 17 17 16 17 17 16 15 14 14 13 13 13 13 13 12 12 13 13 13 13 13 13 13 13 13 13 13 13 13 13 12 12 11 11 11 10 10 10 10
18 17 17 17 17 16 17 16 16 16 16 16 14 14 13 13 12 12 12 12 12 12 12 13 13 13 13 13 13 13 13 12 13 12 12 12 11 11 11 10 10 10 11
18 17 17 17 16 16 16 16 16 15 16 16 15 15 13 13 12 12 12 12 13 12 12 12 12 12 13 13 12 12 12 12 12 12 11 11 10 11 11 11 11 10 10
17 17 17 16 15 16 16 15 15 14 14 15 15 15 14 14 14 13 13 12 12 13 12 12 12 12 12 12 12 11 11 11 11 11 10 10 10 10 10 10 10 10 10
15 15 16 15 14 15 14 13 13 13 13 13 13 13 14 14 13 14 14 13 13 12 12 12 12 11 11 11 11 11 11 11 11 10 10 10 9 10 10 10 10 9 8
15 14 14 13 13 13 13 13 13 13 13 12 12 12 12 13 13 13 13 13 13 13 12 12 12 12 11 11 11 11 11 11 10 11 10 10 10 10 9 9 9 9 9
14 13 13 13 12 12 13 13 14 12 12 12 11 11 11 12 12 12 12 13 13 13 12 12 12 12 11 12 11 11 11 11 11 11 11 10 10 10 10 10 10 9 9
15 14 14 14 13 14 14 13 12 12 12 12 11 11 11 11 11 12 12 12 12 12 12 12 12 12 12 12 11 11 11 11 11 11 11 10 10 10 11 10 10 10 8
14 14 14 14 13 13 13 13 13 12 11 11 12 12 12 12 12 12 12 12 12 12 12 12 12 12 11 11 11 11 11 11 10 10 10 10 10 10 10 9 9 9 9
14 14 13 13 13 13 13 13 13 12 12 11 11 11 12 12 12 12 12 12 12 12 12 12 11 12 11 10 11 10 10 9 9 8 8 10 10 10 9 9 9 9 9
13 14 14 14 13 13 12 12 12 12 12 12 12 12 11 12 11 11 13 13 13 12 12 11 11 11 11 11 11 10 9 9 10 9 8 8 9 9 9 9 9 9 9
13 13 13 13 13 13 12 12 12 12 12 12 12 11 12 12 12 11 11 10 12 12 12 11 11 11 11 11 11 10 10 9 10 9 8 9 7 8 9 9 9 9 9
12 12 12 12 11 11 11 12 12 12 12 12 11 11 11 11 12 12 12 12 12 12 11 11 11 11 9 9 9 9 9 9 9 9 9 8 8 8 8 8 9 9 9
10 10 10 10 10 11 11 11 11 11 11 11 10 10 10 10 10 10 10 10 11 11 10 10 10 10 8 8 8 8 8 8 8 8 8 8 8 7 7 8 7 7 7
8 8 8 9 10 10 9 10 11 11 11 11 10 9 10 9 9 9 10 9 9 8 9 8 8 8 8 9 9 9 7 7 7 7 7 7 7 7 7 6 7 7 6
8 8 8 9 9 9 9 10 10 10 9 9 9 9 8 9 9 8 8 7 7 8 7 7 7 7 7 7 7 8 8 7 7 6 7 7 7 7 7 6 7 6 6
7 8 8 8 8 8 8 8 8 8 8 7 7 7 7 7 6 6 6 6 6 6 6 6 6 6 5 6 6 6 6 6 6 6 6 6 6 6 6 6 6 6 6

GFSGL_850_temp_069.txt.gz
Temp
19 19 18 18 17 17 17 16 16 16 16 16 16 16 16 16 16 15 16 16 15 15 16 15 16 16 16 17 17 16 16 16 15 14 14 13 14 14 13 13 13 13 14
19 19 19 18 17 17 17 17 16 16 15 16 16 16 16 16 16 15 15 16 16 15 15 15 15 16 16 16 17 16 16 16 16 16 14 13 14 13 13 12 12 11 13
19 19 19 19 18 18 17 17 16 16 16 16 16 16 16 16 16 15 15 15 15 15 15 15 15 15 15 16 16 16 16 15 15 16 15 14 13 13 12 12 11 11 12
21 20 20 19 18 18 18 17 16 16 16 16 16 16 16 16 15 15 15 15 15 15 14 14 15 14 15 16 16 16 15 15 15 15 14 14 13 13 12 12 12 12 12
21 20 20 19 19 18 17 17 17 16 17 16 16 16 15 15 16 15 15 15 15 15 15 14 15 15 15 15 15 15 15 15 15 14 14 14 13 12 13 12 11 11 11
21 20 20 19 18 18 17 17 17 16 16 16 16 15 15 15 15 15 15 15 15 15 15 15 14 16 16 15 15 14 15 15 14 14 14 14 13 13 12 12 11 11 11
21 21 19 19 18 17 17 17 17 16 17 16 16 15 15 15 15 15 15 15 14 15 14 14 15 15 15 15 15 15 14 14 14 15 15 14 14 13 13 12 12 11 11
20 20 19 18 18 18 17 17 17 16 16 16 15 16 15 15 14 14 14 14 14 14 14 14 14 14 14 13 13 13 13 14 13 13 14 14 13 13 13 13 13 11 11
20 20 19 18 18 17 17 17 16 16 16 16 15 16 15 15 14 13 13 13 13 13 13 13 13 13 14 14 14 14 13 13 13 13 13 13 12 12 12 12 11 11 11
19 19 19 18 18 18 17 17 17 18 18 16 16 15 14 15 15 14 13 13 13 13 13 13 14 14 14 14 14 13 13 13 12 13 13 12 12 12 13 12 12 11 11
20 19 18 18 17 17 17 17 18 16 17 16 15 15 15 14 15 14 13 13 13 13 13 13 14 14 14 14 14 13 13 13 12 12 12 11 12 12 11 12 12 12 12
19 18 18 17 17 16 17 16 15 15 16 16 15 14 14 14 15 15 13 13 13 13 13 13 13 13 13 13 13 13 13 13 13 13 13 13 13 12 12 11 12 12 12
17 17 17 17 16 16 16 15 16 15 16 16 15 15 16 15 14 15 14 14 13 12 13 13 12 12 12 13 13 13 13 13 13 14 14 14 14 13 13 12 11 11 12
17 17 17 16 17 17 15 15 15 16 15 15 15 15 15 14 14 13 14 13 13 13 13 13 12 13 12 13 12 12 13 12 12 13 13 14 13 13 12 11 11 11 12
16 17 16 15 15 16 15 15 15 15 15 15 15 15 15 15 14 13 13 13 12 12 12 12 12 12 11 12 12 12 12 13 13 12 12 13 13 13 12 11 10 10 10
16 15 15 15 15 15 15 14 15 15 16 15 15 14 13 13 13 13 13 13 12 12 12 12 12 12 12 12 12 12 11 11 12 12 11 11 11 11 11 11 11 11 11
15 15 15 15 15 15 16 16 15 15 15 15 14 14 14 13 13 13 12 12 12 12 13 13 13 12 12 12 12 11 11 11 11 11 11 11 10 10 10 10 10 11 11
14 14 14 15 16 16 16 16 17 17 16 15 15 15 14 14 13 13 13 13 12 13 13 13 12 12 12 11 11 11 11 11 11 11 10 10 9 9 10 9 10 10 9
12 13 14 14 14 15 16 16 17 17 17 17 16 15 14 14 14 14 14 14 13 14 14 12 11 12 12 11 11 11 10 10 10 9 9 9 9 9 9 8 9 9 9
10 11 12 13 12 14 15 14 15 16 16 17 16 15 13 14 14 14 14 13 13 14 14 12 11 11 11 12 12 11 11 11 10 9 9 9 9 9 8 8 7 7 8
11 11 11 11 13 13 13 13 15 16 17 16 16 13 13 14 15 14 14 13 13 12 12 11 11 11 11 10 10 9 9 9 11 10 9 9 8 8 8 8 8 8 8
11 12 12 13 14 15 15 16 16 16 16 15 13 13 13 13 13 12 12 11 12 11 11 10 11 11 10 10 9 9 9 9 9 9 9 8 8 8 8 8 7 7 7
11 12 13 13 13 14 14 14 14 14 14 13 12 11 10 11 11 10 10 9 10 9 9 9 9 8 7 8 9 9 8 8 8 8 8 8 8 7 7 7 7 7 7
9 9 10 10 12 12 12 13 12 11 11 11 11 11 10 10 9 9 8 9 8 8 7 7 6 6 6 7 7 7 7 7 7 7 7 6 6 6 6 6 6 6 6
8 8 8 8 9 9 10 10 10 10 9 9 9 8 9 8 8 7 7 7 7 6 6 6 5 5 5 5 6 6 6 6 6 5 4 5 5 4 4 4 4 5 5
8 8 8 8 9 8 8 9 9 8 8 8 8 7 7 8 7 7 7 7 6 6 6 6 6 5 5 4 5 5 5 5 5 5 5 4 4 4 3 4 3 3 3

GFSGL_850_temp_072.txt.gz
Temp
19 20 19 18 18 18 18 18 18 17 17 17 16 17 17 16 16 16 16 17 16 16 16 16 16 16 16 17 17 17 16 15 15 15 14 14 14 13 13 14 14 14 14
20 20 19 18 18 18 18 17 17 17 17 16 16 16 16 16 16 16 16 16 16 16 16 16 16 16 16 16 17 17 16 16 15 15 14 14 14 13 13 13 13 15 13
20 20 19 19 18 18 18 17 17 17 16 16 16 16 16 16 16 16 15 16 16 16 16 15 16 16 16 15 16 16 16 15 15 16 16 15 13 13 13 13 12 12 13
21 21 20 20 19 18 18 18 17 17 17 17 17 16 16 16 16 16 16 15 15 15 15 15 15 15 16 16 16 16 16 15 16 15 15 14 13 13 13 12 12 12 13
22 21 20 20 20 19 18 18 17 17 17 17 17 16 16 16 16 16 15 15 15 15 15 15 15 15 15 15 15 15 15 15 15 15 15 14 13 13 13 13 12 12 12
22 21 20 20 19 19 18 18 17 17 17 17 17 17 16 16 16 15 15 15 15 15 15 15 15 15 16 15 15 14 15 15 15 14 14 14 14 14 14 13 12 11 11
22 21 21 20 19 19 18 17 17 17 17 17 17 16 16 16 16 16 15 15 15 15 15 15 15 15 15 15 15 15 14 14 14 14 14 15 14 14 14 12 12 12 12
22 21 20 20 19 18 18 18 17 17 17 17 17 16 16 15 15 15 14 14 15 14 14 14 14 14 14 14 14 14 14 14 13 13 13 14 15 15 13 13 13 12 11
22 21 20 20 19 18 18 18 17 17 17 16 16 15 15 15 15 16 14 14 14 14 14 13 14 14 14 14 14 14 14 13 14 14 13 13 13 13 13 12 12 12 11
21 21 20 20 19 18 18 18 17 17 16 16 16 15 15 15 16 16 15 13 13 13 14 13 14 14 14 14 14 13 13 14 13 13 14 13 12 12 12 13 12 12 12
21 20 19 18 19 18 18 18 17 17 17 16 16 15 15 15 16 15 15 14 14 14 14 13 13 13 13 14 14 13 13 13 13 13 13 13 13 12 12 12 12 12 12
20 20 19 18 18 18 17 17 17 17 16 16 16 15 15 15 16 16 16 14 14 14 14 13 13 13 13 13 14 14 13 13 13 13 13 13 13 13 13 13 13 12 12
18 16 16 17 17 17 17 17 17 16 16 16 16 16 16 15 15 15 15 14 14 13 13 13 13 13 13 13 14 14 14 14 14 13 13 13 14 14 13 13 12 12 12
17 14 15 16 18 17 17 17 16 16 16 16 16 16 16 15 15 14 15 14 13 13 13 12 13 13 13 13 13 13 13 13 13 13 13 14 14 14 14 13 12 12 12
16 15 15 17 17 16 17 15 15 16 16 16 15 16 16 15 15 14 13 13 13 14 13 13 12 12 12 12 12 13 13 13 13 13 13 13 13 13 13 13 13 12 12
16 16 15 16 16 16 15 15 16 16 16 17 15 16 15 15 15 14 14 13 13 13 13 12 12 12 12 12 12 12 11 11 12 12 12 11 12 12 12 11 11 11 11
15 15 15 15 15 15 15 15 16 16 16 16 16 16 16 15 14 14 14 13 13 13 13 13 12 12 11 12 12 11 12 12 11 11 11 10 11 11 10 10 10 10 10
14 14 14 14 14 14 15 16 16 17 17 16 16 15 15 15 14 14 14 14 13 14 13 12 12 11 11 11 11 11 12 12 12 11 11 10 10 10 10 10 9 9 9
12 11 11 11 13 14 15 16 16 15 15 15 15 15 15 15 15 14 14 14 13 13 13 13 12 11 11 11 11 11 11 11 11 10 10 10 9 9 9 9 9 9 9
11 12 12 12 11 12 13 14 14 15 15 14 14 15 14 14 14 14 13 12 13 13 13 13 12 11 11 11 11 11 10 10 10 10 10 10 10 9 9 9 9 8 8
12 12 12 12 12 12 12 12 12 13 14 13 13 12 14 12 13 13 13 12 12 12 13 11 11 11 10 10 9 9 9 9 9 9 9 9 9 9 9 9 8 8 8
11 11 11 12 12 12 12 13 13 12 13 13 13 13 13 12 12 12 12 11 11 10 11 10 9 8 8 9 9 9 9 9 8 8 8 8 7 8 8 8 7 7 7
11 11 12 13 13 13 13 14 14 13 12 12 12 12 12 12 11 10 10 10 10 10 10 9 8 8 7 7 8 8 8 8 8 7 7 7 6 6 6 6 6 6 6
10 10 10 11 12 12 12 12 12 12 11 10 10 11 10 10 9 9 9 8 8 8 8 7 7 6 6 5 6 7 7 7 7 6 6 5 5 4 5 4 4 4 4
8 8 9 10 10 11 10 11 10 10 10 9 9 9 9 8 8 8 8 7 7 7 6 6 6 6 5 6 6 6 6 6 6 6 6 5 4 4 4 4 4 3 3
9 8 9 9 9 10 9 9 9 9 9 9 8 8 8 8 7 7 8 8 7 7 7 6 6 5 6 5 5 5 5 5 4 4 4 4 4 3 4 3 3 3 3

GFSGL_850_temp_075.txt.gz
Temp
20 19 19 19 19 18 18 18 18 17 18 18 17 17 17 16 16 16 16 16 16 16 16 16 16 16 16 16 16 16 16 15 15 15 14 13 13 13 13 13 13 13 14
20 19 19 19 19 18 18 17 18 17 18 18 17 16 16 16 16 16 16 16 16 16 16 16 16 16 16 16 16 16 16 16 15 15 15 13 13 13 13 13 13 14 14
20 19 20 19 19 19 18 18 17 17 17 17 16 16 16 16 16 16 16 16 16 15 16 16 15 15 15 16 16 16 16 16 16 17 15 14 13 13 13 12 12 13 13
20 19 20 20 19 19 18 18 17 17 17 16 16 16 16 16 16 16 16 16 16 16 16 15 15 15 15 16 16 16 16 16 15 15 15 14 13 13 13 13 12 13 12
21 20 20 20 20 19 19 18 17 17 17 17 17 17 16 16 16 16 16 15 15 15 16 15 15 15 15 16 15 15 15 15 15 15 15 15 13 13 13 12 12 13 12
22 21 21 20 19 19 19 18 18 17 17 16 17 17 17 16 16 16 15 15 15 15 15 15 15 15 15 16 15 14 14 14 15 15 15 14 14 14 13 13 13 12 12
22 22 21 21 20 19 19 18 18 17 17 17 17 17 16 16 16 15 15 15 15 15 15 15 15 15 15 15 15 14 14 14 14 14 14 14 14 14 13 13 12 12 13
23 22 21 20 20 19 19 18 18 17 17 17 17 16 16 16 16 15 15 15 15 15 15 14 14 14 14 14 14 14 14 13 13 13 13 14 15 15 14 13 13 12 12
22 22 21 21 21 20 19 18 18 17 17 17 16 16 16 16 16 15 14 14 14 14 15 15 14 14 14 13 14 13 13 14 14 14 13 13 14 14 14 13 13 12 12
23 23 22 20 21 21 20 18 18 17 17 17 17 16 16 16 16 15 15 14 14 14 14 14 14 14 14 14 14 15 14 14 14 14 14 14 13 13 13 13 12 12 12
21 21 19 16 16 14 18 18 18 17 17 17 16 15 15 15 15 15 15 14 13 14 14 14 14 14 14 14 14 14 14 14 14 13 13 13 13 12 12 13 13 12 12
20 21 18 16 16 17 13 15 16 17 17 16 15 15 15 15 15 16 15 15 13 14 14 15 14 14 14 14 14 14 13 13 13 12 12 13 13 13 14 13 13 13 13
19 19 18 20 18 16 15 15 15 17 17 17 16 16 15 15 14 15 15 14 13 13 14 14 14 14 13 13 13 13 13 13 13 13 13 12 12 13 13 13 13 13 12
17 17 19 21 20 18 15 13 15 17 17 16 16 16 16 15 14 14 14 14 14 13 13 13 13 13 13 13 13 13 13 13 13 13 13 13 13 13 13 13 13 13 13
16 16 17 18 18 18 15 16 16 17 16 17 17 16 16 15 15 14 13 13 13 13 13 13 13 13 12 13 13 12 12 12 12 12 12 12 13 13 12 13 12 12 12
15 15 15 15 16 15 15 16 17 17 17 16 16 17 16 15 14 14 14 13 13 12 12 12 12 12 12 12 12 11 12 12 12 12 12 12 12 12 12 11 12 11 11
14 14 14 13 14 14 15 16 17 16 15 16 15 15 15 15 15 14 14 13 13 13 13 12 12 12 12 12 11 11 11 11 11 11 11 11 11 11 11 11 11 11 10
12 13 13 13 13 14 13 14 15 15 15 16 16 15 15 14 14 14 14 13 13 13 13 12 12 11 11 10 11 11 11 11 11 10 10 10 10 10 10 10 9 9 9
11 11 10 12 12 11 13 11 13 13 14 15 14 14 14 14 14 13 13 13 13 13 12 12 11 11 11 11 11 11 11 11 11 11 11 10 10 10 10 9 9 9 9
11 11 11 11 11 11 14 12 11 12 12 12 12 12 12 13 13 13 13 12 12 12 11 11 11 12 11 10 10 9 9 9 9 9 9 9 9 8 8 8 8 8 7
11 10 11 12 12 12 12 12 12 12 12 11 12 11 11 12 12 12 11 12 12 11 11 10 10 11 10 10 9 10 9 9 9 8 8 8 8 8 8 8 7 7 7
12 12 12 12 12 12 12 13 13 12 12 12 11 11 11 11 11 11 11 11 11 10 10 10 10 10 9 9 8 8 9 8 8 8 7 7 6 6 6 6 6 6 6
11 11 11 12 12 13 13 13 13 13 11 11 11 10 10 11 11 11 10 10 10 10 9 9 8 8 8 8 8 8 8 7 7 7 6 6 5 4 4 4 4 4 4
10 11 11 11 12 12 12 12 11 11 11 11 11 10 10 10 9 9 8 8 8 8 8 8 7 6 6 6 6 7 6 6 6 6 6 5 5 4 4 4 4 3 3
9 9 10 10 11 11 11 11 11 10 10 10 10 10 10 9 8 8 8 7 7 7 7 7 6 6 6 6 6 6 6 6 6 6 6 5 5 4 3 4 4 4 3
10 9 10 10 10 10 10 10 9 9 9 9 9 9 8 8 8 7 8 7 7 6 7 6 6 6 6 6 6 5 5 5 5 5 5 4 4 3 3 3 3 3 3

GFSGL_850_temp_078.txt.gz
Temp
21 20 19 19 18 18 18 18 17 17 17 17 17 17 17 16 16 16 16 16 16 16 16 16 16 16 16 16 17 17 16 16 15 15 14 14 14 14 14 13 13 13 13
21 20 19 19 18 18 18 18 18 17 17 17 16 16 17 16 16 16 16 16 16 16 16 16 16 15 15 16 16 16 16 15 15 15 14 14 13 13 13 13 13 14 13
21 20 19 19 18 18 18 18 18 17 17 17 16 16 16 16 16 16 16 16 16 15 15 16 15 15 15 15 15 16 16 15 15 16 15 14 13 13 13 13 13 13 13
21 20 20 19 19 19 18 18 17 17 17 17 17 16 16 16 16 16 16 16 16 15 15 15 15 15 15 15 15 16 16 16 15 15 14 14 13 13 13 13 12 12 13
21 21 21 19 19 19 19 18 18 17 17 17 17 16 16 16 16 16 16 15 15 15 15 15 15 15 15 15 16 16 15 15 14 14 14 14 13 13 13 13 12 13 12
22 22 22 21 20 19 19 18 18 17 17 17 17 17 16 16 16 16 15 15 15 15 15 15 15 15 15 16 15 15 14 15 15 15 14 14 13 13 13 12 12 12 12
22 22 22 21 21 20 19 19 18 18 17 17 16 16 16 16 16 16 15 15 15 15 15 15 15 15 15 15 15 14 14 14 14 14 15 15 14 14 13 13 13 13 13
23 22 22 21 20 19 19 16 17 18 17 17 17 16 17 17 16 16 15 14 14 14 15 15 15 15 14 15 15 15 14 13 13 13 14 14 14 13 13 13 13 13 12
22 22 22 20 20 17 14 15 15 14 17 17 17 16 16 17 16 16 15 15 14 14 14 14 14 14 14 14 14 15 15 14 13 13 12 13 14 14 14 14 13 12 12
21 21 21 20 19 20 16 16 16 13 13 16 17 16 16 16 16 16 16 15 14 13 14 14 14 14 14 14 14 14 14 14 14 14 14 13 13 13 13 13 13 12 12
20 20 20 20 19 20 19 18 16 16 16 14 17 17 16 16 16 16 16 15 14 13 13 14 14 14 13 13 14 14 14 13 14 13 13 13 13 13 13 12 12 12 12
19 19 19 19 19 20 20 18 17 19 18 17 16 17 16 16 16 16 16 15 14 14 14 14 14 13 13 13 14 13 13 13 13 13 13 13 13 13 13 13 13 13 12
16 17 17 17 18 19 18 18 16 15 13 16 16 16 17 16 15 15 15 15 15 14 13 13 13 13 13 13 13 13 13 13 12 12 13 13 13 12 12 12 12 13 13
16 16 16 17 17 17 16 14 13 12 13 14 15 16 16 16 15 15 15 15 14 14 13 13 13 12 13 12 12 12 12 12 12 12 12 12 12 12 12 13 13 12 12
16 15 15 15 16 15 15 14 15 15 14 15 16 16 16 16 16 16 15 15 14 13 12 12 12 12 12 12 12 12 12 12 12 12 12 12 12 12 12 12 13 13 12
14 14 14 15 15 15 14 15 15 15 15 15 16 15 16 16 16 15 14 14 13 12 12 12 12 12 12 12 11 11 11 11 11 11 12 12 12 12 11 11 11 11 11
12 13 14 13 14 14 14 14 14 15 15 15 15 14 15 15 15 14 14 13 12 12 12 12 11 12 12 11 11 11 11 11 11 11 11 11 11 11 10 10 10 10 10
10 11 12 13 13 14 14 14 13 13 13 14 14 14 14 14 14 14 13 13 13 12 13 13 12 11 10 10 10 10 10 10 10 10 10 10 10 10 10 10 9 9 9
10 10 10 11 11 12 13 13 13 11 11 12 13 12 13 12 13 13 12 13 13 13 12 12 12 11 10 11 11 11 10 10 10 10 10 10 10 10 9 9 8 8 8
11 11 10 10 10 12 13 12 11 11 10 11 10 11 12 12 12 12 12 13 13 13 12 11 11 11 10 11 10 10 10 9 9 8 8 8 8 7 7 8 8 8 7
11 12 11 11 11 11 11 12 12 12 12 11 11 11 11 12 12 12 12 12 12 13 12 11 10 10 10 9 9 9 9 10 9 8 8 7 7 7 7 6 6 6 6
11 11 11 12 13 12 11 11 11 11 11 11 11 10 11 11 11 11 11 11 11 11 10 10 10 9 9 8 8 8 8 8 8 7 7 7 6 6 6 5 5 4 4
10 11 11 12 13 13 13 13 12 12 11 11 11 11 11 10 10 10 10 10 9 9 9 9 9 8 7 7 7 7 7 7 7 7 6 5 5 4 4 4 3 3 3
10 10 11 12 12 13 13 13 12 12 12 11 10 10 9 10 9 9 9 9 8 8 8 7 7 7 6 7 7 7 7 6 6 6 6 5 5 4 4 4 4 4 4
9 10 11 11 11 11 11 11 11 10 10 10 9 9 9 9 9 8 8 8 7 7 6 6 6 6 6 6 6 6 6 6 6 6 6 5 5 4 4 4 3 3 3
9 10 10 10 10 10 10 10 10 10 10 9 9 9 9 8 8 7 7 7 7 6 6 6 6 6 6 6 6 6 6 6 6 6 6 6 5 5 4 4 3 3 3

GFSGL_850_temp_084.txt.gz
Temp
21 20 19 19 19 18 17 17 17 17 17 17 17 17 17 17 16 16 17 17 17 16 16 16 16 16 15 15 15 15 14 14 14 14 14 14 14 14 14 14 13 13 13
21 20 19 19 19 18 18 17 17 17 17 17 17 17 16 16 16 16 16 16 16 16 16 16 16 16 16 15 15 15 15 14 14 14 14 14 14 14 14 13 13 13 13
21 20 19 18 19 18 18 17 17 17 17 18 17 17 16 16 16 16 16 16 16 16 16 16 16 16 15 15 15 15 15 15 15 14 15 14 14 14 13 13 13 13 13
20 20 20 19 20 18 18 17 17 17 18 18 17 17 16 16 16 16 16 16 15 16 15 15 15 15 16 15 15 15 15 15 15 15 14 14 14 14 14 13 13 13 13
19 19 21 21 20 18 18 17 17 18 18 18 18 17 18 17 16 16 16 15 15 15 15 15 15 15 15 15 15 15 15 16 14 14 13 13 14 14 13 13 13 13 13
19 20 18 17 18 18 18 18 18 19 23 21 20 19 19 17 17 16 16 16 16 15 15 15 15 15 15 15 15 16 15 14 14 14 14 13 14 14 13 13 13 13 12
22 21 21 18 15 19 19 19 19 19 22 23 23 19 17 18 16 16 16 15 15 15 15 15 15 15 15 15 15 15 14 14 14 14 14 14 14 14 13 13 13 13 12
23 22 22 17 15 20 20 19 19 20 20 22 22 22 19 17 16 16 16 16 15 15 15 15 15 15 15 14 15 15 14 13 14 13 13 14 14 13 13 13 13 13 12
20 20 20 19 19 21 20 20 20 19 20 21 21 20 20 17 17 17 16 15 15 15 15 14 14 15 15 14 14 15 14 14 13 12 12 13 13 13 13 13 13 12 12
15 15 17 18 21 21 19 18 18 17 18 19 19 19 19 17 16 17 17 16 15 15 15 14 14 14 14 14 14 14 14 14 14 13 12 12 13 13 13 12 12 12 12
15 16 17 18 18 17 17 16 16 16 17 17 16 16 16 16 17 16 17 17 15 15 14 14 14 14 14 14 13 14 14 13 14 13 13 13 13 13 13 13 13 12 12
14 14 14 15 15 16 15 15 15 16 16 17 16 15 15 16 15 16 16 16 15 15 15 14 13 13 13 13 13 14 14 13 13 13 13 13 13 13 12 12 12 12 12
13 13 14 14 14 15 15 15 15 15 16 16 15 15 15 15 16 15 16 17 16 15 14 13 13 13 13 13 13 13 13 13 13 13 13 13 12 12 12 12 12 12 12
14 14 14 15 15 14 15 15 16 16 16 15 14 14 14 14 15 16 16 16 16 14 13 12 12 12 12 13 13 13 13 13 13 13 13 12 12 12 12 12 12 12 12
14 14 14 14 15 15 14 15 15 15 15 14 13 12 12 13 15 16 15 14 15 14 13 12 12 12 13 12 12 12 12 12 12 13 12 12 12 12 12 12 12 12 12
12 12 12 12 13 13 13 13 14 14 14 14 13 13 12 12 13 13 13 13 13 14 12 12 12 12 12 12 12 12 12 12 12 12 12 11 11 11 11 11 11 11 11
12 11 10 10 11 12 12 13 13 13 13 14 14 14 14 13 13 13 14 13 12 12 12 12 12 12 12 12 12 11 11 11 11 11 11 11 11 11 10 10 10 10 10
12 11 11 10 10 11 12 12 13 13 13 14 14 15 14 14 13 13 13 12 12 12 12 12 12 12 11 11 11 11 10 11 11 10 10 10 10 10 10 10 10 9 9
11 11 11 11 10 11 11 11 11 12 12 12 13 13 14 13 13 12 13 12 12 12 11 11 11 11 10 10 10 10 10 10 10 9 9 9 9 9 9 9 9 8 8
11 11 11 11 11 11 10 10 11 11 10 10 10 10 11 11 10 11 11 11 12 11 11 11 11 10 10 10 10 10 10 9 9 9 8 9 8 8 8 7 7 7 7
11 11 11 11 11 11 11 10 10 10 10 10 11 10 10 10 10 10 10 10 11 11 11 11 10 10 9 9 8 9 9 9 8 8 8 8 7 7 7 7 6 5 5
10 11 11 11 12 11 11 11 10 10 9 10 9 9 9 9 9 10 10 10 11 10 10 10 10 9 9 9 9 8 8 8 8 8 7 7 7 7 6 6 5 5 5
9 10 11 11 11 12 12 10 10 10 9 9 9 10 10 10 10 10 10 10 10 10 9 9 9 9 8 7 7 7 7 7 7 7 6 6 6 6 5 5 5 4 4
9 10 11 11 11 12 12 12 11 10 10 9 9 10 10 10 10 10 10 9 9 9 9 9 8 8 8 7 7 7 7 7 7 7 7 6 6 5 5 4 4 4 4
10 10 10 11 11 11 11 12 11 11 10 10 10 9 9 9 9 9 9 9 8 8 8 7 7 7 7 7 7 7 7 7 7 6 6 6 5 5 5 4 4 4 4
9 10 10 10 10 10 10 10 10 10 10 9 9 9 9 9 8 8 8 7 7 7 7 6 6 6 7 7 7 7 7 6 6 6 6 6 6 5 5 5 5 4 4

GFSGL_850_temp_087.txt.gz
Temp
21 21 20 19 19 18 18 17 18 18 18 18 18 18 18 18 17 17 16 16 16 15 16 16 16 16 16 16 16 15 15 14 15 15 15 15 15 14 14 14 14 14 14
21 21 20 19 19 19 18 18 18 18 18 18 18 18 18 17 17 17 17 16 16 16 16 15 16 15 15 16 15 16 16 15 15 15 15 14 14 14 14 14 14 13 13
21 20 20 19 19 19 18 18 17 18 18 18 19 18 18 18 17 18 17 16 16 16 16 16 16 15 15 15 15 15 15 15 15 15 15 15 14 14 13 14 13 13 13
22 20 19 19 19 19 18 18 18 18 18 18 19 19 19 19 18 18 17 17 16 16 16 16 16 16 16 15 15 15 15 15 15 15 15 15 14 14 14 14 13 13 13
23 20 20 20 18 18 18 18 17 17 17 17 18 18 18 18 18 18 17 17 16 16 16 16 15 15 15 15 15 15 15 15 15 15 14 14 14 14 14 14 13 13 13
21 21 19 21 20 18 17 17 17 18 18 18 18 17 17 18 18 17 16 16 16 16 16 16 15 15 15 15 15 15 15 15 15 14 14 14 14 13 14 13 13 13 12
17 17 19 20 21 20 21 21 19 17 18 19 18 18 17 18 18 17 16 16 16 16 16 16 15 15 15 15 15 15 15 15 14 14 14 14 14 14 14 13 13 13 13
18 18 20 20 21 21 22 21 18 18 18 19 19 17 17 17 18 17 16 16 16 16 16 16 15 15 15 15 14 15 14 14 14 14 14 14 14 14 14 13 13 13 13
17 17 18 18 20 18 20 20 19 19 18 19 19 18 19 18 18 17 16 16 16 16 16 15 15 15 15 15 14 14 14 14 14 13 13 13 14 14 14 14 13 13 12
17 17 17 17 19 19 19 19 18 17 16 17 17 17 18 18 17 17 16 16 15 16 15 15 15 15 15 15 14 14 14 14 13 13 12 12 13 13 14 13 13 13 13
16 16 17 17 18 18 17 16 16 16 16 16 16 17 16 17 17 17 16 16 16 15 15 15 15 15 15 14 14 14 14 14 14 13 13 12 12 13 13 14 13 12 12
15 15 16 16 16 16 17 15 16 15 15 16 16 16 16 17 17 16 16 15 16 16 16 16 15 14 14 14 14 14 14 13 13 12 12 12 12 13 11 12 12 13 12
14 14 14 14 14 15 15 15 15 15 15 15 15 15 16 16 16 16 16 15 14 15 16 16 15 14 14 13 13 13 13 12 12 13 12 12 12 12 12 12 12 12 12
13 13 13 13 14 13 13 14 14 14 15 15 15 15 14 13 13 13 15 14 13 12 14 15 14 13 13 13 13 13 13 12 12 12 12 12 12 12 12 12 12 12 12
13 13 12 12 12 12 12 13 13 13 13 13 14 13 12 12 13 14 14 14 13 13 14 14 13 12 12 12 12 12 12 12 12 12 12 12 12 11 11 12 12 12 12
13 13 12 12 12 12 12 12 13 12 13 13 13 13 13 13 13 13 14 13 13 13 13 13 12 12 12 11 12 12 12 12 12 12 12 12 12 12 12 12 11 10 10
12 12 11 11 11 11 11 12 12 12 13 13 12 13 14 14 13 13 13 13 12 13 13 13 12 12 12 12 12 12 12 12 11 11 11 11 11 11 11 11 11 10 10
11 11 11 11 11 11 11 11 11 11 12 13 13 14 14 14 13 13 12 12 12 12 13 13 12 12 12 12 11 11 11 11 11 11 11 10 10 10 10 10 9 9 9
10 10 11 11 11 11 10 10 10 11 11 11 12 13 13 13 13 12 12 12 12 12 12 11 12 12 11 11 11 11 11 10 10 10 9 9 9 9 9 8 8 8 8
10 10 10 11 12 11 11 10 10 10 10 10 10 10 12 12 12 12 12 11 11 12 11 11 11 11 11 11 10 10 10 10 9 8 8 8 8 7 7 7 7 7 7
8 9 10 10 10 11 11 11 10 10 10 10 10 10 10 11 10 10 10 11 11 11 11 11 10 10 10 10 10 10 10 9 8 7 7 7 7 7 6 6 6 6 6
8 9 10 10 11 10 10 11 11 10 9 10 9 10 9 9 10 10 10 9 10 10 10 10 10 9 9 9 9 9 9 8 8 8 8 6 6 7 6 6 6 6 6
8 9 9 10 10 12 10 10 10 10 9 9 10 9 9 9 9 10 10 9 9 9 10 10 9 9 9 9 9 8 8 8 8 7 7 7 7 6 5 5 5 5 5
9 9 10 10 11 10 12 11 10 10 9 10 9 9 9 9 10 10 10 10 9 9 9 9 9 9 8 8 8 8 8 8 8 8 7 6 6 6 5 4 4 5 4
9 10 10 9 10 9 9 10 11 9 9 9 9 9 9 9 9 9 9 9 9 9 8 8 8 8 8 8 8 8 8 8 8 7 7 7 6 6 5 4 4 4 4
10 10 10 10 10 10 9 9 9 9 9 9 9 9 9 9 9 8 8 8 8 8 8 7 7 7 7 7 7 7 8 7 7 7 7 7 7 6 6 5 5 4 5

GFSGL_850_temp_093.txt.gz
Temp
20 20 19 19 18 20 19 18 18 19 19 18 18 18 18 17 17 16 16 17 16 16 16 16 16 16 16 16 16 16 16 16 16 16 15 16 16 16 15 15 15 15 15
20 20 20 19 18 19 21 18 18 18 18 18 18 18 18 18 17 16 17 17 16 16 16 16 16 16 16 16 16 16 16 16 15 16 16 15 15 15 15 15 15 14 14
18 19 18 17 18 18 20 18 18 18 18 18 18 18 18 18 18 18 16 17 17 16 16 17 16 16 16 16 16 16 16 16 16 16 16 15 15 15 15 14 15 14 14
19 18 17 16 17 17 18 18 18 18 18 18 18 18 18 18 18 18 18 17 17 17 17 17 17 17 17 16 16 16 16 16 15 16 16 15 15 14 15 14 14 14 14
20 20 20 17 18 17 18 18 18 18 18 19 18 18 18 18 19 18 18 18 18 17 17 17 17 17 16 16 16 16 16 15 16 16 15 15 15 14 15 15 15 13 14
20 19 19 19 18 19 17 19 19 18 18 18 18 18 18 19 20 19 18 18 18 18 17 18 17 17 17 16 16 16 16 16 16 16 16 18 16 15 15 14 14 13 13
17 18 18 19 18 19 17 18 18 19 18 18 18 18 18 19 19 18 18 17 17 18 17 17 17 18 18 17 16 16 16 16 16 16 15 16 16 15 15 15 15 14 14
16 18 18 17 16 16 17 18 18 18 18 17 18 18 18 18 18 19 19 18 17 17 17 17 17 17 17 17 16 16 16 15 16 16 15 14 15 15 15 16 15 14 13
18 16 16 17 17 17 17 16 17 16 16 19 18 17 17 17 19 19 19 18 17 17 17 17 17 16 16 16 16 16 16 15 15 15 15 15 14 15 14 15 14 13 13
14 15 15 15 17 17 17 17 17 16 17 17 18 17 17 17 18 19 19 18 17 17 17 17 16 16 16 16 16 16 15 15 15 15 15 15 15 14 14 14 15 13 13
14 14 15 14 16 17 17 17 17 16 16 16 16 17 17 16 17 19 19 18 16 17 17 17 17 16 16 16 16 16 15 15 15 14 14 13 13 13 14 13 13 13 13
15 15 14 15 16 16 17 16 16 15 14 15 16 16 15 16 19 17 17 17 16 16 17 18 17 16 16 16 16 16 15 15 15 14 14 14 14 13 13 13 13 13 13
12 12 13 14 15 15 15 14 14 16 16 16 15 15 16 16 17 17 17 16 16 15 15 16 17 16 16 16 16 15 15 14 15 15 15 14 14 14 14 14 13 14 13
12 13 13 14 14 14 13 13 14 14 14 15 14 14 15 16 16 16 17 17 16 15 15 14 15 15 15 15 15 15 14 14 15 15 16 14 14 14 14 14 13 13 13
12 13 14 15 14 13 13 13 13 13 13 14 13 13 13 14 15 15 15 15 14 14 13 13 13 14 14 14 14 14 13 14 15 15 15 14 14 14 14 14 13 13 13
12 14 14 14 15 15 13 13 13 13 13 13 12 13 13 13 13 14 14 14 14 14 13 13 13 13 13 14 13 14 14 14 14 15 15 14 14 14 14 14 13 13 13
12 12 13 14 15 16 15 14 13 13 13 12 12 13 13 14 13 13 14 13 14 13 13 13 13 12 12 13 14 14 14 14 14 14 14 14 13 13 13 13 12 12 12
11 12 13 14 15 15 16 15 13 14 13 12 11 12 13 13 14 14 14 14 14 14 13 13 13 12 12 13 13 13 12 13 13 13 13 13 13 13 13 12 12 11 11
12 13 13 13 14 14 14 14 13 13 12 12 12 11 12 12 13 14 14 14 14 14 13 12 12 12 12 12 12 12 12 12 12 12 12 12 12 11 11 11 11 11 11
13 14 13 13 14 14 16 14 14 12 12 12 11 11 11 12 11 12 12 13 13 13 12 12 12 12 12 12 12 12 11 11 11 11 11 11 11 11 11 10 10 10 10
13 14 14 14 16 16 16 15 14 12 12 11 11 10 9 10 10 10 11 11 11 11 11 11 12 12 12 12 11 10 11 10 10 10 10 10 10 10 9 9 9 9 9
13 14 14 15 16 16 15 15 13 12 12 11 11 10 10 10 10 10 10 10 10 10 11 11 11 11 11 10 10 10 10 10 10 10 10 10 10 9 9 9 9 9 9
12 12 12 12 13 13 13 13 11 11 11 10 10 10 9 9 9 9 10 10 9 10 9 10 10 10 10 9 9 9 9 9 9 9 9 9 9 9 9 9 9 10 10
12 11 12 12 12 12 11 10 11 10 11 10 10 10 9 10 9 9 9 9 9 9 9 9 9 9 9 8 8 9 9 9 8 8 8 8 8 8 9 9 10 10 10
13 13 13 13 12 12 10 10 10 10 10 9 10 10 10 10 10 9 9 9 9 8 8 8 9 8 8 8 8 8 9 9 8 8 8 8 8 8 8 9 9 9 9
13 13 13 12 12 12 11 10 10 10 9 10 9 10 10 9 10 9 9 8 8 8 8 8 8 8 8 9 9 8 8 8 8 7 7 7 7 8 8 9 8 9 8

GFSGL_850_temp_096.txt.gz
Temp
22 23 21 20 20 19 19 20 20 20 20 19 18 19 18 18 18 18 17 17 17 17 16 16 16 16 17 17 16 16 16 16 16 17 17 16 17 16 16 16 15 15 15
23 22 20 18 19 19 19 19 20 19 20 19 19 19 18 18 18 18 18 17 17 17 17 16 16 17 17 17 17 17 17 17 16 17 17 16 16 16 15 15 15 14 15
19 18 18 17 16 16 17 18 19 19 19 18 19 18 18 18 18 18 18 17 17 17 17 17 17 17 17 17 17 16 16 16 17 17 17 16 16 16 16 15 14 14 14
18 18 18 17 17 17 17 17 18 18 18 18 18 18 18 18 18 19 18 18 18 17 17 17 17 17 17 16 16 16 16 16 16 16 16 16 16 15 16 15 15 14 14
18 18 19 20 22 21 22 20 20 19 18 18 18 18 18 18 18 18 18 19 18 18 18 18 18 17 17 17 17 17 16 16 16 16 16 16 16 15 16 16 15 14 14
17 17 18 17 16 16 17 19 19 19 20 18 18 18 18 18 19 19 19 19 19 18 18 18 18 18 17 17 17 17 17 17 16 16 16 16 16 16 16 15 15 14 13
16 16 17 17 16 16 16 18 18 18 18 18 18 18 18 18 19 19 19 19 19 18 18 18 18 17 18 18 17 17 17 17 17 16 16 16 15 15 15 15 15 15 15
16 16 16 16 16 17 17 19 18 18 18 18 18 18 18 19 18 19 19 19 19 19 19 18 19 18 17 17 17 17 17 17 17 17 16 16 16 16 16 16 15 14 13
15 16 16 17 17 17 18 18 17 18 18 18 18 18 18 18 18 19 19 19 19 19 20 19 19 18 17 17 17 16 16 17 16 16 16 16 15 15 15 15 15 14 13
14 15 15 15 15 16 16 16 16 17 17 17 18 18 18 18 18 18 18 19 19 19 19 19 19 18 17 17 17 17 16 16 16 15 15 15 15 14 14 15 15 15 13
14 14 14 15 15 15 15 16 16 18 18 19 17 18 18 18 18 18 19 18 18 17 17 17 18 18 17 17 17 16 16 16 16 15 15 15 15 14 14 13 14 14 13
13 15 15 15 16 15 15 16 17 17 17 17 17 17 17 17 17 17 16 17 16 17 16 17 17 18 18 18 17 16 16 16 15 15 15 14 15 14 14 14 14 13 15
13 14 15 15 16 16 15 15 15 15 15 15 15 15 16 16 16 16 16 16 16 16 16 16 17 16 17 16 16 16 16 16 15 15 15 15 15 14 14 14 14 13 13
12 13 14 14 15 15 15 15 14 14 15 15 15 15 15 15 16 16 16 15 15 15 15 15 15 16 16 15 16 16 16 16 15 15 15 15 15 14 14 14 14 14 13
12 14 14 15 15 15 15 15 15 14 14 13 13 13 13 13 13 14 15 15 14 14 14 14 14 13 14 15 15 15 16 16 15 15 15 15 14 15 14 14 14 14 14
12 13 13 14 14 15 16 15 15 14 14 13 13 12 12 12 12 13 13 14 14 13 14 14 14 13 14 14 14 14 15 15 16 15 15 14 15 14 15 14 14 14 14
12 12 13 13 14 15 16 16 15 14 14 13 13 12 12 13 13 14 14 14 14 14 14 14 14 14 14 14 13 13 14 14 16 15 14 14 14 14 14 14 14 14 13
12 13 14 14 14 14 15 15 15 14 14 13 13 12 12 12 13 14 14 14 15 15 15 14 14 14 13 13 13 13 13 13 14 13 13 13 13 14 13 13 13 13 13
12 13 14 14 14 14 14 15 15 15 14 13 13 12 11 12 12 12 12 12 13 13 14 14 14 13 13 13 12 12 12 13 13 12 12 12 12 13 13 12 12 12 12
13 14 15 15 15 15 15 16 15 14 13 13 12 11 11 11 11 10 10 11 11 12 12 13 12 12 12 12 12 12 12 12 12 12 12 12 12 12 12 11 12 11 11
13 14 14 14 15 15 15 15 15 13 13 12 12 12 11 11 10 10 10 10 10 10 11 11 12 12 12 13 12 12 12 12 12 12 11 11 10 11 10 10 11 10 10
12 13 13 14 13 14 13 13 13 13 12 12 11 11 11 11 10 10 10 10 10 10 10 11 11 11 12 12 12 12 11 11 11 10 10 10 10 10 10 10 10 9 9
13 13 13 13 12 13 13 12 12 11 11 11 11 11 11 10 10 10 10 9 9 10 10 9 10 10 10 10 10 10 10 9 9 9 9 10 9 9 9 10 9 9 9
13 13 14 13 13 13 12 12 10 10 10 10 10 10 10 10 10 9 9 9 9 9 9 9 8 9 9 9 9 9 8 8 8 8 9 9 9 8 8 8 9 9 9
13 14 14 14 13 13 13 12 11 11 10 10 9 10 10 10 10 9 9 9 9 8 8 8 8 8 8 8 8 8 8 8 8 8 9 9 8 8 9 9 10 10 10
14 15 14 14 13 13 14 13 11 11 10 10 9 9 10 10 10 9 9 9 8 8 8 8 8 8 8 8 8 8 8 8 8 8 8 8 8 8 9 9 9 9 9

GFSGL_850_temp_102.txt.gz
Temp
18 20 20 18 18 19 19 19 19 19 19 20 20 19 19 19 18 18 17 18 17 18 17 17 18 18 18 18 17 17 17 17 16 16 15 15 16 16 16 16 16 16 15
19 18 18 18 18 18 18 19 19 19 19 19 19 19 19 19 18 18 17 17 17 17 17 17 17 17 17 17 17 17 17 17 17 17 17 16 15 15 16 16 16 15 15
18 17 17 17 13 15 18 16 20 20 19 18 18 18 18 18 18 18 18 18 17 17 17 17 17 17 17 17 17 17 17 17 16 16 17 16 16 16 16 16 16 15 15
17 17 18 19 17 16 18 17 18 17 18 18 18 17 18 18 18 18 18 17 18 18 17 17 17 17 17 17 17 17 17 16 16 16 16 16 15 15 16 16 15 15 16
19 19 18 18 16 15 16 16 16 18 18 17 18 17 18 17 18 18 18 17 18 18 18 17 18 17 17 17 17 17 17 17 16 16 16 16 16 16 16 16 16 15 14
18 18 17 16 15 15 14 15 15 16 17 17 17 17 17 17 17 18 18 18 17 18 18 18 18 18 18 17 17 17 17 17 17 16 17 16 16 16 16 15 15 14 14
17 16 16 16 16 16 15 15 15 14 14 15 16 17 17 17 17 17 17 18 18 18 18 18 18 18 18 18 17 17 17 17 17 16 16 17 17 16 16 15 15 15 15
15 16 16 17 17 16 15 14 14 14 14 17 18 18 17 17 17 17 17 17 18 18 18 18 18 18 18 18 18 17 17 17 17 17 17 16 16 16 16 16 15 15 14
14 15 15 16 16 15 15 14 13 14 16 17 17 18 18 18 17 17 16 17 17 17 18 18 17 17 17 17 17 17 17 17 17 17 16 16 16 15 15 15 15 15 13
14 14 14 15 15 15 15 15 15 16 17 18 18 17 17 17 17 17 16 17 17 18 18 18 18 18 18 17 17 17 17 17 17 17 16 16 16 16 16 15 15 15 13
14 14 14 15 15 15 15 15 16 16 17 17 17 17 17 16 16 16 17 17 17 18 17 18 18 18 18 18 17 17 17 17 17 16 16 16 16 16 16 15 15 15 15
14 14 14 15 15 16 16 15 15 16 16 16 16 16 16 15 16 17 17 18 17 17 17 17 17 17 18 18 17 17 16 16 16 16 16 16 15 16 16 15 15 15 15
13 14 14 14 14 15 15 15 15 15 15 15 15 15 15 16 17 17 17 17 17 17 17 17 17 17 16 16 17 16 17 17 17 16 16 16 16 16 16 15 15 14 13
14 14 14 14 14 14 14 14 15 15 15 15 14 14 14 14 14 14 14 15 15 16 16 16 15 15 15 15 15 15 16 16 17 16 16 16 16 16 16 15 14 15 13
13 13 13 13 14 14 14 14 14 14 14 14 14 14 13 13 13 13 14 14 14 14 14 14 15 15 16 16 15 15 15 15 15 15 15 16 16 16 16 15 15 14 14
13 13 13 13 14 14 14 15 15 14 14 14 14 13 13 13 13 13 13 14 14 14 15 15 15 15 15 15 15 15 15 15 15 14 15 15 15 15 16 15 15 14 14
12 13 13 14 13 14 14 14 14 14 14 14 14 14 13 13 12 12 13 13 13 14 13 13 14 14 14 14 14 14 14 14 14 14 14 14 14 14 15 15 15 14 14
12 13 13 14 14 14 14 14 14 14 14 14 14 14 13 12 12 12 12 12 12 11 11 11 11 12 13 13 14 14 14 14 14 14 14 13 13 13 13 14 15 14 14
13 13 13 13 14 14 14 15 15 15 15 14 14 13 13 12 12 12 12 12 11 11 11 10 11 11 11 12 12 13 13 13 12 12 13 13 13 13 13 13 14 14 14
12 13 13 13 13 13 14 14 15 15 14 13 13 13 12 11 11 11 11 10 10 11 11 11 10 10 11 11 11 12 12 12 12 12 13 13 14 13 13 13 13 14 13
12 13 12 12 13 13 13 14 13 13 13 13 12 12 11 11 11 11 10 10 10 10 10 10 9 10 10 11 11 12 12 11 12 12 12 13 13 13 12 13 13 13 12
12 12 12 12 13 13 13 13 13 13 12 12 11 11 10 11 11 11 10 10 10 9 9 9 9 9 10 10 11 11 11 11 12 12 12 12 12 12 12 12 13 13 12
12 13 13 13 13 13 12 13 13 12 12 11 10 10 10 11 11 11 10 10 10 9 9 8 9 9 9 9 10 10 11 11 12 12 12 12 12 12 12 12 12 12 11
12 12 13 13 13 13 13 13 13 12 13 13 12 10 10 11 11 11 10 9 9 9 9 9 9 9 9 8 9 9 9 9 9 10 10 11 11 11 11 11 11 11 11
12 12 13 13 13 14 13 13 13 13 13 13 13 12 11 11 11 10 10 8 8 9 9 9 9 9 9 9 9 8 7 9 9 9 9 9 9 9 9 9 9 9 9
12 11 12 13 13 13 14 13 13 13 13 12 12 12 12 11 10 9 10 9 8 9 9 8 9 9 9 9 9 9 8 8 8 8 8 8 8 8 8 8 8 8 8

GFSGL_850_temp_105.txt.gz
Temp
24 23 17 17 17 17 17 18 19 19 19 19 19 19 19 19 19 18 18 18 17 17 17 17 17 17 17 16 16 16 16 16 15 16 15 15 16 16 16 16 16 16 17
16 16 18 14 15 15 16 17 18 18 18 19 19 19 19 19 19 18 18 18 18 17 17 17 17 17 17 16 16 16 16 16 16 16 15 15 15 16 16 17 16 16 16
17 16 15 14 17 15 16 17 17 17 18 18 19 19 19 18 18 18 18 18 18 18 17 17 17 17 17 17 16 16 16 16 16 16 16 16 15 16 16 16 16 16 15
16 19 17 17 19 20 19 18 19 18 15 18 18 18 18 18 18 18 18 18 18 17 17 17 17 16 17 17 17 17 16 16 16 16 16 16 16 16 16 16 16 16 15
20 16 18 19 18 18 17 18 18 16 15 16 17 16 16 17 18 18 18 18 18 18 17 17 17 16 17 17 17 17 16 16 16 16 16 15 15 15 16 16 15 15 14
16 16 17 16 19 18 16 16 16 15 16 16 15 15 15 18 19 18 17 18 18 17 17 17 17 17 17 17 16 17 17 17 16 16 16 16 16 15 15 16 15 15 15
16 15 16 18 17 16 15 15 14 15 14 15 15 15 15 17 17 17 17 17 17 17 17 17 17 17 17 17 17 16 17 17 17 16 16 16 16 16 15 15 15 15 15
16 16 16 16 16 15 15 14 14 15 15 15 15 16 17 17 17 17 17 17 17 17 17 17 17 17 17 17 17 17 17 17 17 17 17 17 16 16 15 15 15 15 15
14 14 14 15 15 15 15 14 13 14 14 15 15 16 16 17 17 17 17 16 17 17 17 17 17 17 18 17 17 17 17 17 17 17 17 17 16 16 16 15 15 15 14
13 14 14 14 15 15 15 14 14 14 14 15 16 17 17 17 16 16 16 16 17 17 18 17 17 18 18 17 17 17 17 18 18 17 17 17 17 17 16 16 15 15 14
13 14 14 14 14 15 15 15 15 15 15 16 16 16 16 16 15 15 15 16 16 16 16 18 18 18 18 18 18 17 18 18 18 17 17 16 16 16 16 16 16 15 15
14 14 15 15 14 15 14 15 15 15 16 15 15 15 16 16 14 14 15 15 16 16 17 17 18 18 17 17 17 17 17 18 18 17 16 17 16 16 16 16 16 16 15
13 14 14 14 15 15 15 15 15 14 15 15 15 15 15 15 15 14 15 15 16 16 16 16 17 17 17 17 17 17 17 17 17 17 17 17 17 17 16 15 16 15 15
13 13 13 14 14 14 14 14 15 15 15 15 15 15 15 15 14 14 13 14 14 14 15 15 15 16 16 16 16 16 16 18 17 16 17 17 17 17 17 16 15 15 14
12 12 13 13 14 14 14 14 14 14 14 14 14 14 13 13 13 13 13 14 14 14 14 14 15 15 15 15 16 16 16 16 16 15 16 16 16 16 16 16 16 16 15
12 13 13 13 13 14 14 14 15 14 14 14 13 13 13 13 13 13 13 13 14 14 14 14 14 14 14 14 14 14 15 15 15 15 15 15 15 15 15 14 14 14 15
12 13 13 13 14 14 14 14 14 14 14 13 13 13 13 13 13 13 13 12 12 13 13 11 11 11 11 11 12 13 13 14 14 14 14 14 14 14 13 13 13 14 14
12 12 13 13 14 14 14 14 14 14 14 14 14 13 13 13 12 12 12 12 12 12 12 12 11 10 10 11 11 11 12 13 13 13 13 13 14 13 13 13 13 13 14
12 12 13 13 13 13 13 14 14 15 15 15 14 13 13 13 12 11 11 11 12 12 12 11 10 10 10 10 11 11 11 11 11 12 12 12 13 12 12 12 12 12 13
12 12 12 13 13 13 13 13 13 14 13 13 13 13 13 12 12 11 11 11 11 11 11 11 9 9 9 10 10 10 11 11 11 12 12 12 12 12 12 12 12 12 13
12 12 12 12 12 12 12 13 13 13 12 13 12 12 12 11 11 11 11 11 10 10 10 9 9 9 9 9 10 10 11 11 11 11 11 12 12 12 12 12 12 13 13
12 12 12 12 12 12 13 12 12 12 12 12 12 12 10 10 10 11 11 11 10 10 9 9 9 8 9 9 9 9 10 10 11 11 11 11 12 12 12 12 12 12 13
12 12 12 12 13 13 13 13 13 12 12 12 12 12 11 10 10 10 11 11 10 10 9 9 9 9 9 9 9 9 9 9 9 10 11 11 11 12 11 11 12 12 12
12 12 12 12 12 13 13 13 13 13 12 12 12 12 12 12 12 11 10 10 9 9 9 9 9 9 9 9 9 9 9 9 8 9 9 9 10 11 11 11 11 11 12
12 11 11 11 11 12 12 13 14 13 13 13 12 12 12 12 12 11 10 9 9 8 8 9 9 9 9 8 8 8 8 8 8 8 8 9 9 9 9 9 10 10 11
11 11 11 11 11 12 12 13 13 13 13 13 13 12 12 12 12 11 11 10 10 8 8 8 8 9 9 8 8 8 8 8 8 8 7 8 8 8 8 8 9 8 8

GFSGL_850_temp_108.txt.gz
Temp
17 17 17 17 16 18 20 20 21 18 18 18 18 19 19 19 19 18 18 18 17 17 17 17 17 17 17 16 16 16 16 16 15 15 16 16 15 15 16 16 16 16 16
17 16 17 16 18 17 19 18 16 18 17 18 17 18 19 19 19 18 18 18 18 18 17 17 17 17 16 16 16 16 16 16 15 15 15 15 15 15 16 16 16 16 16
16 16 16 18 20 20 22 23 19 17 16 18 18 18 18 19 18 18 18 18 18 18 17 17 17 17 17 16 16 16 16 16 16 16 16 15 15 15 16 16 16 16 16
16 16 16 17 20 21 21 19 17 19 17 18 18 18 18 18 18 18 18 18 18 18 17 17 17 17 17 17 16 16 16 16 16 17 16 16 16 16 16 16 16 16 16
16 16 18 17 17 17 16 14 15 14 15 16 16 16 16 17 18 18 18 18 18 18 17 17 17 17 17 16 16 16 16 16 16 16 16 16 16 16 16 16 16 16 15
15 16 15 15 16 17 15 15 14 14 15 15 15 15 16 17 18 17 18 17 17 17 17 17 17 17 17 17 16 16 16 16 16 16 16 16 16 16 16 16 15 15 14
14 15 15 15 15 15 15 14 14 14 15 15 15 14 16 17 16 15 16 15 17 17 17 17 17 17 17 17 17 17 16 16 16 16 16 17 17 16 16 16 16 15 15
15 15 15 14 14 14 15 14 14 14 14 14 15 15 15 17 15 15 15 16 16 17 17 17 17 17 17 17 17 17 17 17 16 16 16 16 17 16 16 16 15 15 15
14 14 14 14 15 15 15 14 14 14 14 14 15 16 16 15 15 15 16 17 17 18 16 16 17 17 17 17 17 17 17 17 17 17 17 17 17 16 16 16 16 15 15
13 14 14 15 16 16 15 15 14 14 15 15 15 15 16 16 16 17 17 17 17 16 15 16 17 17 17 17 17 17 17 18 18 17 17 17 17 17 16 15 16 15 15
13 14 14 14 15 15 15 14 14 15 15 15 15 16 16 16 16 16 16 16 16 15 14 16 16 17 16 16 17 17 18 17 17 17 17 17 17 17 17 16 16 16 16
14 14 14 14 14 14 14 14 14 14 15 15 15 16 16 16 16 16 16 16 14 14 15 15 15 16 16 16 16 17 17 16 17 17 17 17 17 17 17 17 16 16 16
13 14 14 14 14 14 14 14 14 14 14 14 14 14 14 15 15 15 15 14 14 14 14 14 15 15 15 15 15 16 16 16 16 16 16 17 17 18 17 17 16 16 15
13 14 14 14 14 14 14 14 14 14 14 14 14 13 13 13 13 13 13 13 14 14 14 14 14 14 14 15 15 16 16 15 15 16 16 16 16 16 17 17 17 17 16
12 13 13 13 14 14 14 15 14 14 14 13 13 13 13 12 12 12 13 13 13 14 14 14 14 14 14 15 15 15 15 15 14 15 14 14 15 16 16 17 17 16 16
12 13 13 13 13 14 14 14 14 14 14 14 13 13 13 13 13 12 12 13 13 13 13 14 14 14 14 14 14 14 14 14 14 13 14 14 14 14 14 15 14 14 14
12 12 13 13 13 14 14 14 14 14 14 14 14 14 13 13 13 13 13 12 12 13 13 13 13 13 13 13 13 12 12 11 11 12 13 13 13 13 13 14 13 14 13
12 12 13 13 13 13 13 14 14 14 14 14 14 14 13 13 13 13 12 12 12 13 12 12 12 12 12 11 11 11 11 11 11 11 12 12 12 13 13 13 13 12 13
11 12 12 12 13 13 13 13 13 13 13 13 13 13 13 13 13 13 12 12 12 12 12 12 11 11 10 9 9 9 9 10 10 11 11 11 11 12 12 12 12 12 12
11 12 12 12 12 12 12 12 12 12 12 13 13 12 12 12 12 11 11 11 11 11 11 11 10 10 9 9 9 9 10 10 10 10 11 11 11 12 12 12 12 12 12
12 12 12 12 12 12 12 12 12 12 12 12 12 12 12 11 10 10 10 10 11 11 11 10 10 10 9 8 9 9 9 9 10 10 10 11 11 11 12 12 12 12 12
12 12 12 12 12 12 12 13 13 13 13 12 12 12 12 11 10 10 11 11 11 10 10 10 9 9 9 9 9 8 9 9 9 9 10 10 11 11 11 11 11 12 12
12 12 12 11 12 12 12 13 13 13 13 13 13 12 12 12 12 12 12 11 11 10 10 10 9 9 8 9 9 9 9 9 8 8 9 9 10 10 10 11 11 11 12
12 12 11 11 11 11 12 12 13 13 13 13 13 13 13 12 12 12 12 11 10 10 9 9 9 8 8 8 8 8 9 8 8 8 8 8 8 8 9 9 10 10 11
11 11 11 11 11 11 11 11 12 13 13 13 13 13 13 13 12 12 12 11 11 10 9 8 8 8 8 8 8 8 8 8 9 9 8 8 8 8 8 8 9 9 10
11 11 10 10 10 10 10 11 11 12 13 13 13 13 13 13 12 12 12 12 11 11 10 9 9 8 8 8 8 8 8 8 8 8 8 8 8 8 7 7 7 7 8

GFSGL_850_temp_111.txt.gz
Temp
18 17 17 18 18 17 17 17 18 20 21 19 19 19 18 19 19 19 18 17 17 18 17 17 17 17 17 16 17 17 17 16 16 16 16 16 16 16 16 16 16 16 16
17 17 18 19 19 18 18 18 18 17 18 19 18 19 19 19 19 19 19 19 18 18 18 18 18 17 17 17 17 17 16 17 16 16 16 17 17 17 16 16 16 16 16
15 16 18 19 18 16 17 17 18 18 20 21 18 17 20 19 19 19 19 18 17 17 18 18 18 17 17 17 17 16 16 17 16 16 15 17 16 17 17 16 16 16 16
15 15 16 18 17 14 14 15 15 16 16 16 16 19 19 18 18 19 19 18 18 17 17 18 18 17 17 17 17 17 17 16 16 16 16 16 16 15 17 17 17 16 16
15 16 15 15 15 15 15 15 15 15 14 14 15 15 16 17 18 18 18 19 18 18 17 17 18 18 17 17 16 16 16 16 16 16 16 16 16 16 17 16 16 16 16
15 15 14 15 14 15 16 15 15 15 14 14 15 14 15 17 17 18 18 18 18 17 17 17 17 18 17 17 17 16 17 16 16 16 16 16 16 16 15 16 16 16 15
14 15 16 15 16 16 16 15 16 16 15 14 14 14 15 16 17 17 17 17 17 17 17 16 17 17 17 17 17 17 16 16 16 16 16 16 16 17 16 16 16 16 15
16 14 14 15 15 15 15 15 15 16 16 15 14 15 15 15 15 17 17 17 15 16 16 16 16 16 16 16 16 16 16 16 17 16 17 17 16 16 16 16 16 16 16
14 14 14 14 14 14 14 14 14 14 14 14 14 14 15 14 14 15 15 15 14 15 15 15 15 16 17 16 16 16 16 17 16 17 17 17 17 16 16 15 15 16 16
14 14 14 14 14 14 14 14 14 14 14 14 14 14 14 14 14 15 14 15 15 15 15 15 16 16 16 17 17 16 16 17 16 16 17 17 17 17 17 16 15 14 15
13 14 14 14 14 14 14 14 14 14 14 15 15 15 15 16 16 16 16 16 15 15 15 15 16 16 17 17 16 16 16 16 16 16 16 16 17 17 17 17 16 15 15
13 14 14 15 15 14 14 14 15 15 15 15 15 15 16 16 16 15 15 15 15 15 15 14 15 16 17 16 16 17 15 16 16 16 16 16 16 17 16 16 17 16 16
13 13 14 14 14 14 15 14 14 14 14 14 14 14 14 14 14 14 14 14 13 13 14 14 14 14 14 15 16 16 15 15 15 15 15 16 16 16 16 16 16 17 16
13 13 14 14 14 14 14 14 14 14 14 14 13 13 13 13 13 13 13 13 13 13 13 13 13 14 14 15 14 14 14 14 14 14 15 15 15 15 15 16 16 16 16
13 13 13 13 14 14 14 14 14 14 14 13 14 13 13 13 13 13 13 13 13 14 14 14 14 14 14 14 14 14 14 14 14 14 14 14 14 14 15 15 15 15 15
12 13 13 13 14 14 14 14 14 14 14 14 13 13 13 13 13 13 13 13 13 13 13 14 13 13 13 13 13 13 14 14 13 13 13 12 13 13 13 14 14 13 14
12 13 13 13 13 14 14 14 13 13 13 13 13 13 13 13 13 13 13 13 13 13 12 12 12 11 11 12 12 12 12 12 12 11 11 12 12 11 12 13 13 13 13
12 12 12 13 13 13 13 13 13 13 13 14 14 14 13 13 13 13 12 12 11 11 12 10 10 11 12 12 11 10 10 11 9 10 10 10 11 11 12 12 12 13 13
12 12 12 12 12 13 12 12 12 12 12 12 13 13 13 12 12 12 12 11 11 10 9 11 10 10 10 9 9 9 9 9 9 10 10 10 11 11 11 11 11 12 12
11 12 12 12 12 12 12 12 12 12 12 12 12 12 13 12 11 10 11 11 11 11 11 12 11 11 11 10 9 8 9 9 10 9 9 10 10 11 11 11 11 12 12
11 12 12 12 12 12 12 12 12 13 12 12 12 13 13 12 11 10 10 10 11 11 12 12 11 11 11 10 9 9 9 9 10 9 10 10 10 10 11 11 11 11 12
12 12 12 11 12 12 12 12 12 12 12 12 12 12 12 12 12 12 12 12 11 11 11 11 11 10 10 10 9 9 9 10 10 10 9 9 9 9 9 10 10 11 11
12 12 11 11 11 11 11 11 11 11 12 13 12 12 12 13 13 12 12 12 12 12 11 11 10 10 9 9 8 8 9 9 9 9 9 9 9 8 8 9 9 10 10
11 11 11 11 10 11 10 10 10 11 11 11 12 12 12 12 12 12 12 12 12 12 11 11 10 10 9 8 9 9 8 9 9 9 9 9 8 8 8 8 8 8 9
11 11 11 11 10 9 9 9 9 9 10 10 12 12 11 11 11 11 11 12 12 12 11 11 10 11 9 9 8 8 8 8 8 8 8 8 8 7 8 8 8 8 8
9 9 9 8 8 8 8 8 8 8 8 9 10 10 10 9 9 9 9 9 9 9 10 10 11 11 10 9 8 8 8 8 8 8 8 8 8 7 7 8 7 7 7

GFSGL_850_temp_114.txt.gz
Temp
16 16 16 17 17 17 19 18 18 17 18 18 18 18 17 17 17 18 19 18 17 17 17 18 19 18 18 18 17 17 17 17 16 18 19 18 16 16 16 16 16 16 16
16 16 16 16 16 18 17 18 19 18 18 18 19 18 18 18 17 17 17 18 18 17 17 17 17 17 17 18 17 17 17 16 17 17 17 17 16 16 16 16 16 16 17
15 15 15 15 15 15 16 16 17 17 17 17 18 18 18 18 18 17 17 18 18 18 17 17 17 17 17 17 17 17 17 16 16 16 17 18 17 17 16 16 17 17 17
15 15 15 15 16 15 15 15 15 16 17 17 17 17 17 17 18 17 17 17 18 17 17 17 17 17 17 17 16 17 17 16 16 16 17 17 16 16 16 17 16 17 16
15 15 15 15 15 15 15 14 14 14 15 16 15 16 16 16 16 17 17 17 17 17 17 17 17 17 18 17 17 17 17 16 16 16 16 16 16 15 15 17 16 16 15
14 15 15 14 15 15 14 14 14 15 16 14 15 14 15 15 16 17 17 17 17 18 18 17 17 18 17 17 17 17 16 17 16 15 16 16 15 15 16 16 16 16 15
14 15 15 14 15 15 14 14 14 14 16 15 14 15 15 15 16 16 17 17 17 17 17 17 17 17 17 17 17 17 16 16 16 16 16 17 16 16 16 16 16 16 16
13 14 14 15 15 15 15 14 14 14 14 15 15 15 15 15 16 16 16 16 17 17 16 16 17 17 17 16 17 17 16 16 17 16 15 16 16 16 16 16 16 15 15
13 13 13 14 16 17 15 14 15 14 15 15 14 14 14 15 16 16 15 15 15 15 16 16 16 17 16 15 16 16 16 16 16 16 16 16 16 16 16 16 16 16 16
12 13 14 15 16 16 15 14 14 15 15 14 14 15 14 14 15 14 14 14 14 15 15 15 15 15 16 15 15 15 15 16 16 16 16 17 17 17 17 16 16 15 16
12 13 13 14 14 15 15 15 15 15 15 15 15 15 15 15 14 14 14 14 14 14 14 15 16 16 14 14 14 14 14 14 16 16 16 16 16 16 16 16 17 16 16
12 13 14 13 13 14 15 15 15 15 15 15 15 15 15 15 15 15 15 14 15 15 15 15 14 14 14 14 14 14 15 15 16 15 16 16 16 16 16 15 16 15 16
12 13 14 14 14 14 14 14 15 15 15 14 14 13 14 14 14 14 14 14 14 14 14 14 13 14 14 14 14 14 14 15 15 15 16 18 15 15 15 15 16 16 15
12 13 13 14 14 14 14 15 15 15 15 15 15 15 14 13 13 13 14 14 14 14 14 14 14 13 13 14 14 15 14 14 14 14 15 15 15 15 15 15 15 15 15
12 12 13 14 13 14 14 14 14 14 14 15 15 15 15 14 13 13 13 13 13 14 14 14 13 13 12 12 12 12 13 12 13 13 14 15 15 14 13 13 14 15 15
13 13 13 14 14 14 14 14 14 14 14 14 14 14 14 14 14 14 14 14 14 14 13 13 13 12 12 12 13 13 11 12 12 13 13 14 13 12 13 14 14 13 14
11 12 14 14 14 14 14 15 15 14 14 14 14 14 14 14 13 13 13 13 13 13 13 13 13 13 13 12 12 11 10 10 10 10 11 10 10 11 11 11 13 13 13
12 12 13 13 13 14 14 14 15 15 15 15 13 14 14 13 13 13 13 13 13 13 13 12 13 12 11 11 11 10 10 10 10 10 10 10 10 10 11 11 11 12 12
12 12 12 13 13 13 14 14 14 14 14 14 14 14 13 13 13 13 12 12 12 13 13 13 11 10 12 12 11 10 10 9 9 10 10 10 10 11 10 10 11 11 11
12 12 12 13 13 13 14 14 14 14 14 14 14 14 13 13 13 13 12 12 11 11 12 11 11 10 11 10 9 9 10 9 9 9 9 9 9 9 10 10 10 11 11
13 12 12 13 14 13 13 13 13 14 14 14 14 14 13 13 13 14 13 13 12 12 12 12 11 11 11 12 9 10 10 9 10 10 10 9 10 9 9 10 9 10 10
13 13 13 13 13 13 13 13 13 14 14 14 14 14 14 13 13 14 13 13 13 12 12 11 11 11 9 11 9 10 10 10 10 9 9 9 9 9 9 10 9 9 9
13 13 14 14 13 13 13 13 13 13 13 13 14 14 14 14 14 14 14 14 13 13 12 11 10 10 9 10 9 9 9 9 9 9 8 8 9 10 10 9 9 8 8
12 13 13 13 13 12 13 12 12 12 12 12 13 13 13 14 14 14 14 14 14 13 12 12 11 11 9 9 9 9 9 9 8 9 8 8 8 9 9 9 9 8 7
12 12 12 12 12 12 12 12 12 12 12 12 12 12 12 12 12 12 13 12 13 13 12 12 12 12 11 10 11 10 9 9 9 9 9 8 8 8 8 8 8 8 7
11 11 11 11 11 11 11 11 11 11 11 10 10 10 10 10 10 10 10 9 10 10 10 11 11 11 11 11 10 10 10 10 9 9 9 8 8 8 9 8 8 9 8

GFSGL_850_temp_117.txt.gz
Temp
19 18 17 17 17 18 19 18 18 19 19 19 18 18 19 19 19 18 18 18 18 18 18 18 18 18 17 17 17 17 17 17 17 18 19 19 18 19 18 17 17 17 16
19 18 18 18 17 17 17 18 18 18 18 18 18 16 18 18 19 18 18 18 18 18 18 18 18 18 18 18 18 17 17 17 17 17 18 19 19 18 17 17 17 16 16
18 17 17 17 17 17 16 16 17 18 18 18 17 17 16 16 18 18 18 18 18 18 19 18 18 18 18 18 18 18 17 17 17 17 17 19 19 19 18 17 17 17 18
17 16 17 16 17 16 16 16 16 16 17 17 18 17 17 17 18 18 18 18 18 18 18 19 19 18 18 18 18 18 17 17 17 17 18 19 19 18 17 17 17 17 16
15 15 16 16 16 16 16 16 16 16 16 16 17 16 18 17 17 18 18 18 18 18 18 18 18 18 18 18 18 18 18 17 18 18 18 19 19 17 17 18 18 18 17
14 15 15 15 15 16 16 16 15 15 15 16 16 16 16 16 17 18 18 18 18 18 18 18 18 18 18 18 18 18 18 18 17 17 17 18 18 17 17 17 17 18 18
14 14 15 16 15 15 15 15 15 15 15 15 15 15 15 16 16 16 17 18 17 18 18 18 18 17 17 18 18 18 17 17 17 17 17 17 18 17 17 17 17 17 17
14 14 14 14 15 15 15 15 15 15 15 15 15 15 15 16 16 16 16 16 17 17 17 17 17 18 17 17 17 17 17 17 17 17 17 17 18 18 17 17 17 17 16
13 13 14 14 14 15 15 16 16 15 15 15 15 15 15 15 15 16 16 16 15 16 17 17 17 17 17 17 17 16 16 17 17 17 17 16 16 17 16 16 16 16 16
13 12 13 14 14 14 15 15 15 15 15 15 15 15 15 15 15 15 16 15 14 15 15 16 15 16 16 16 16 16 16 16 16 16 16 16 16 15 17 16 16 16 16
12 12 13 13 14 15 16 16 16 15 15 15 14 15 15 15 15 15 16 15 15 15 15 15 14 14 15 15 15 15 15 15 15 16 16 16 15 16 16 16 17 16 16
12 13 13 14 14 15 15 15 15 15 15 15 15 15 16 16 15 15 15 15 15 14 14 14 14 14 15 15 14 14 14 14 15 15 15 15 15 15 15 15 16 16 16
13 13 13 14 15 15 15 15 16 15 15 15 15 14 13 14 14 14 14 14 14 14 15 14 14 14 15 14 14 14 14 14 14 14 15 15 15 15 16 16 16 16 16
13 13 14 14 15 15 16 16 16 16 17 17 17 15 15 14 13 14 14 14 14 14 14 14 14 14 13 13 13 14 14 14 14 13 14 14 14 14 14 15 15 16 16
13 14 14 16 15 15 15 15 14 15 15 15 15 15 16 14 14 14 14 14 14 14 14 13 13 12 13 13 13 13 13 13 13 13 13 13 14 13 13 14 14 15 14
14 15 15 16 17 16 16 15 15 15 15 15 14 14 14 14 14 14 14 14 14 15 14 15 15 15 14 14 13 13 13 13 13 12 12 12 12 12 12 12 12 13 14
13 13 16 16 16 16 16 17 16 15 15 15 14 14 14 14 13 14 14 14 14 14 14 15 15 15 15 14 14 14 13 12 11 11 10 11 10 11 12 12 12 12 12
13 14 15 15 15 16 16 16 17 17 16 14 14 14 14 14 14 14 13 14 14 14 14 15 14 14 14 13 12 12 12 11 11 10 10 11 11 11 11 11 11 12 12
14 14 14 15 14 14 15 16 16 16 16 16 15 14 14 14 14 14 13 13 13 14 15 15 14 14 12 12 11 11 11 11 11 10 10 10 10 11 10 10 11 11 11
13 13 13 14 15 15 15 15 15 15 15 16 16 15 14 14 14 14 14 13 14 14 14 14 14 13 12 12 10 10 11 10 11 11 11 11 11 10 10 10 11 11 11
15 15 14 15 15 15 15 14 15 15 15 16 15 15 15 14 14 15 15 15 15 14 14 14 14 14 12 11 10 11 11 12 12 12 12 12 12 10 10 11 11 11 10
14 14 14 15 15 15 14 14 15 15 15 15 15 15 15 14 15 15 15 15 15 15 14 14 13 13 13 12 11 11 12 13 12 12 12 11 11 11 11 11 11 10 10
14 13 13 14 14 15 15 15 15 15 15 15 15 15 15 15 15 16 16 15 15 15 15 14 14 13 13 12 11 11 11 11 12 11 10 10 10 10 10 10 11 10 10
13 13 13 15 14 14 13 13 14 15 14 15 15 14 14 14 14 15 15 14 14 13 13 13 13 13 13 12 12 12 11 10 10 10 9 9 9 9 9 10 10 10 10
12 13 13 14 14 14 14 14 14 14 14 13 11 10 11 11 11 11 10 10 10 11 11 12 12 13 12 12 10 11 11 11 11 10 10 9 9 9 9 9 10 9 10
12 12 12 13 13 12 12 12 12 12 12 12 10 10 9 9 9 9 9 9 8 10 9 9 9 9 9 9 10 11 10 11 9 10 10 8 8 9 9 9 9 9 10

GFSGL_850_temp_123.txt.gz
Temp
19 18 18 18 18 19 19 19 19 19 18 18 19 19 18 18 18 19 19 18 18 18 18 18 19 19 19 19 19 18 19 19 17 19 19 20 20 19 18 19 19 19 19
16 17 17 17 17 17 18 18 18 18 18 18 18 18 18 17 17 17 17 17 17 17 17 18 18 19 19 19 19 18 18 18 18 18 18 19 19 19 18 18 19 18 18
15 15 16 17 17 17 17 17 17 17 18 18 18 17 17 16 16 15 15 16 16 17 17 17 18 18 18 19 19 18 18 18 18 18 19 19 19 18 18 18 18 18 18
14 14 15 15 16 17 17 17 17 17 17 17 17 17 17 16 16 16 16 15 18 18 17 17 18 18 18 19 19 19 18 18 18 17 17 18 18 18 18 18 18 18 18
13 14 14 14 15 16 17 17 17 17 17 17 17 16 17 17 18 19 19 19 18 17 17 17 17 17 17 18 18 18 19 18 18 17 17 18 18 18 18 18 18 18 18
12 13 13 13 14 14 15 16 16 16 17 17 17 16 16 17 18 19 19 17 17 17 17 18 20 19 19 17 18 18 18 18 18 18 18 18 18 18 18 18 18 18 18
12 12 12 13 13 14 15 15 16 16 17 17 17 16 16 16 17 18 19 17 18 18 17 17 18 19 20 18 17 18 19 18 18 18 18 18 18 18 18 18 17 18 18
12 12 12 12 13 13 14 14 15 15 16 16 16 16 16 16 16 16 16 16 16 16 16 18 20 19 20 20 18 17 18 18 18 18 18 18 18 17 17 18 17 17 17
12 12 11 12 13 13 16 14 14 15 16 16 16 16 16 16 15 15 16 16 16 15 16 16 16 17 19 17 16 17 17 18 18 17 17 17 17 17 17 17 17 17 17
12 12 12 12 12 13 13 13 13 15 15 16 16 16 16 16 15 15 15 15 15 15 16 16 16 16 16 17 17 17 17 17 17 17 17 17 17 17 16 16 16 17 17
12 12 12 12 13 13 13 14 15 16 15 15 15 16 16 15 15 16 15 15 15 15 15 15 16 17 17 17 17 17 17 17 16 16 16 16 16 15 16 16 16 16 16
13 14 14 13 13 14 14 15 15 14 14 14 14 14 15 15 14 15 15 15 15 15 15 15 15 15 15 15 15 15 15 15 15 15 15 15 14 15 15 16 15 15 15
14 14 15 15 15 14 15 15 13 14 14 13 13 13 14 14 14 14 14 14 14 15 14 14 14 14 14 14 14 14 14 14 14 14 14 14 14 14 14 14 15 15 15
14 15 15 16 15 15 15 15 15 15 15 14 14 14 14 14 14 14 14 13 14 14 14 14 14 14 14 14 14 15 14 14 14 14 14 14 13 14 14 15 15 15 14
14 15 15 15 15 16 16 15 15 15 15 14 15 15 15 15 14 14 14 14 14 14 13 14 14 14 14 14 14 14 14 14 13 13 13 13 13 13 13 13 13 13 13
14 15 15 15 16 15 15 16 15 15 15 15 15 15 15 14 14 14 14 15 14 14 14 14 15 15 14 14 14 14 13 13 13 13 13 13 13 13 13 13 13 12 12
14 14 15 15 16 15 15 15 15 15 15 15 15 15 14 14 14 14 14 14 14 14 15 15 15 15 14 14 14 14 13 13 13 13 13 12 11 11 11 11 12 12 12
14 15 15 15 15 15 15 15 15 15 15 15 15 15 15 15 14 14 14 15 15 15 15 15 15 15 15 14 14 14 13 13 12 12 11 11 11 10 10 11 11 11 11
14 15 15 15 15 15 15 15 15 15 15 15 15 15 15 15 15 14 14 14 14 15 14 15 15 15 14 14 13 13 13 12 12 11 12 12 11 11 11 11 12 11 11
14 14 15 15 15 15 15 15 15 15 15 15 15 15 14 15 15 15 15 15 15 15 15 15 14 14 14 14 14 13 13 12 12 12 12 12 12 11 12 12 11 11 11
14 14 14 15 15 15 15 15 15 15 15 15 15 15 14 13 13 14 14 13 13 14 14 15 15 14 14 14 13 13 13 13 12 12 12 12 12 12 12 12 12 11 11
13 14 14 14 15 14 14 15 15 15 15 15 14 14 13 13 13 12 12 12 12 12 13 14 13 13 13 12 12 12 12 12 12 11 12 12 12 11 12 12 11 11 11
13 13 14 14 14 14 14 14 14 14 14 13 13 12 11 11 12 11 12 11 11 11 11 12 11 12 11 11 11 11 11 11 12 11 11 11 11 10 10 10 11 10 10
13 13 13 12 13 13 13 13 13 12 12 12 11 11 10 10 10 9 10 10 10 10 10 9 10 10 10 10 10 10 10 10 10 11 10 10 11 11 10 10 11 11 10
12 12 12 11 12 12 12 12 11 11 11 10 10 10 9 9 9 9 8 8 8 7 8 8 7 8 8 8 7 8 8 9 8 8 9 9 9 10 9 10 10 10 10
11 11 11 10 10 10 10 10 10 9 9 9 9 9 8 8 7 7 7 6 6 6 6 6 6 6 6 6 6 6 7 7 7 7 7 8 8 9 9 9 9 9 9

GFSGL_850_temp_129.txt.gz
Temp
18 18 18 17 17 17 17 17 16 17 17 17 17 18 17 17 17 17 17 16 16 16 16 17 18 18 18 18 18 18 18 18 17 18 18 19 19 19 19 19 18 19 19
17 16 16 15 15 15 15 15 16 15 16 16 16 17 17 17 17 18 17 17 16 16 16 13 16 17 17 17 18 18 18 18 18 18 19 19 19 19 19 18 18 18 19
16 16 15 15 14 14 14 14 15 15 15 15 16 16 16 17 17 17 17 17 17 18 16 16 17 15 16 17 17 17 18 18 18 18 18 19 19 18 18 18 18 18 18
15 15 14 14 14 13 13 13 13 14 14 14 15 16 16 16 17 17 17 17 17 19 19 19 19 17 17 17 16 17 18 17 17 18 17 18 19 19 18 17 18 18 18
14 14 14 13 13 13 13 13 13 13 14 15 15 15 16 16 17 17 17 17 17 18 18 18 19 20 16 18 17 17 17 17 17 17 17 17 18 18 18 18 18 18 18
14 14 13 13 13 13 13 12 12 12 14 15 15 15 16 16 17 17 16 16 17 17 17 17 18 16 16 16 16 16 17 17 17 17 17 17 18 18 19 18 18 18 18
14 13 13 13 13 13 12 13 13 12 12 13 14 14 15 16 16 17 17 17 17 17 16 16 16 17 17 17 17 16 16 16 16 17 17 17 17 18 18 18 18 18 18
13 13 13 13 13 13 12 13 12 11 12 13 14 14 15 15 16 16 16 16 16 16 16 15 15 15 15 15 16 16 17 17 17 16 17 17 18 18 18 18 17 17 17
13 13 13 13 13 13 13 12 12 12 12 13 13 15 16 16 16 16 16 15 16 15 15 14 15 15 15 16 15 16 16 17 17 17 16 17 17 17 17 17 17 17 18
13 13 13 14 14 14 13 11 12 12 13 13 14 15 16 16 16 16 15 15 15 15 15 15 16 15 15 16 16 16 16 17 17 16 17 17 17 17 17 17 17 17 16
13 13 14 14 14 13 13 12 11 11 12 13 14 15 15 16 16 16 16 16 16 16 15 15 15 15 15 15 16 16 17 16 16 16 16 17 17 17 17 17 17 16 16
13 13 14 14 14 14 14 13 13 11 12 11 12 13 13 14 15 15 16 15 16 15 15 15 15 15 15 15 15 15 16 16 15 16 16 16 16 16 16 16 16 15 15
13 13 14 14 14 14 14 14 13 13 12 11 12 12 12 12 13 14 14 14 14 14 15 15 14 14 14 14 14 15 15 15 16 16 15 15 15 15 15 14 14 14 14
13 14 14 14 14 13 14 13 14 14 13 12 12 11 11 10 11 12 13 13 14 14 14 13 13 13 13 13 13 14 14 14 14 14 14 13 14 14 14 14 14 13 14
13 14 14 14 14 13 14 14 13 14 13 13 13 13 13 12 12 12 12 12 13 13 13 14 13 13 13 13 13 13 13 13 13 13 13 13 14 14 13 13 13 13 13
13 13 14 14 14 15 14 14 14 14 14 13 13 13 13 13 13 13 13 13 13 13 13 14 14 13 13 13 12 12 12 12 12 12 12 12 12 12 12 12 12 12 12
13 14 15 15 14 15 15 14 15 15 14 14 14 14 14 13 13 13 14 14 14 14 14 14 14 13 13 13 13 13 13 12 12 12 12 12 12 12 12 11 11 11 12
13 14 15 15 15 14 14 14 15 15 15 14 14 14 14 14 13 13 13 14 15 14 14 15 14 14 14 13 13 13 12 12 12 12 11 11 11 11 11 11 11 11 11
14 14 15 15 15 14 14 15 15 15 15 14 14 14 14 14 14 14 14 14 14 14 13 13 13 14 13 13 13 12 12 12 11 11 11 11 11 11 11 11 11 11 11
14 14 14 14 14 14 15 15 15 15 15 14 14 13 13 14 14 14 14 14 14 14 14 14 13 13 13 13 13 13 12 12 12 11 11 11 11 11 11 11 11 11 11
14 14 14 14 14 14 14 14 15 14 14 13 13 12 12 13 12 12 12 12 12 13 13 13 13 13 12 12 12 12 12 12 11 11 11 11 12 12 11 11 11 11 11
13 13 13 14 14 14 14 14 14 13 13 12 11 11 11 11 11 11 11 11 11 11 11 11 11 11 11 11 11 11 11 11 12 11 11 11 11 11 11 11 11 10 10
12 13 13 13 13 13 12 12 12 11 11 11 11 10 10 10 10 10 9 9 9 9 9 9 9 10 9 9 9 9 9 9 10 10 10 10 10 10 10 10 10 10 10
12 12 12 12 11 11 11 11 10 10 10 9 9 9 9 8 8 8 8 8 7 7 7 8 8 8 7 7 7 7 7 7 7 7 7 7 7 8 8 8 8 9 9
11 11 11 11 11 10 10 10 9 9 8 8 7 7 7 7 7 7 7 6 6 6 6 6 6 6 6 6 6 6 5 5 5 5 5 5 5 6 6 6 6 7 7
10 10 9 9 9 8 8 8 8 8 7 7 6 6 6 6 5 5 5 5 5 5 4 4 4 4 4 4 4 4 4 4 4 4 4 4 4 4 4 4 5 5 6

GFSGL_850_temp_132.txt.gz
Temp
18 18 18 17 16 15 15 15 15 15 15 15 16 16 16 17 17 17 17 17 17 17 16 16 15 16 16 16 17 17 17 17 17 19 19 19 19 19 19 18 18 18 18
17 17 17 16 15 15 15 14 14 14 15 15 14 15 15 16 17 17 17 17 16 17 17 16 16 17 17 16 15 16 17 17 17 17 19 19 19 19 18 18 18 18 18
17 16 15 15 14 14 14 14 14 14 14 14 14 14 14 15 16 17 17 17 17 17 17 17 18 19 19 19 16 16 16 17 17 17 18 19 18 19 18 18 18 18 18
16 15 15 15 14 14 14 13 14 14 13 13 13 14 14 14 15 15 16 16 16 17 17 17 18 18 19 16 19 19 18 17 17 17 17 18 18 18 18 18 18 18 19
14 14 14 13 13 13 13 13 13 13 13 12 12 12 13 14 14 15 15 16 16 16 16 17 16 16 16 17 16 15 17 19 17 16 16 18 18 18 18 19 18 18 18
14 14 13 13 13 13 14 13 12 13 12 13 12 11 12 12 15 15 15 15 16 16 17 17 17 17 17 16 15 16 16 17 16 17 16 17 18 18 18 18 18 17 17
14 13 13 13 13 14 14 13 12 12 12 11 12 11 13 14 14 15 15 15 16 16 16 16 16 16 16 16 15 15 16 15 16 16 16 17 18 18 18 18 18 17 17
13 13 13 13 14 14 14 13 12 12 12 12 12 11 12 13 13 14 14 15 16 16 16 16 15 15 15 15 16 14 16 16 15 15 16 16 17 18 18 17 17 17 17
13 13 13 13 14 14 14 13 12 11 12 11 12 13 13 14 15 15 16 16 15 15 15 15 14 14 14 14 15 15 15 16 16 16 16 17 17 18 17 17 16 16 17
13 14 13 14 14 14 14 13 11 11 10 10 12 13 14 14 16 15 15 16 16 16 18 17 15 15 14 14 14 15 14 17 16 16 16 16 17 18 17 18 17 16 16
13 14 14 14 14 14 14 13 12 11 10 11 10 11 13 13 16 16 16 16 17 16 15 15 14 14 14 14 14 15 17 17 16 16 16 17 16 16 17 17 17 16 16
13 14 13 13 14 14 14 13 12 12 11 11 11 11 11 12 14 15 16 16 16 16 16 14 14 14 14 14 14 16 16 17 15 16 16 17 17 17 17 17 17 16 16
14 14 14 14 14 14 14 14 13 12 12 11 10 11 11 11 12 13 14 14 15 15 15 14 14 14 14 14 14 15 15 16 16 15 15 15 16 16 16 16 16 16 15
14 14 14 14 14 14 13 13 13 13 12 12 11 10 11 11 11 12 13 13 13 13 14 14 14 14 13 13 13 14 14 14 15 15 15 15 15 15 15 15 15 15 14
13 14 14 14 14 14 13 13 13 13 12 13 12 12 11 11 11 11 11 12 12 13 13 13 13 13 12 13 12 12 13 13 13 13 13 13 13 13 13 13 13 13 13
13 13 14 14 14 14 14 14 13 13 13 13 13 13 12 11 12 13 13 13 13 13 14 14 13 13 12 12 12 11 11 12 11 12 12 12 12 12 12 12 12 12 13
13 13 14 14 14 14 14 14 14 14 13 14 13 13 13 13 13 14 14 14 14 14 14 13 13 12 12 12 11 11 11 11 10 12 10 11 11 11 11 11 11 12 12
13 13 14 15 14 15 14 14 14 15 14 14 14 14 14 13 14 14 14 14 14 14 13 13 13 13 12 12 11 11 11 11 11 11 11 11 11 11 11 11 11 11 11
13 13 14 15 15 14 14 15 15 15 14 14 13 13 13 13 14 14 14 14 14 14 14 13 13 13 13 13 12 12 11 12 12 11 11 11 11 11 11 11 11 11 11
14 14 14 14 14 14 14 14 14 14 14 13 13 12 12 14 13 13 13 12 12 12 12 13 13 12 12 12 12 12 12 11 11 11 11 11 11 11 11 11 11 11 11
14 14 14 14 14 14 14 14 14 14 12 12 12 11 11 12 12 12 12 11 11 11 11 11 11 11 11 11 11 11 11 11 11 11 11 11 11 11 11 11 11 11 10
13 13 13 13 13 13 13 13 13 12 12 11 10 10 10 11 10 10 10 10 10 10 10 9 9 9 9 9 9 10 10 10 10 10 10 10 10 10 10 10 10 10 10
13 13 13 13 13 13 12 12 11 11 10 10 10 10 9 9 9 9 8 8 8 8 8 8 8 8 8 8 8 8 8 7 7 7 7 7 8 8 8 9 9 8 9
12 12 12 12 12 11 11 11 10 10 10 9 8 8 8 7 7 7 7 7 6 6 6 6 6 6 6 6 6 6 6 6 6 6 6 6 7 7 7 7 7 7 8
11 11 11 11 10 10 10 9 9 8 8 8 7 7 6 6 6 5 5 5 5 4 4 4 4 4 4 4 4 4 4 4 4 5 5 5 5 5 5 5 5 5 6
10 10 10 9 9 8 8 7 7 6 6 5 5 5 4 4 4 4 3 3 3 3 3 3 3 3 3 3 3 3 3 3 3 3 3 3 3 3 3 3 3 3 3

GFSGL_850_temp_135.txt.gz
Temp
19 18 17 17 17 16 16 15 15 15 15 15 15 15 15 15 15 15 16 17 17 17 17 17 17 17 17 17 17 17 16 16 16 17 17 17 17 19 19 19 19 19 18
18 17 17 16 16 16 15 14 14 14 14 14 14 14 15 14 14 15 15 15 16 17 17 17 17 17 16 16 17 18 18 19 20 19 19 17 17 18 19 19 19 19 19
17 16 15 15 15 14 14 14 14 14 13 14 14 13 14 14 14 14 15 15 15 16 17 17 17 18 17 16 17 17 19 18 18 20 17 17 18 16 18 19 19 19 19
16 15 15 14 14 14 14 14 14 13 13 13 13 13 13 14 14 13 13 14 15 15 16 17 17 17 18 18 17 17 16 16 15 16 15 16 17 17 16 17 17 19 19
16 15 14 14 14 14 14 14 14 14 13 12 12 12 11 11 11 11 12 13 14 15 15 16 16 17 17 17 17 17 17 16 15 15 16 15 16 16 16 18 17 18 17
15 14 14 13 14 14 14 14 14 13 12 12 12 10 12 12 11 11 12 13 13 14 15 15 16 17 17 17 16 16 16 16 15 16 15 16 16 15 16 17 17 17 18
14 13 14 14 14 14 14 14 13 13 12 12 11 11 12 12 11 11 12 12 13 13 14 16 15 15 16 16 16 16 16 15 15 16 15 15 15 16 16 17 17 16 17
14 14 14 14 14 14 14 14 13 12 12 11 10 10 11 12 12 12 12 12 13 13 14 15 15 15 16 15 14 16 15 15 15 16 15 16 16 16 16 16 18 17 17
13 14 14 13 14 14 14 14 13 13 12 11 9 10 10 11 12 13 13 13 13 14 14 14 15 15 15 15 14 15 15 16 15 15 16 16 15 16 16 16 16 16 16
13 14 14 13 13 13 13 14 13 12 12 11 10 9 9 11 13 13 15 14 14 14 14 16 16 16 15 15 15 14 15 15 14 16 15 16 16 16 17 16 16 16 17
14 14 13 13 13 13 13 13 13 12 12 11 10 10 9 11 12 14 15 16 15 14 14 15 16 16 15 14 14 14 14 13 15 15 15 15 16 16 17 17 17 16 16
14 14 14 14 13 13 13 13 13 12 12 12 10 10 10 11 11 14 15 14 14 14 14 14 14 14 14 14 13 13 13 13 13 14 15 14 14 16 17 15 16 15 16
14 14 14 14 14 13 13 13 13 12 12 12 12 10 10 11 11 11 13 14 14 14 14 14 14 14 14 14 13 13 14 14 14 15 15 15 14 15 16 16 16 16 16
14 14 14 14 14 14 13 13 13 13 12 12 12 12 11 12 11 11 11 13 12 13 13 13 13 13 13 13 13 13 13 14 14 14 14 14 15 14 15 16 15 15 15
13 14 14 14 14 14 14 13 13 13 12 13 12 12 12 11 11 11 11 11 10 11 11 12 13 12 13 12 13 13 12 12 13 13 14 14 14 14 14 14 15 15 15
13 13 13 14 14 14 14 14 14 13 13 13 12 12 12 12 11 12 13 12 13 12 12 12 11 11 10 10 11 12 11 12 10 11 11 12 12 11 12 11 11 13 13
13 13 14 14 14 14 14 14 14 13 13 13 13 12 12 12 12 12 13 13 13 13 12 12 12 11 11 10 11 10 10 10 10 10 11 10 10 10 11 11 10 10 11
13 13 14 14 14 14 14 15 14 13 13 13 13 12 13 13 13 13 13 14 13 13 12 11 11 11 11 10 10 10 10 10 11 11 11 11 11 11 11 10 10 10 11
13 13 14 14 14 14 14 14 14 13 13 13 12 12 12 13 12 13 13 12 12 12 11 12 12 11 10 10 10 11 11 11 11 12 11 11 11 11 11 11 11 11 11
14 13 14 14 14 14 14 14 14 13 12 12 12 12 12 13 13 12 11 11 11 11 11 10 10 11 11 11 11 11 11 11 11 11 11 11 11 11 11 11 11 11 11
13 13 14 14 14 14 14 13 13 12 12 12 11 11 10 11 11 10 10 10 9 9 9 9 9 9 9 9 10 10 10 10 10 10 10 10 11 10 9 9 10 10 11
13 13 13 13 13 13 13 12 12 11 10 10 10 10 10 10 9 9 8 8 8 8 8 8 7 7 7 7 8 8 8 8 8 8 8 9 8 9 9 9 10 9 9
12 13 13 13 12 12 11 11 11 10 9 9 8 8 7 7 7 7 6 6 6 5 6 6 6 4 6 6 6 6 6 7 7 7 7 7 7 8 8 8 8 8 8
12 12 12 12 11 11 11 10 10 9 8 7 7 7 7 6 5 5 5 5 5 4 5 4 4 5 4 4 4 4 4 5 5 5 5 5 4 4 5 5 5 6 7
11 11 11 10 10 10 9 9 8 8 7 7 6 5 5 4 4 4 4 4 3 3 3 4 3 3 3 4 4 4 4 4 4 4 3 3 2 2 2 3 3 3 3
10 10 10 9 9 8 7 7 6 6 6 5 4 4 3 3 2 2 2 3 3 3 3 3 3 3 3 2 3 3 3 3 3 3 3 2 2 1 1 1 1 2 2

GFSGL_850_temp_138.txt.gz
Temp
20 20 19 19 17 17 16 15 13 13 15 15 14 13 13 13 13 13 13 13 15 15 16 17 17 18 17 18 18 17 17 17 18 20 20 21 20 19 19 18 18 18 19
20 19 18 17 16 16 16 15 13 12 13 12 12 12 12 12 13 13 13 13 14 14 15 16 17 17 18 18 17 17 17 17 17 18 20 20 19 19 18 17 18 19 19
19 18 16 16 16 16 15 14 14 13 12 12 12 12 12 12 12 13 13 13 13 14 14 15 16 16 17 17 17 16 16 16 16 17 18 19 19 19 18 17 17 17 19
19 16 16 16 15 15 14 13 12 12 12 12 12 12 11 11 11 12 12 12 12 13 14 15 15 16 16 17 16 16 17 16 16 17 17 17 18 19 19 19 19 18 19
17 16 15 15 15 14 12 13 12 12 12 12 12 11 11 10 11 12 12 12 12 12 13 14 14 15 16 17 16 16 16 16 16 17 17 17 17 17 17 18 18 20 20
16 16 15 15 15 13 12 12 12 12 12 12 11 11 10 9 10 11 12 11 12 12 12 13 14 15 16 16 16 17 16 15 15 17 17 17 15 17 16 17 17 20 20
17 15 15 14 13 12 12 12 13 12 12 11 11 11 10 10 10 11 12 12 11 12 12 13 13 14 15 15 16 16 16 15 15 15 15 16 16 16 16 16 17 18 19
15 14 14 13 12 12 12 12 12 12 12 12 11 10 10 10 10 11 12 13 12 12 12 13 14 14 15 15 15 15 16 17 16 16 17 16 15 15 16 17 17 17 17
14 14 13 13 13 12 12 12 13 12 12 12 11 10 11 11 10 11 12 13 13 13 13 13 13 14 15 14 15 15 14 15 16 16 16 16 16 16 15 15 15 16 16
15 14 14 13 12 12 12 13 14 13 12 12 11 11 11 11 10 9 13 13 13 13 14 14 14 14 14 15 15 14 15 15 15 15 15 16 16 16 15 16 15 16 16
15 14 12 12 12 12 14 14 14 13 12 11 11 11 11 11 10 10 13 14 14 14 14 14 14 14 14 14 15 15 14 14 15 14 15 14 14 15 15 15 16 16 16
14 13 12 12 12 13 14 13 13 13 12 13 12 11 11 10 9 10 12 13 13 13 14 14 14 14 14 14 14 14 14 14 14 15 14 14 14 15 15 15 16 16 16
13 13 13 12 13 13 13 14 13 13 13 13 13 11 11 11 10 10 10 12 13 13 13 13 13 13 13 13 13 13 13 13 14 14 13 13 15 16 15 15 15 15 16
13 13 13 13 13 13 13 13 13 13 13 12 12 11 11 11 10 10 10 10 11 11 11 11 12 12 12 12 12 12 13 13 13 13 13 13 14 15 15 14 15 15 15
13 13 13 14 15 14 14 14 13 13 13 12 12 12 11 11 10 11 10 11 11 11 11 11 11 11 11 11 11 11 11 11 11 11 12 12 13 13 14 14 15 14 15
13 14 15 15 15 16 15 15 14 13 13 12 12 12 11 11 11 10 12 12 12 12 12 12 13 13 12 11 10 10 11 12 10 10 10 10 11 11 12 12 12 12 12
13 13 14 14 15 15 15 15 14 13 13 12 11 11 11 11 11 11 11 12 12 12 13 13 13 14 13 13 12 10 10 10 9 10 10 10 10 10 11 11 11 10 10
13 14 14 15 15 15 14 14 14 14 12 11 11 11 11 12 12 12 12 12 12 10 10 10 11 11 11 12 12 12 11 10 10 10 10 11 11 10 10 10 10 10 10
14 15 15 15 15 14 14 14 14 13 12 12 12 11 11 11 12 12 12 12 11 10 9 9 9 10 10 10 10 10 10 10 10 11 10 11 11 11 11 11 11 11 11
14 14 14 15 14 14 14 14 13 12 12 11 11 10 11 11 10 9 9 8 8 8 8 7 8 8 9 8 9 9 10 9 9 9 9 10 10 10 11 11 11 12 11
15 15 14 14 14 14 14 13 12 12 11 10 10 10 10 10 9 9 8 8 7 7 7 7 7 7 7 7 7 8 8 7 7 8 9 10 9 9 9 10 10 10 10
13 14 14 14 13 13 13 12 11 11 11 11 10 9 9 9 9 9 8 8 7 7 6 6 7 6 6 6 5 6 6 6 6 7 8 8 8 8 9 9 10 9 9
11 11 12 11 12 12 12 12 11 11 11 10 10 9 9 8 8 7 7 7 6 6 6 6 6 6 5 5 5 4 4 4 4 4 5 6 7 6 7 7 8 7 7
10 10 11 11 11 11 11 10 10 10 10 9 9 8 8 7 7 6 6 6 5 5 5 5 5 5 5 5 5 3 5 5 4 5 5 4 5 5 5 6 7 7 7
8 9 10 11 11 10 10 10 10 9 9 8 8 8 7 7 6 6 5 5 5 5 5 5 4 4 3 3 3 4 4 4 4 4 4 2 3 3 4 5 5 5 5
10 9 9 9 9 9 9 9 8 8 7 7 7 6 6 6 5 5 4 4 3 4 4 4 3 3 3 3 4 4 4 4 4 4 4 2 2 3 3 2 2 3 3

GFSGL_850_temp_141.txt.gz
Temp
21 21 20 20 20 20 19 17 16 15 14 13 13 13 14 14 14 14 14 14 14 14 15 16 16 17 17 17 17 17 18 17 18 17 20 21 22 22 21 21 20 19 19
19 20 20 20 20 19 17 16 14 13 13 14 14 14 14 14 13 13 13 13 13 13 14 14 14 15 16 17 17 17 18 18 17 17 18 18 19 19 21 21 20 20 19
19 20 20 20 18 17 17 16 15 13 13 14 13 14 13 13 13 12 12 12 12 12 12 13 14 14 15 16 16 17 17 18 18 18 19 18 17 18 19 20 18 19 19
18 19 19 18 17 16 15 14 13 14 14 14 14 13 13 13 12 12 11 11 11 11 11 12 13 13 14 15 16 17 17 17 18 17 17 17 17 18 18 18 18 19 18
19 18 18 16 15 14 14 14 14 14 14 14 13 13 13 12 12 12 11 10 9 10 11 12 12 13 13 14 15 16 16 17 17 17 17 17 17 18 18 19 19 19 18
18 17 16 15 14 14 13 14 14 14 13 13 13 12 12 12 11 11 10 10 9 10 11 12 12 13 13 13 15 15 16 16 17 17 17 17 18 19 18 18 18 18 17
18 17 15 15 14 13 13 13 13 13 13 13 12 13 12 11 11 10 9 9 9 11 12 12 12 12 13 14 15 15 15 16 16 17 17 18 19 18 17 17 17 17 17
16 15 15 14 14 13 13 14 13 13 13 12 12 12 12 11 11 10 9 9 12 13 13 13 12 13 14 14 15 15 16 16 16 16 17 17 18 17 17 16 17 16 17
16 15 15 14 14 13 13 13 13 13 13 12 13 12 11 11 11 11 9 10 13 13 13 13 13 13 14 15 15 15 16 15 15 16 17 17 17 16 15 15 16 15 16
16 15 14 14 14 13 14 13 13 13 13 13 12 12 11 12 11 11 10 11 13 14 14 13 14 14 14 14 15 15 15 15 16 16 16 16 15 16 16 16 15 15 15
15 15 15 14 13 13 13 13 12 12 13 13 13 12 11 11 11 11 10 10 12 13 13 14 14 14 14 13 14 15 15 15 16 15 16 15 15 15 15 15 15 15 16
15 15 14 14 14 14 13 13 13 13 13 14 14 13 11 12 11 11 10 10 10 11 13 13 14 14 14 14 14 14 14 14 14 15 15 15 15 15 15 15 15 15 15
15 14 14 14 14 14 13 13 14 15 15 14 14 12 12 11 10 11 10 10 11 10 10 11 13 13 13 13 13 13 13 13 14 14 14 15 15 14 15 14 14 15 15
14 14 14 14 14 14 15 16 16 15 14 13 13 12 11 11 11 11 10 11 10 10 10 10 11 11 12 12 12 12 12 12 13 13 13 13 14 14 14 14 15 15 15
14 14 15 15 15 16 16 16 15 14 13 13 13 12 11 11 11 11 11 11 11 11 10 11 12 11 11 10 10 11 11 11 11 11 11 11 12 12 13 13 14 14 14
14 15 16 17 17 17 17 16 15 14 13 13 12 12 12 11 11 11 11 11 12 12 12 12 13 13 12 11 10 10 10 10 10 10 10 10 9 10 10 11 11 11 11
15 14 15 16 16 17 17 15 15 14 12 12 12 12 11 10 11 11 11 11 12 12 10 11 11 12 12 13 12 11 10 11 10 10 10 10 10 10 10 10 10 11 10
14 14 15 15 17 17 16 15 15 13 13 12 12 12 11 11 10 11 11 12 11 11 9 9 9 10 11 11 11 11 11 11 10 10 10 10 10 11 11 11 11 11 11
14 15 15 16 16 16 16 15 14 15 13 12 12 12 11 11 10 9 9 9 8 9 9 9 8 8 8 10 10 10 10 10 10 10 10 10 11 10 10 10 11 11 11
14 15 15 16 15 16 15 15 14 14 13 13 12 11 11 12 11 10 9 8 8 7 8 8 8 7 7 8 9 9 8 8 8 9 9 10 10 11 10 10 10 11 10
15 14 14 16 15 15 15 14 14 14 13 11 10 10 10 11 11 10 9 9 8 7 7 7 7 7 7 7 7 8 8 8 8 8 8 8 8 8 9 9 10 10 11
12 12 13 12 13 12 14 14 13 13 13 12 12 11 10 11 10 10 9 8 8 7 7 7 7 7 7 7 6 5 5 5 5 5 6 8 8 8 8 9 9 9 9
12 11 11 11 12 12 12 13 13 12 12 12 12 11 11 10 10 8 8 8 7 7 7 7 7 6 6 6 5 5 5 5 3 4 5 5 6 7 7 8 8 9 8
11 11 11 12 11 10 11 13 12 12 12 11 11 11 10 9 9 8 8 7 7 7 7 7 6 5 5 4 4 5 5 5 5 6 6 5 4 5 5 6 7 7 7
9 9 10 9 10 12 13 12 12 12 11 11 10 10 9 9 8 8 7 6 6 6 6 6 5 5 4 4 4 4 4 5 5 5 5 5 3 4 5 5 5 5 5
10 10 10 11 11 11 11 11 10 10 10 9 9 9 8 8 7 7 6 5 5 6 5 5 4 4 4 3 5 5 5 5 5 5 5 4 2 3 3 3 3 4 4